[[{"header":{"parameterUnit":"m.s-1","parameterCategory":1,"la1":31.0,"la2":29.5877,"lo1":-88.7671,"lo2":-86.6584,"dy":0.0162,"dx":0.0185,"nx":115,"ny":88,"refTime":"2024-09-04T00:00:00:Z","depth":0,"parameterNumber":2,"parameterNumberName":"U-component_of_WINDS"},"data":[0.0,0.0,0.0,0.0,0.0,0.0,0.0,0.0,0.0,0.0,0.0,0.0,0.0,0.0,0.0,0.0,0.0,0.0,0.0,0.0,0.0,0.0,0.0,0.0,0.0,0.0,0.0,0.0,0.0,0.0,0.0,0.0,0.0,0.0,0.0,0.0,0.0,0.0,0.0,0.0,0.0,0.0,0.0,0.0,0.0,0.0,0.0,0.0,0.0,0.0,0.0,0.0,0.0,0.0,0.0,0.0,0.0,0.0,0.0,0.0,0.0,0.0,0.0,0.0,0.0,0.0,0.0,0.0,0.0,0.0,0.0,0.0,0.0,0.0,0.0,0.0,0.0,0.0,0.0,0.0,0.0,0.0,0.0,0.0,0.0,0.0,0.0,0.0,0.0,0.0,0.0,0.0,0.0,0.0,0.0,0.0,0.0,0.0,0.0,0.0,0.0,0.0,0.0,0.0,0.0,0.0,0.0,0.0,0.0,0.0,0.0,0.0,0.0,0.0,0.0,0.0,0.0,0.0,0.0,0.0,0.0,0.0,0.0,0.0,0.0,0.0,0.0,0.0,0.0,0.0,0.0,0.0,0.0,0.0,0.0,0.0,0.0,0.0,0.0,0.0,0.0,0.0,0.0,0.0,0.0,0.0,0.0,0.0,0.0,0.0,0.0,0.0,0.0,0.0,0.0,0.0,0.0,0.0,0.0,0.0,0.0,0.0,0.0,0.0,0.0,0.0,0.0,0.0,0.0,0.0,0.0,0.0,0.0,0.0,0.0,0.0,0.0,0.0,0.0,0.0,0.0,0.0,0.0,0.0,0.0,0.0,0.0,0.0,0.0,0.0,0.0,0.0,0.0,0.0,0.0,0.0,0.0,0.0,0.0,0.0,0.0,0.0,0.0,0.0,0.0,0.0,0.0,0.0,0.0,0.0,0.0,0.0,0.0,0.0,0.0,0.0,0.0,0.0,0.0,0.0,0.0,0.0,0.0,0.0,0.0,0.0,0.0,0.0,0.0,0.0,0.0,0.0,0.0,0.0,0.0,0.0,0.0,0.0,0.0,0.0,0.0,0.0,0.0,0.0,0.0,0.0,0.0,0.0,0.0,0.0,0.0,0.0,0.0,0.0,0.0,0.0,0.0,0.0,0.0,0.0,0.0,0.0,0.0,0.0,0.0,0.0,0.0,0.0,0.0,0.0,0.0,0.0,0.0,0.0,0.0,0.0,0.0,0.0,0.0,0.0,0.0,0.0,0.0,0.0,0.0,0.0,0.0,0.0,0.0,0.0,0.0,0.0,0.0,0.0,0.0,0.0,0.0,0.0,0.0,0.0,0.0,0.0,0.0,0.0,0.0,0.0,0.0,0.0,0.0,0.0,0.0,0.0,0.0,0.0,0.0,0.0,0.0,0.0,0.0,0.0,0.0,0.0,0.0,0.0,0.0,0.0,0.0,0.0,0.0,0.0,0.0,0.0,0.0,0.0,0.0,0.0,0.0,0.0,0.0,0.0,0.0,0.0,0.0,0.0,0.0,0.0,0.0,0.0,0.0,0.0,0.0,0.0,0.0,0.0,0.0,0.0,0.0,0.0,0.0,0.0,0.0,0.0,0.0,0.0,0.0,0.0,0.0,0.0,0.0,0.0,0.0,0.0,0.0,0.0,0.0,0.0,0.0,0.0,0.0,0.0,0.0,0.0,0.0,0.0,0.0,0.0,0.0,0.0,0.0,0.0,0.0,0.0,0.0,0.0,0.0,0.0,0.0,0.0,0.0,0.0,0.0,0.0,0.0,0.0,0.0,0.0,0.0,0.0,0.0,0.0,0.0,0.0,0.0,0.0,0.0,0.0,0.0,0.0,0.0,0.0,0.0,0.0,0.0,0.0,0.0,0.0,0.0,0.0,0.0,0.0,0.0,0.0,0.0,0.0,0.0,0.0,0.0,0.0,0.0,0.0,0.0,0.0,0.0,0.0,0.0,0.0,0.0,0.0,0.0,0.0,0.0,0.0,0.0,0.0,0.0,0.0,0.0,0.0,0.0,0.0,0.0,0.0,0.0,0.0,0.0,0.0,0.0,0.0,0.0,0.0,0.0,0.0,0.0,0.0,0.0,0.0,0.0,0.0,0.0,0.0,0.0,0.0,0.0,0.0,0.0,0.0,0.0,0.0,0.0,0.0,0.0,0.0,0.0,0.0,0.0,0.0,0.0,0.0,0.0,0.0,0.0,0.0,0.0,0.0,0.0,0.0,0.0,0.0,0.0,0.0,0.0,0.0,0.0,0.0,0.0,0.0,0.0,0.0,0.0,0.0,0.0,0.0,0.0,0.0,0.0,0.0,0.0,0.0,0.0,0.0,0.0,0.0,0.0,0.0,0.0,0.0,0.0,0.0,0.0,0.0,0.0,0.0,0.0,0.0,0.0,0.0,0.0,0.0,0.0,0.0,0.0,0.0,0.0,0.0,0.0,0.0,0.0,0.0,0.0,0.0,0.0,0.0,0.0,0.0,0.0,0.0,0.0,0.0,0.0,0.0,0.0,0.0,0.0,0.0,0.0,0.0,0.0,0.0,0.0,0.0,0.0,0.0,0.0,0.0,0.0,0.0,0.0,0.0,0.0,0.0,0.0,0.0,0.0,0.0,0.0,0.0,0.0,0.0,0.0,0.0,0.0,0.0,0.0,0.0,0.0,0.0,0.0,0.0,0.0,0.0,0.0,0.0,0.0,0.0,0.0,0.0,0.0,0.0,0.0,0.0,0.0,0.0,0.0,0.0,0.0,0.0,0.0,0.0,0.0,0.0,0.0,0.0,0.0,0.0,0.0,0.0,0.0,0.0,0.0,0.0,0.0,0.0,0.0,0.0,0.0,0.0,0.0,0.0,0.0,0.0,0.0,0.0,0.0,0.0,0.0,0.0,0.0,0.0,0.0,0.0,0.0,0.0,0.0,0.0,0.0,0.0,0.0,0.0,0.0,0.0,0.0,0.0,0.0,0.0,0.0,0.0,0.0,0.0,0.0,0.0,0.0,0.0,0.0,0.0,0.0,0.0,0.0,0.0,0.0,0.0,0.0,0.0,0.0,0.0,0.0,0.0,0.0,0.0,0.0,0.0,0.0,0.0,0.0,0.0,0.0,0.0,0.0,0.0,0.0,0.0,0.0,0.0,0.0,0.0,0.0,0.0,0.0,0.0,0.0,0.0,0.0,0.0,0.0,0.0,0.0,0.0,0.0,0.0,0.0,0.0,0.0,0.0,0.0,0.0,0.0,0.0,0.0,0.0,0.0,0.0,0.0,0.0,0.0,0.0,0.0,0.0,0.0,0.0,0.0,0.0,0.0,0.0,0.0,0.0,0.0,0.0,0.0,0.0,0.0,0.0,0.0,0.0,0.0,0.0,0.0,0.0,0.0,0.0,0.0,0.0,0.0,0.0,0.0,0.0,0.0,0.0,0.0,0.0,0.0,0.0,0.0,0.0,0.0,0.0,0.0,0.0,0.0,0.0,0.0,0.0,0.0,0.0,0.0,0.0,0.0,0.0,0.0,0.0,0.0,0.0,0.0,0.0,0.0,0.0,0.0,0.0,0.0,0.0,0.0,0.0,0.0,0.0,0.0,0.0,0.0,0.0,0.0,0.0,0.0,0.0,0.0,0.0,0.0,0.0,0.0,0.0,0.0,0.0,0.0,0.0,0.0,0.0,0.0,0.0,0.0,0.0,0.0,0.0,0.0,0.0,0.0,0.0,0.0,0.0,0.0,0.0,0.0,0.0,0.0,0.0,0.0,0.0,0.0,0.0,0.0,0.0,0.0,0.0,0.0,0.0,0.0,0.0,0.0,0.0,0.0,0.0,0.0,0.0,0.0,0.0,0.0,0.0,0.0,0.0,0.0,0.0,0.0,0.0,0.0,0.0,0.0,0.0,0.0,0.0,0.0,0.0,0.0,0.0,0.0,0.0,0.0,0.0,0.0,0.0,0.0,0.0,0.0,0.0,0.0,0.0,0.0,0.0,0.0,0.0,0.0,0.0,0.0,0.0,0.0,0.0,0.0,0.0,0.0,0.0,0.0,0.0,0.0,0.0,0.0,0.0,0.0,0.0,0.0,0.0,0.0,0.0,0.0,0.0,0.0,0.0,0.0,0.0,0.0,0.0,0.0,0.0,0.0,0.0,0.0,0.0,0.0,0.0,0.0,0.0,0.0,0.0,0.0,0.0,0.0,0.0,0.0,0.0,0.0,0.0,0.0,0.0,0.0,0.0,0.0,0.0,0.0,0.0,0.0,0.0,0.0,0.0,2.7928,0.0,0.0,0.0,0.0,0.0,0.0,0.0,0.0,0.0,0.0,0.0,0.0,0.0,0.0,0.0,0.0,0.0,0.0,0.0,0.0,0.0,0.0,0.0,0.0,0.0,0.0,0.0,0.0,0.0,0.0,0.0,0.0,0.0,0.0,0.0,0.0,0.0,0.0,0.0,0.0,0.0,0.0,0.0,0.0,0.0,0.0,0.0,0.0,0.0,0.0,0.0,0.0,0.0,0.0,0.0,0.0,0.0,0.0,0.0,0.0,0.0,0.0,0.0,0.0,0.0,0.0,0.0,0.0,0.0,0.0,0.0,0.0,0.0,0.0,0.0,0.0,0.0,0.0,0.0,0.0,0.0,0.0,0.0,0.0,0.0,0.0,0.0,0.0,0.0,0.0,0.0,0.0,0.0,0.0,0.0,0.0,0.0,0.0,0.0,0.0,0.0,0.0,0.0,0.0,0.0,0.0,0.0,0.0,0.0,0.0,3.0379,3.0379,2.9544,2.8709,2.7928,0.0,0.0,0.0,0.0,0.0,0.0,0.0,0.0,0.0,0.0,0.0,0.0,0.0,0.0,0.0,0.0,0.0,0.0,0.0,0.0,0.0,0.0,0.0,0.0,0.0,0.0,0.0,0.0,0.0,0.0,0.0,0.0,0.0,0.0,0.0,0.0,0.0,0.0,0.0,0.0,0.0,0.0,0.0,0.0,0.0,0.0,0.0,0.0,0.0,0.0,0.0,0.0,0.0,0.0,0.0,0.0,0.0,0.0,0.0,0.0,0.0,0.0,0.0,0.0,0.0,0.0,0.0,0.0,0.0,0.0,0.0,0.0,0.0,0.0,0.0,0.0,0.0,0.0,0.0,0.0,0.0,0.0,0.0,0.0,0.0,0.0,0.0,0.0,0.0,0.0,0.0,0.0,0.0,0.0,0.0,0.0,0.0,0.0,0.0,0.0,0.0,0.0,0.0,0.0,0.0,0.0,0.0,0.0,0.0,0.0,0.0,0.0,3.0506,2.9852,2.9083,0.0,0.0,0.0,0.0,0.0,0.0,0.0,0.0,0.0,0.0,0.0,0.0,0.0,0.0,0.0,0.0,0.0,0.0,0.0,0.0,0.0,0.0,0.0,0.0,0.0,0.0,0.0,0.0,0.0,0.0,0.0,0.0,0.0,0.0,0.0,0.0,0.0,0.0,0.0,0.0,0.0,0.0,0.0,0.0,0.0,0.0,0.0,0.0,0.0,0.0,0.0,0.0,0.0,0.0,0.0,0.0,0.0,0.0,0.0,0.0,0.0,0.0,0.0,0.0,0.0,0.0,0.0,0.0,0.0,0.0,0.0,0.0,0.0,0.0,0.0,0.0,0.0,0.0,0.0,0.0,0.0,0.0,0.0,0.0,0.0,0.0,0.0,0.0,0.0,0.0,0.0,0.0,0.0,0.0,0.0,0.0,0.0,0.0,0.0,0.0,0.0,0.0,0.0,0.0,0.0,0.0,0.0,0.0,0.0,0.0,3.0314,3.2622,3.3314,0.0,3.2506,0.0,0.0,0.0,0.0,0.0,0.0,0.0,0.0,0.0,0.0,0.0,0.0,0.0,0.0,0.0,0.0,0.0,0.0,0.0,0.0,0.0,0.0,0.0,0.0,0.0,0.0,0.0,0.0,0.0,0.0,0.0,0.0,0.0,0.0,0.0,0.0,0.0,0.0,0.0,0.0,0.0,0.0,0.0,0.0,0.0,0.0,0.0,0.0,0.0,0.0,0.0,0.0,0.0,0.0,0.0,0.0,0.0,0.0,0.0,0.0,0.0,0.0,0.0,0.0,0.0,0.0,0.0,0.0,0.0,0.0,0.0,0.0,0.0,0.0,0.0,0.0,0.0,0.0,0.0,0.0,0.0,0.0,0.0,0.0,0.0,0.0,0.0,0.0,0.0,0.0,0.0,0.0,0.0,0.0,0.0,0.0,0.0,0.0,0.0,0.0,0.0,0.0,0.0,0.0,0.0,0.0,0.0,0.0,0.0,0.0,3.1852,3.2891,3.2776,3.2314,0.0,0.0,0.0,0.0,0.0,0.0,0.0,0.0,0.0,0.0,0.0,0.0,0.0,0.0,0.0,0.0,0.0,0.0,0.0,0.0,0.0,0.0,0.0,0.0,0.0,0.0,0.0,0.0,0.0,0.0,0.0,0.0,0.0,0.0,0.0,0.0,0.0,0.0,0.0,0.0,0.0,0.0,0.0,0.0,0.0,0.0,0.0,0.0,0.0,0.0,0.0,0.0,0.0,0.0,0.0,0.0,0.0,0.0,0.0,0.0,0.0,0.0,0.0,0.0,0.0,0.0,0.0,0.0,0.0,0.0,0.0,0.0,0.0,0.0,0.0,0.0,0.0,0.0,0.0,0.0,0.0,0.0,0.0,0.0,0.0,0.0,0.0,0.0,0.0,0.0,0.0,0.0,0.0,0.0,0.0,0.0,0.0,0.0,0.0,0.0,0.0,0.0,0.0,0.0,0.0,0.0,0.0,0.0,0.0,0.0,3.1814,3.3006,3.3853,3.316,3.2006,3.0456,0.0,0.0,0.0,0.0,0.0,0.0,0.0,0.0,0.0,0.0,0.0,0.0,0.0,0.0,0.0,0.0,0.0,0.0,0.0,0.0,0.0,0.0,0.0,0.0,0.0,0.0,0.0,0.0,0.0,0.0,0.0,0.0,0.0,0.0,0.0,0.0,0.0,0.0,0.0,0.0,0.0,0.0,0.0,0.0,0.0,0.0,0.0,0.0,0.0,0.0,0.0,0.0,0.0,0.0,0.0,0.0,0.0,0.0,0.0,0.0,0.0,0.0,0.0,0.0,0.0,0.0,0.0,0.0,0.0,0.0,0.0,0.0,0.0,0.0,0.0,0.0,0.0,0.0,0.0,0.0,0.0,0.0,0.0,0.0,0.0,0.0,0.0,0.0,0.0,0.0,0.0,0.0,0.0,0.0,0.0,0.0,0.0,0.0,0.0,0.0,0.0,0.0,0.0,0.0,0.0,0.0,0.0,0.0,3.5738,3.3276,3.3276,3.6392,3.5724,3.3776,0.0,0.0,0.0,0.0,0.0,0.0,0.0,0.0,0.0,0.0,0.0,0.0,0.0,0.0,0.0,0.0,0.0,0.0,0.0,0.0,0.0,0.0,0.0,0.0,0.0,0.0,0.0,0.0,0.0,0.0,0.0,0.0,0.0,0.0,0.0,0.0,0.0,0.0,0.0,0.0,0.0,0.0,0.0,0.0,0.0,0.0,0.0,0.0,0.0,0.0,0.0,0.0,0.0,0.0,0.0,0.0,0.0,0.0,0.0,0.0,0.0,0.0,0.0,0.0,0.0,0.0,0.0,0.0,0.0,0.0,0.0,0.0,0.0,0.0,0.0,0.0,0.0,0.0,0.0,0.0,0.0,0.0,0.0,0.0,0.0,0.0,0.0,0.0,0.0,0.0,0.0,0.0,0.0,0.0,0.0,0.0,0.0,0.0,0.0,0.0,0.0,0.0,0.0,0.0,0.0,0.0,0.0,0.0,0.0,2.9302,3.034,3.3506,3.87,3.4661,3.2648,0.0,0.0,0.0,0.0,0.0,0.0,0.0,0.0,0.0,0.0,0.0,0.0,0.0,0.0,0.0,0.0,0.0,0.0,0.0,0.0,0.0,0.0,0.0,0.0,0.0,0.0,0.0,0.0,0.0,0.0,0.0,0.0,0.0,0.0,0.0,0.0,0.0,0.0,0.0,0.0,0.0,0.0,0.0,0.0,0.0,0.0,0.0,0.0,0.0,0.0,0.0,0.0,0.0,0.0,0.0,0.0,0.0,0.0,0.0,0.0,0.0,0.0,0.0,0.0,0.0,0.0,0.0,0.0,0.0,0.0,0.0,0.0,0.0,0.0,0.0,0.0,0.0,0.0,0.0,0.0,0.0,0.0,0.0,0.0,0.0,0.0,0.0,0.0,0.0,0.0,0.0,0.0,0.0,0.0,0.0,0.0,0.0,0.0,0.0,0.0,0.0,0.0,0.0,0.0,0.0,0.0,0.0,0.0,0.0,2.8571,0.0,3.5353,3.8507,3.4468,3.2109,0.0,0.0,0.0,0.0,0.0,0.0,0.0,0.0,0.0,0.0,0.0,0.0,0.0,0.0,0.0,0.0,0.0,0.0,0.0,0.0,0.0,0.0,0.0,0.0,0.0,0.0,0.0,0.0,0.0,0.0,0.0,0.0,0.0,0.0,0.0,0.0,0.0,0.0,0.0,0.0,0.0,0.0,0.0,0.0,0.0,0.0,0.0,0.0,0.0,0.0,0.0,0.0,0.0,0.0,0.0,0.0,0.0,0.0,0.0,0.0,0.0,0.0,0.0,0.0,0.0,0.0,0.0,0.0,0.0,0.0,0.0,0.0,0.0,0.0,0.0,0.0,0.0,0.0,0.0,0.0,0.0,0.0,0.0,0.0,0.0,0.0,0.0,0.0,0.0,0.0,0.0,0.0,0.0,0.0,0.0,0.0,0.0,0.0,0.0,0.0,0.0,0.0,0.0,0.0,0.0,0.0,0.0,0.0,2.8648,3.507,3.8392,3.8623,3.5762,3.5416,3.2275,0.0,0.0,0.0,0.0,0.0,0.0,0.0,0.0,0.0,0.0,0.0,0.0,0.0,0.0,0.0,0.0,0.0,0.0,0.0,0.0,0.0,0.0,0.0,0.0,0.0,0.0,0.0,0.0,0.0,0.0,0.0,0.0,0.0,0.0,0.0,0.0,0.0,0.0,0.0,0.0,0.0,0.0,0.0,0.0,0.0,0.0,0.0,0.0,0.0,0.0,0.0,0.0,0.0,0.0,0.0,0.0,0.0,0.0,0.0,0.0,0.0,0.0,0.0,0.0,0.0,0.0,0.0,0.0,0.0,0.0,0.0,0.0,0.0,0.0,0.0,0.0,0.0,0.0,0.0,0.0,0.0,0.0,0.0,0.0,0.0,0.0,0.0,0.0,0.0,0.0,0.0,0.0,0.0,0.0,0.0,0.0,0.0,0.0,0.0,0.0,0.0,0.0,0.0,0.0,0.0,0.0,0.0,0.0,0.0,3.2878,3.5622,3.7969,3.9585,3.5315,3.2968,0.0,0.0,0.0,0.0,0.0,0.0,0.0,0.0,0.0,0.0,0.0,0.0,0.0,0.0,0.0,0.0,0.0,0.0,0.0,0.0,0.0,0.0,0.0,0.0,0.0,0.0,0.0,0.0,0.0,0.0,0.0,0.0,0.0,0.0,0.0,0.0,0.0,0.0,0.0,0.0,0.0,0.0,0.0,0.0,0.0,0.0,0.0,0.0,0.0,0.0,0.0,0.0,0.0,0.0,0.0,0.0,0.0,0.0,0.0,0.0,0.0,0.0,0.0,0.0,0.0,0.0,0.0,0.0,0.0,0.0,0.0,0.0,0.0,0.0,0.0,0.0,0.0,0.0,0.0,0.0,0.0,0.0,0.0,0.0,0.0,0.0,0.0,0.0,0.0,0.0,0.0,0.0,0.0,0.0,0.0,0.0,0.0,0.0,0.0,0.0,0.0,0.0,0.0,0.0,0.0,0.0,0.0,0.0,0.0,3.6731,3.9292,4.1267,4.2524,3.7846,3.4902,3.3983,0.0,0.0,0.0,0.0,0.0,0.0,0.0,0.0,0.0,0.0,0.0,0.0,0.0,0.0,0.0,0.0,0.0,0.0,0.0,0.0,0.0,0.0,0.0,0.0,0.0,0.0,0.0,0.0,0.0,0.0,0.0,0.0,0.0,0.0,0.0,0.0,0.0,0.0,0.0,0.0,0.0,0.0,0.0,0.0,0.0,0.0,0.0,0.0,0.0,0.0,0.0,0.0,0.0,0.0,0.0,0.0,0.0,0.0,0.0,0.0,0.0,0.0,0.0,0.0,0.0,0.0,0.0,0.0,0.0,0.0,0.0,0.0,0.0,0.0,0.0,0.0,0.0,0.0,0.0,0.0,0.0,0.0,0.0,0.0,0.0,0.0,0.0,0.0,0.0,0.0,0.0,0.0,0.0,0.0,0.0,0.0,0.0,0.0,0.0,0.0,0.0,0.0,0.0,0.0,0.0,0.0,0.0,0.0,4.49,4.8116,4.8025,4.45,4.2484,3.7908,0.0,0.0,0.0,0.0,0.0,0.0,0.0,0.0,0.0,0.0,0.0,0.0,0.0,0.0,0.0,0.0,0.0,0.0,0.0,0.0,0.0,0.0,0.0,0.0,0.0,0.0,0.0,0.0,0.0,0.0,0.0,0.0,0.0,0.0,0.0,0.0,0.0,0.0,0.0,0.0,0.0,0.0,0.0,0.0,0.0,0.0,0.0,0.0,0.0,0.0,0.0,0.0,0.0,0.0,0.0,0.0,0.0,0.0,0.0,0.0,0.0,0.0,0.0,0.0,0.0,0.0,0.0,0.0,0.0,0.0,0.0,0.0,0.0,0.0,0.0,0.0,0.0,0.0,0.0,0.0,0.0,0.0,0.0,0.0,0.0,0.0,0.0,0.0,0.0,0.0,0.0,0.0,0.0,0.0,0.0,0.0,0.0,0.0,0.0,0.0,0.0,0.0,0.0,0.0,0.0,0.0,0.0,0.0,0.0,4.6945,5.2167,5.3543,5.0665,4.5493,4.0901,0.0,0.0,0.0,0.0,0.0,0.0,0.0,0.0,0.0,0.0,0.0,0.0,0.0,0.0,0.0,0.0,0.0,0.0,0.0,0.0,0.0,0.0,0.0,0.0,0.0,0.0,0.0,0.0,0.0,0.0,0.0,0.0,0.0,0.0,0.0,0.0,0.0,0.0,0.0,0.0,0.0,0.0,0.0,0.0,0.0,0.0,0.0,0.0,0.0,0.0,0.0,0.0,0.0,0.0,0.0,0.0,0.0,0.0,0.0,0.0,0.0,0.0,0.0,0.0,0.0,0.0,0.0,0.0,0.0,0.0,0.0,0.0,0.0,0.0,0.0,0.0,0.0,0.0,0.0,0.0,0.0,0.0,0.0,0.0,0.0,0.0,0.0,0.0,0.0,0.0,0.0,0.0,0.0,0.0,0.0,0.0,0.0,0.0,0.0,0.0,0.0,0.0,0.0,0.0,0.0,0.0,0.0,0.0,4.4729,4.9697,5.5883,5.8202,5.6215,5.0351,4.4653,0.0,0.0,0.0,0.0,0.0,0.0,0.0,0.0,0.0,0.0,0.0,0.0,0.0,0.0,0.0,0.0,0.0,0.0,0.0,0.0,0.0,0.0,0.0,0.0,0.0,0.0,0.0,0.0,0.0,0.0,0.0,0.0,0.0,0.0,0.0,0.0,0.0,0.0,0.0,0.0,0.0,0.0,0.0,0.0,0.0,0.0,0.0,0.0,0.0,0.0,0.0,0.0,0.0,0.0,0.0,0.0,0.0,0.0,0.0,0.0,0.0,0.0,0.0,0.0,0.0,0.0,0.0,0.0,0.0,0.0,0.0,0.0,0.0,0.0,0.0,0.0,0.0,0.0,0.0,0.0,0.0,0.0,0.0,0.0,0.0,0.0,0.0,0.0,0.0,0.0,0.0,0.0,0.0,0.0,0.0,0.0,0.0,0.0,0.0,0.0,0.0,0.0,0.0,0.0,0.0,0.0,0.0,0.0,4.8658,5.2566,5.8921,6.1678,6.043,5.5306,4.8373,0.0,0.0,0.0,0.0,0.0,0.0,0.0,0.0,0.0,0.0,0.0,0.0,0.0,0.0,0.0,0.0,0.0,0.0,0.0,0.0,0.0,0.0,0.0,0.0,0.0,0.0,0.0,0.0,0.0,0.0,0.0,0.0,0.0,0.0,0.0,0.0,0.0,0.0,0.0,0.0,0.0,0.0,0.0,0.0,0.0,0.0,0.0,0.0,0.0,0.0,0.0,0.0,0.0,0.0,0.0,0.0,0.0,0.0,0.0,0.0,0.0,0.0,0.0,0.0,0.0,0.0,0.0,0.0,0.0,0.0,0.0,0.0,0.0,0.0,0.0,0.0,0.0,0.0,0.0,0.0,0.0,0.0,0.0,0.0,0.0,0.0,0.0,0.0,0.0,0.0,0.0,0.0,0.0,0.0,0.0,0.0,0.0,0.0,0.0,0.0,0.0,0.0,0.0,0.0,0.0,0.0,0.0,0.0,4.9894,5.3939,5.9062,6.1629,6.13,5.4748,4.8751,0.0,0.0,0.0,0.0,0.0,0.0,0.0,0.0,0.0,0.0,0.0,0.0,0.0,0.0,0.0,0.0,0.0,0.0,0.0,0.0,0.0,0.0,0.0,0.0,0.0,0.0,0.0,0.0,0.0,0.0,0.0,0.0,0.0,0.0,0.0,0.0,0.0,0.0,0.0,0.0,0.0,0.0,0.0,0.0,0.0,0.0,0.0,0.0,2.809,0.0,0.0,0.0,0.0,0.0,0.0,0.0,0.0,0.0,0.0,0.0,0.0,0.0,0.0,0.0,0.0,0.0,0.0,0.0,0.0,0.0,0.0,0.0,0.0,0.0,0.0,0.0,0.0,0.0,0.0,0.0,0.0,0.0,0.0,0.0,0.0,0.0,0.0,0.0,0.0,0.0,0.0,0.0,0.0,0.0,0.0,0.0,0.0,0.0,0.0,0.0,0.0,0.0,0.0,0.0,0.0,0.0,0.0,0.0,5.1646,5.6014,6.0052,6.2144,6.1961,5.6235,5.0582,0.0,0.0,0.0,0.0,0.0,0.0,0.0,0.0,0.0,0.0,0.0,0.0,0.0,0.0,0.0,0.0,0.0,0.0,0.0,0.0,0.0,0.0,0.0,0.0,0.0,0.0,0.0,0.0,0.0,0.0,0.0,0.0,0.0,0.0,0.0,0.0,0.0,0.0,0.0,0.0,0.0,0.0,0.0,0.0,0.0,0.0,0.0,0.0,0.0,0.0,0.0,0.0,0.0,0.0,0.0,0.0,0.0,0.0,0.0,0.0,0.0,0.0,0.0,0.0,0.0,0.0,0.0,0.0,0.0,0.0,0.0,0.0,0.0,0.0,0.0,0.0,0.0,0.0,0.0,0.0,0.0,0.0,0.0,0.0,0.0,0.0,0.0,0.0,0.0,0.0,0.0,0.0,0.0,0.0,0.0,0.0,0.0,0.0,0.0,0.0,0.0,0.0,0.0,0.0,0.0,0.0,0.0,4.7388,5.3188,5.8364,6.1337,6.2768,6.2548,5.807,5.2527,4.6104,0.0,0.0,0.0,0.0,0.0,0.0,0.0,0.0,0.0,0.0,0.0,0.0,0.0,0.0,0.0,0.0,0.0,0.0,0.0,0.0,0.0,0.0,0.0,0.0,0.0,0.0,0.0,0.0,0.0,0.0,0.0,0.0,0.0,0.0,0.0,0.0,0.0,0.0,2.8659,3.0905,0.0,0.0,0.0,0.0,0.0,0.0,0.0,0.0,3.0073,0.0,0.0,0.0,0.0,0.0,0.0,0.0,0.0,0.0,0.0,0.0,0.0,0.0,0.0,0.0,0.0,0.0,0.0,0.0,0.0,0.0,0.0,0.0,0.0,0.0,0.0,0.0,0.0,0.0,0.0,0.0,0.0,0.0,0.0,0.0,0.0,0.0,0.0,0.0,0.0,0.0,0.0,0.0,0.0,0.0,0.0,0.0,0.0,0.0,0.0,0.0,0.0,0.0,0.0,0.0,0.0,4.6764,4.8783,5.3371,6.0786,6.2181,6.2475,6.1741,5.7776,5.2564,4.6104,0.0,0.0,0.0,0.0,0.0,0.0,0.0,0.0,0.0,0.0,0.0,0.0,0.0,0.0,0.0,0.0,0.0,0.0,0.0,0.0,0.0,0.0,0.0,0.0,0.0,0.0,0.0,0.0,0.0,0.0,0.0,0.0,0.0,0.0,0.0,0.0,0.0,0.0,0.0,3.4587,3.5637,0.0,0.0,0.0,0.0,0.0,0.0,0.0,0.0,3.1316,0.0,0.0,0.0,0.0,0.0,0.0,0.0,0.0,0.0,0.0,0.0,0.0,0.0,0.0,0.0,0.0,0.0,0.0,0.0,0.0,0.0,0.0,0.0,0.0,0.0,0.0,0.0,0.0,0.0,0.0,0.0,0.0,0.0,0.0,0.0,0.0,0.0,0.0,0.0,0.0,0.0,0.0,0.0,0.0,0.0,0.0,0.0,0.0,0.0,0.0,0.0,0.0,0.0,0.0,0.0,4.6728,5.0729,5.5757,6.1961,6.2622,6.2438,6.152,5.6492,5.1242,0.0,0.0,0.0,0.0,0.0,0.0,0.0,0.0,0.0,0.0,0.0,0.0,0.0,0.0,0.0,0.0,0.0,0.0,0.0,0.0,0.0,0.0,0.0,0.0,0.0,0.0,0.0,0.0,0.0,0.0,0.0,0.0,0.0,0.0,0.0,0.0,0.0,0.0,0.0,0.0,3.5776,3.6889,3.7785,0.0,0.0,0.0,0.0,0.0,0.0,3.3644,3.2305,0.0,0.0,0.0,0.0,0.0,0.0,0.0,0.0,0.0,0.0,0.0,0.0,0.0,0.0,0.0,0.0,0.0,0.0,0.0,0.0,0.0,0.0,0.0,0.0,0.0,0.0,0.0,0.0,0.0,0.0,0.0,0.0,0.0,0.0,0.0,0.0,0.0,0.0,0.0,0.0,0.0,0.0,0.0,0.0,0.0,0.0,0.0,0.0,0.0,0.0,0.0,0.0,0.0,0.0,0.0,4.581,5.1977,5.7629,6.2548,6.2805,6.2365,6.1263,5.5427,5.0105,0.0,0.0,0.0,0.0,0.0,0.0,0.0,0.0,0.0,0.0,0.0,0.0,0.0,0.0,0.0,0.0,0.0,0.0,0.0,0.0,0.0,0.0,0.0,0.0,0.0,0.0,0.0,0.0,0.0,0.0,0.0,0.0,0.0,0.0,0.0,0.0,0.0,0.0,0.0,0.0,0.0,3.8669,3.9679,3.8297,0.0,0.0,0.0,0.0,3.7294,3.6119,0.0,0.0,0.0,0.0,0.0,0.0,0.0,0.0,0.0,0.0,0.0,0.0,0.0,0.0,0.0,0.0,0.0,0.0,0.0,0.0,0.0,0.0,0.0,0.0,0.0,0.0,0.0,0.0,0.0,0.0,0.0,0.0,0.0,0.0,0.0,0.0,0.0,0.0,0.0,0.0,0.0,0.0,0.0,0.0,0.0,0.0,0.0,0.0,0.0,0.0,0.0,0.0,0.0,0.0,0.0,0.0,4.5736,5.0912,5.6528,6.2438,6.2805,6.2108,6.0529,5.5684,5.0141,0.0,0.0,0.0,0.0,0.0,0.0,0.0,0.0,0.0,0.0,0.0,0.0,0.0,0.0,0.0,0.0,0.0,0.0,0.0,0.0,0.0,0.0,0.0,0.0,0.0,0.0,0.0,0.0,0.0,0.0,0.0,0.0,0.0,0.0,0.0,0.0,0.0,0.0,0.0,0.0,0.0,4.2787,4.0632,4.068,4.0291,0.0,0.0,4.0561,4.1479,4.2543,0.0,0.0,0.0,0.0,0.0,0.0,0.0,0.0,0.0,0.0,0.0,0.0,0.0,0.0,0.0,0.0,0.0,0.0,0.0,0.0,0.0,0.0,0.0,0.0,0.0,0.0,0.0,0.0,0.0,0.0,0.0,0.0,0.0,0.0,0.0,0.0,0.0,0.0,0.0,0.0,0.0,0.0,0.0,0.0,0.0,0.0,0.0,0.0,0.0,0.0,0.0,0.0,0.0,0.0,0.0,4.012,4.592,5.2968,5.8621,6.2622,6.2365,6.1594,6.0419,5.3959,4.8049,0.0,0.0,0.0,0.0,0.0,0.0,0.0,0.0,0.0,0.0,0.0,0.0,0.0,0.0,0.0,0.0,0.0,0.0,0.0,0.0,0.0,0.0,0.0,0.0,0.0,0.0,0.0,0.0,0.0,0.0,0.0,0.0,0.0,0.0,0.0,0.0,0.0,0.0,0.0,0.0,0.0,0.0,4.3058,4.3439,0.0,0.0,0.0,4.3461,4.247,0.0,0.0,0.0,0.0,0.0,0.0,0.0,0.0,0.0,0.0,0.0,0.0,0.0,0.0,0.0,0.0,0.0,0.0,0.0,0.0,0.0,0.0,0.0,0.0,0.0,0.0,0.0,0.0,0.0,0.0,0.0,0.0,0.0,0.0,0.0,0.0,0.0,0.0,0.0,0.0,0.0,0.0,0.0,0.0,0.0,0.0,0.0,0.0,0.0,0.0,0.0,0.0,0.0,0.0,0.0,0.0,0.0,4.6287,5.4987,6.0603,6.2695,6.1998,6.1227,6.0309,5.3335,0.0,0.0,0.0,0.0,0.0,0.0,0.0,0.0,0.0,0.0,0.0,0.0,0.0,0.0,0.0,0.0,0.0,0.0,0.0,0.0,0.0,0.0,0.0,0.0,0.0,0.0,0.0,2.1183,0.0,0.0,0.0,0.0,0.0,0.0,0.0,0.0,0.0,0.0,0.0,0.0,0.0,0.0,4.2884,4.5106,4.5774,4.5934,0.0,0.0,4.5736,4.4342,4.548,4.4599,0.0,0.0,0.0,0.0,0.0,0.0,0.0,0.0,0.0,0.0,0.0,0.0,0.0,0.0,0.0,0.0,0.0,0.0,0.0,0.0,0.0,0.0,0.0,0.0,0.0,0.0,0.0,0.0,0.0,0.0,0.0,0.0,0.0,0.0,0.0,0.0,0.0,0.0,0.0,0.0,0.0,0.0,0.0,0.0,0.0,0.0,0.0,0.0,0.0,0.0,0.0,0.0,0.0,0.0,4.302,4.7168,5.5794,6.1117,6.2732,6.1998,6.1227,6.0346,5.55,4.9884,0.0,0.0,0.0,0.0,0.0,0.0,0.0,0.0,0.0,0.0,0.0,0.0,0.0,0.0,0.0,0.0,0.0,0.0,0.0,0.0,0.0,0.0,0.0,0.0,0.0,0.0,0.0,0.0,0.0,0.0,0.0,0.0,0.0,0.0,0.0,0.0,0.0,0.0,0.0,0.0,0.0,4.5625,4.5809,4.7132,4.8895,0.0,4.893,4.7498,4.8857,5.0398,4.882,4.1001,0.0,0.0,0.0,0.0,0.0,0.0,0.0,0.0,0.0,0.0,0.0,0.0,0.0,0.0,0.0,0.0,0.0,0.0,0.0,0.0,0.0,0.0,0.0,0.0,0.0,0.0,0.0,0.0,0.0,0.0,0.0,0.0,0.0,0.0,0.0,0.0,0.0,0.0,0.0,0.0,0.0,0.0,0.0,0.0,0.0,0.0,0.0,0.0,0.0,0.0,0.0,0.0,0.0,4.3094,4.7094,5.5868,6.119,6.2695,6.152,6.0713,6.0419,5.5757,5.0141,0.0,0.0,0.0,0.0,0.0,0.0,0.0,0.0,0.0,0.0,0.0,0.0,0.0,0.0,0.0,0.0,0.0,0.0,0.0,0.0,0.0,0.0,0.0,0.0,0.0,0.0,0.0,0.0,2.5585,2.6135,2.6135,0.0,0.0,0.0,0.0,0.0,0.0,0.0,0.0,0.0,0.0,4.6801,4.9297,5.0178,0.0,0.0,5.0912,4.9811,4.893,4.9334,4.7645,4.1625,3.9129,0.0,0.0,0.0,0.0,0.0,0.0,0.0,0.0,0.0,0.0,0.0,0.0,0.0,0.0,0.0,0.0,0.0,0.0,0.0,0.0,0.0,0.0,0.0,0.0,0.0,0.0,0.0,0.0,0.0,0.0,0.0,0.0,0.0,0.0,0.0,0.0,0.0,0.0,0.0,0.0,0.0,0.0,0.0,0.0,0.0,0.0,0.0,0.0,0.0,0.0,0.0,0.0,4.3204,4.7462,5.6014,6.1043,6.2438,6.1117,6.0309,5.9942,5.5831,5.0839,0.0,0.0,0.0,0.0,0.0,0.0,0.0,0.0,0.0,0.0,0.0,0.0,0.0,0.0,0.0,0.0,0.0,0.0,0.0,0.0,0.0,0.0,0.0,0.0,0.0,0.0,0.0,0.0,2.6319,2.6612,2.6612,0.0,0.0,0.0,0.0,0.0,0.0,0.0,0.0,0.0,0.0,4.8673,5.1279,5.1646,5.161,5.1646,5.0802,4.9738,4.8489,4.8306,4.6911,4.2837,0.0,0.0,0.0,0.0,0.0,0.0,0.0,0.0,0.0,0.0,0.0,0.0,0.0,0.0,0.0,0.0,0.0,0.0,0.0,0.0,0.0,0.0,0.0,0.0,0.0,0.0,0.0,2.5421,0.0,0.0,2.4226,0.0,0.0,0.0,0.0,0.0,0.0,0.0,0.0,0.0,0.0,0.0,0.0,0.0,0.0,0.0,0.0,0.0,0.0,0.0,0.0,0.0,0.0,4.3497,4.8269,5.6235,6.0786,6.1557,6.0823,6.0015,5.9208,5.6088,5.2417,4.8196,0.0,0.0,0.0,0.0,0.0,0.0,0.0,0.0,0.0,0.0,0.0,0.0,0.0,0.0,0.0,0.0,0.0,0.0,0.0,0.0,0.0,0.0,0.0,0.0,0.0,0.0,2.441,2.5658,2.6612,0.0,0.0,0.0,0.0,0.0,0.0,0.0,0.0,0.0,4.1809,4.7792,5.1573,5.0912,5.0839,5.0875,5.0949,4.8233,4.6654,4.8159,4.8306,4.7498,0.0,0.0,0.0,0.0,0.0,0.0,0.0,0.0,0.0,0.0,0.0,0.0,0.0,0.0,0.0,0.0,0.0,0.0,0.0,0.0,0.0,0.0,0.0,0.0,0.0,0.0,0.0,3.3062,3.1017,0.0,0.0,0.0,0.0,0.0,0.0,0.0,0.0,0.0,0.0,0.0,4.3167,4.5039,0.0,0.0,0.0,0.0,0.0,0.0,0.0,0.0,0.0,0.0,0.0,0.0,4.4011,4.8416,5.5757,6.0015,6.075,6.0015,5.9465,5.9208,5.7152,5.3078,4.6911,0.0,0.0,0.0,0.0,0.0,0.0,0.0,0.0,0.0,0.0,0.0,0.0,0.0,0.0,0.0,0.0,0.0,0.0,0.0,0.0,0.0,0.0,0.0,0.0,0.0,2.5274,0.0,0.0,0.0,0.0,0.0,0.0,0.0,0.0,0.0,0.0,0.0,4.1295,4.5039,4.7829,4.9848,5.0692,5.0802,5.1353,0.0,0.0,0.0,0.0,0.0,0.0,0.0,0.0,0.0,0.0,0.0,0.0,0.0,0.0,4.4745,3.7257,3.6083,3.634,3.6597,0.0,0.0,0.0,0.0,0.0,0.0,0.0,0.0,0.0,0.0,0.0,0.0,0.0,0.0,3.9496,3.7918,3.6303,0.0,0.0,0.0,0.0,0.0,0.0,0.0,0.0,4.6581,4.9224,4.9738,5.1353,5.0839,0.0,4.7131,4.3314,0.0,0.0,0.0,0.0,0.0,0.0,0.0,0.0,4.4966,4.882,5.5647,5.9465,5.9905,5.9208,5.8657,5.8364,5.6528,5.2894,4.7352,4.4121,4.0524,0.0,0.0,0.0,0.0,0.0,0.0,0.0,0.0,0.0,0.0,0.0,0.0,0.0,0.0,0.0,0.0,0.0,0.0,0.0,0.0,0.0,0.0,0.0,2.5915,0.0,0.0,0.0,0.0,0.0,0.0,0.0,0.0,0.0,3.8726,4.1846,4.5333,4.8783,5.0178,5.0839,5.0802,0.0,0.0,0.0,0.0,0.0,0.0,0.0,4.7939,4.7682,4.7904,4.8454,4.945,5.1846,5.3298,5.2197,0.0,0.0,4.324,4.1882,4.2139,4.2433,4.3322,4.3943,4.3688,4.4917,4.5698,0.0,0.0,0.0,0.0,0.0,0.0,0.0,0.0,4.6067,4.6287,0.0,4.2837,0.0,0.0,0.0,0.0,0.0,4.2653,0.0,0.0,5.495,5.8327,5.6895,5.6859,5.6492,5.5721,5.4766,5.2307,4.8233,4.1479,0.0,0.0,0.0,0.0,0.0,0.0,4.6397,4.9664,5.5904,5.9171,5.9098,5.8364,5.7593,5.6785,5.4546,5.216,4.9774,4.8086,4.537,4.1442,3.6707,0.0,0.0,0.0,0.0,0.0,0.0,0.0,0.0,0.0,0.0,0.0,0.0,0.0,0.0,0.0,0.0,0.0,0.0,0.0,0.0,2.6686,0.0,0.0,0.0,0.0,0.0,0.0,0.0,0.0,0.0,0.0,4.1809,4.6177,5.0435,5.2747,0.0,0.0,0.0,0.0,5.0912,4.8012,4.7425,4.7792,4.8636,5.0582,5.2307,5.3078,0.0,0.0,5.4809,5.46,5.4246,5.2595,5.4269,5.4979,5.248,5.0065,4.8893,4.9515,4.8587,4.7867,4.8425,4.8793,4.8831,5.6369,0.0,0.0,0.0,0.0,5.1193,5.3041,5.5868,5.5537,5.4106,5.183,4.9774,0.0,0.0,0.0,0.0,0.0,0.0,5.0068,5.2931,5.6638,5.8731,5.9391,5.9942,5.9795,5.8988,5.7629,5.6088,5.4289,5.1132,4.5406,3.7441,0.0,0.0,0.0,0.0,4.86,5.1389,5.5941,5.807,5.7519,5.7262,5.6748,5.5978,5.473,5.3482,5.2197,5.1169,4.8967,4.5516,4.1882,0.0,0.0,0.0,0.0,0.0,0.0,0.0,0.0,0.0,0.0,0.0,0.0,0.0,0.0,0.0,0.0,0.0,0.0,0.0,2.7383,2.8484,2.9475,0.0,0.0,0.0,0.0,0.0,0.0,0.0,0.0,0.0,4.9554,4.9591,5.0068,0.0,0.0,5.0765,4.9224,5.0729,5.227,5.3041,5.3151,0.0,5.5023,5.4363,5.3959,5.4766,5.6882,5.8359,5.7932,5.8771,5.9039,5.7388,5.7672,5.7743,5.6563,5.5765,5.5094,5.4833,5.4399,5.3957,5.362,5.3599,5.3419,6.3513,5.8915,5.7218,5.6905,5.7473,5.7684,5.9318,6.1851,6.1337,6.0419,5.9024,5.6455,5.3225,4.9591,4.7205,0.0,0.0,0.0,5.4252,5.7556,5.8841,6.0089,6.1337,6.152,6.1337,6.0823,5.9575,5.8694,5.8217,5.6271,5.1867,4.5112,0.0,0.0,4.3167,4.7829,5.1132,5.3004,5.6271,5.7776,5.7299,5.6638,5.5794,5.4693,5.4179,5.3702,5.3225,5.2747,5.1426,4.9114,4.5663,4.1589,0.0,0.0,0.0,0.0,0.0,0.0,0.0,0.0,0.0,0.0,0.0,2.6224,2.318,0.0,0.0,0.0,2.8521,2.9916,3.1054,3.2302,0.0,0.0,0.0,0.0,0.0,0.0,0.0,4.592,4.9554,5.2491,5.3959,5.3151,5.2858,5.3995,5.3445,5.2637,5.1793,0.0,5.4803,5.5904,5.6088,5.6528,5.7776,5.7336,5.7079,5.784,5.8819,5.9619,5.9703,6.0511,6.0759,5.9951,5.9689,5.9486,5.9027,5.8928,5.8589,5.7495,5.7021,5.6573,5.5788,5.5453,5.5061,6.8117,6.7191,6.3691,6.2164,6.2091,6.2786,6.3481,6.4265,6.4192,6.4961,6.5986,6.2338,6.0224,5.9134,5.4766,0.0,5.506,5.6492,5.84,6.0603,6.1374,6.2108,6.2768,6.2034,6.1667,6.1667,6.0896,6.0493,6.0382,5.8217,5.6271,5.4656,5.2412,5.0762,4.9848,5.2087,5.3702,5.4509,5.6712,5.7886,5.7776,5.6226,5.4686,5.3066,5.295,5.2914,5.292,5.292,5.2595,5.183,4.8122,4.4562,4.1332,0.0,0.0,0.0,0.0,0.0,0.0,0.0,0.0,0.0,0.0,0.0,0.0,0.0,0.0,3.1715,3.333,0.0,3.6707,3.7624,0.0,0.0,0.0,4.2286,4.614,4.871,5.0692,5.2123,0.0,0.0,5.5978,5.6638,5.762,5.9187,5.8574,5.7703,5.6804,5.7354,5.7794,5.6995,5.7042,5.7371,5.8263,5.9286,6.0222,6.0887,6.0927,6.0352,6.0184,6.0211,6.0273,6.0051,6.0149,6.0113,6.0149,5.9972,5.9726,5.8184,5.7409,5.672,5.6003,5.5241,5.45,6.9157,6.9035,6.8133,6.7053,6.5946,6.5482,6.5411,6.5554,6.5046,6.4653,6.4331,6.3459,6.2328,6.097,5.9832,5.9501,5.9905,6.0272,6.108,6.2218,6.2438,6.2622,6.2805,6.2585,6.2511,6.2475,6.1704,6.13,6.1263,6.0126,5.8731,5.7189,5.6077,5.3809,5.0765,5.2894,5.4509,5.528,5.6492,5.6785,5.6161,5.4656,5.3116,5.1556,5.1059,5.0688,5.0605,5.0613,5.0751,5.0982,4.8379,4.5663,4.2983,3.6419,0.0,0.0,0.0,0.0,0.0,0.0,0.0,0.0,0.0,3.3623,2.7126,0.0,3.6193,0.0,3.7367,4.0047,4.1625,4.3057,0.0,0.0,4.7902,4.9297,5.2087,5.3995,5.5023,5.473,5.6859,5.8584,5.9208,5.9428,5.9932,6.0844,5.9273,5.7481,5.6151,5.7659,5.8645,5.8013,5.8723,5.9616,5.9745,6.0117,6.0438,6.0688,6.0473,6.0199,5.953,5.939,5.9245,5.8633,5.8528,5.8528,5.8528,5.8528,5.8425,5.8015,5.7774,5.7527,5.6713,5.5517,5.4532,6.8762,6.8864,6.8551,6.7544,6.612,6.6849,6.6737,6.6065,6.564,6.5105,6.4326,6.3993,6.3167,6.2112,6.244,6.2204,6.157,6.1931,6.2003,6.1715,6.2112,6.2271,6.2271,6.2618,6.2805,6.2805,6.2365,6.1958,6.1594,6.1153,6.0126,5.8569,5.7831,5.5988,5.3087,5.3652,5.4207,5.4641,5.5437,5.5437,5.4628,5.3778,5.2301,5.0163,4.9719,4.9137,4.8406,4.864,4.867,4.843,4.7037,4.5293,4.3178,3.8238,3.4673,0.0,0.0,0.0,0.0,0.0,0.0,0.0,0.0,0.0,0.0,0.0,4.0451,3.9496,4.2727,4.5553,4.7131,4.8746,5.0655,5.3041,5.3702,5.5097,5.785,5.8914,5.9612,5.9869,6.0418,6.1135,6.1911,6.1382,6.1059,6.1551,6.0445,5.9278,5.8536,5.9238,5.971,5.963,6.0047,6.0397,6.0397,6.0086,5.9854,5.9796,5.9529,5.9081,5.8685,5.8556,5.8458,5.8027,5.7881,5.7881,5.7881,5.7881,5.7881,5.7887,5.7939,5.767,5.6975,5.5919,5.5006,6.8098,6.7827,6.7218,6.617,6.5081,6.7352,6.72,6.5476,6.5265,6.4979,6.4548,6.3995,6.3392,6.2775,6.3525,6.3035,6.1707,6.2439,6.2021,6.0777,6.1328,6.1579,6.16,6.2202,6.2515,6.2515,6.2515,6.2129,6.1456,6.1438,6.0648,5.9111,5.8315,5.708,5.5318,5.4014,5.3384,5.3477,5.4221,5.4221,5.3422,5.3101,5.1547,4.882,4.8438,4.766,4.6283,4.6668,4.6434,4.541,4.5048,4.4321,4.3023,3.995,3.7845,0.0,3.4734,0.0,0.0,0.0,0.0,0.0,0.0,0.0,0.0,4.3681,4.5186,4.5883,4.882,5.1279,5.2784,5.4363,5.6161,5.818,5.8657,5.9905,6.2585,6.3062,6.3635,6.4961,6.3838,6.3164,6.3454,6.2495,6.1544,6.1229,6.1028,6.0813,6.1064,6.0463,6.0255,6.1113,6.0519,5.9896,5.9832,5.9412,5.8938,5.8846,5.8462,5.792,5.7988,5.7954,5.7881,5.7881,5.7881,5.7881,5.7881,5.7881,5.7881,5.7881,5.7887,5.7717,5.7103,5.6393,5.5649,6.9045,6.7895,6.776,6.7184,6.6406,6.6889,6.521,6.2146,6.0916,6.1008,6.2197,6.3285,6.3653,6.3624,6.3747,6.3293,6.2386,6.2612,6.2443,6.2174,6.1725,6.1503,6.1468,6.1045,6.082,6.082,6.082,6.076,6.064,6.0618,5.9787,5.8224,5.7509,5.5985,5.3897,0.0,0.0,0.0,5.4221,5.4221,5.3387,5.1605,4.9582,4.7178,4.6025,0.0,4.4007,4.4047,4.4179,4.4414,4.38,0.0,0.0,0.0,0.0,0.0,0.0,0.0,0.0,0.0,0.0,0.0,4.6838,4.6507,4.5259,4.9481,5.238,5.2637,5.4913,5.6785,5.7776,5.9281,6.0419,6.0896,6.2108,6.3209,6.3833,6.442,6.4725,6.4178,6.3899,6.3249,6.226,6.1697,6.1007,5.9937,5.9574,5.9539,5.9604,5.9509,5.9212,5.8703,5.8564,5.8388,5.8388,5.828,5.8212,5.8109,5.8035,5.7881,5.7881,5.7881,5.7881,5.7881,5.7881,5.7881,5.7881,5.7881,5.7881,5.7881,5.7881,5.7848,5.7712,5.7103,5.6393,6.9722,6.9011,6.8639,6.7624,0.0,6.6271,6.458,6.1873,6.2178,6.2387,6.2535,6.294,6.311,6.3095,6.2786,6.195,6.0809,6.0517,6.0342,6.0254,6.0307,6.0539,6.0924,6.0889,6.0786,6.0397,6.0397,6.0149,5.9832,6.0211,5.9573,5.7971,5.7621,5.6491,5.4559,5.3447,5.2925,5.2874,5.3281,5.3281,5.2839,5.1443,4.9555,4.7329,4.6238,0.0,0.0,0.0,0.0,0.0,0.0,0.0,0.0,0.0,0.0,4.5715,4.4263,4.4217,4.6335,4.7248,4.9086,5.2229,5.3995,5.3885,5.1463,5.4656,5.7116,5.7886,5.8738,5.9525,6.0326,6.1136,6.1568,6.164,6.265,6.3517,6.395,6.4252,6.4531,6.4358,6.3733,6.3023,6.2669,6.1893,6.1006,5.9906,5.97,5.9357,5.8632,5.8494,5.8317,5.792,5.7881,5.7881,5.7881,5.7881,5.7881,5.7881,5.7881,5.7881,5.7881,5.7881,5.7881,5.7881,5.7881,5.7881,5.7881,5.7881,5.7881,5.7881,5.7881,5.7881,5.7848,5.7306,5.6596,7.0297,7.0128,6.9553,6.8132,6.6271,6.6136,6.4986,6.326,0.0,0.0,0.0,6.2753,6.2629,6.2561,6.1963,6.093,5.9614,5.908,5.8804,5.8733,5.925,5.984,6.0497,6.0866,6.0704,6.0206,6.003,5.9574,5.8943,5.9574,5.9279,5.8031,5.7947,5.7227,5.5683,5.4363,5.3315,5.2536,5.2367,5.23,5.23,5.1454,5.0101,4.8173,4.7259,4.621,4.5083,4.5309,4.5001,4.4101,4.4468,4.5423,4.6786,4.6586,4.756,4.9997,4.9897,5.0626,5.2673,5.349,5.4819,5.7109,5.9151,5.9627,5.7767,5.8893,6.0152,6.1519,6.0883,6.0732,6.1487,6.1508,6.1538,6.1679,6.2351,6.3094,6.3695,6.3943,6.4291,6.4556,6.3624,6.2892,6.3166,6.2127,6.1116,6.0427,6.0012,5.9562,5.8269,5.7954,5.7954,5.7881,5.7881,5.7881,5.7881,5.7881,5.7881,5.7881,5.7881,5.7881,5.7881,5.7881,5.7881,5.7881,5.7881,5.7881,5.7881,5.7881,5.7881,5.7881,5.7881,5.7881,5.7814,5.7408,5.6765,7.077,7.0195,7.0094,6.9485,6.8571,6.7895,6.7049,6.6068,6.4504,6.3351,6.2584,6.3114,6.3351,6.3294,6.2605,6.2164,6.1907,6.1825,6.1791,6.1704,6.1249,6.1087,6.1121,5.9871,5.9264,5.9128,5.8587,5.8209,5.8065,5.8209,5.8065,5.7954,5.7891,5.7179,5.575,5.4871,5.4093,5.3348,5.2638,5.23,5.23,5.0947,4.9796,4.8849,4.7564,4.6718,4.6481,4.6021,4.5886,4.6278,4.6428,4.7045,4.8425,4.9686,5.1102,5.2607,5.3823,5.5044,5.6007,5.6241,5.7043,5.8685,5.9811,6.0532,6.0896,6.1111,6.1371,6.1534,6.0818,6.0661,6.1406,6.153,6.1693,6.2358,6.31,6.366,6.3771,6.4301,6.4456,6.3937,6.3687,6.294,6.205,6.1544,6.1095,6.0272,5.974,5.8875,5.8225,5.7881,5.7881,5.7881,5.7881,5.7881,5.7881,5.7881,5.7881,5.7881,5.7881,5.7881,5.7881,5.7881,5.7881,5.7881,5.7881,5.7881,5.7881,5.7881,5.7881,5.7881,5.7881,5.7881,5.7881,5.7712,5.7239,7.1109,7.0804,7.0804,7.0364,6.9586,6.8402,6.7692,6.7286,6.5914,6.4864,6.414,6.3734,6.3531,6.3362,6.1839,6.1129,6.1129,6.0317,6.0385,6.1095,6.0825,6.0892,6.1231,6.0588,6.0047,5.9573,5.8863,5.8524,5.8457,5.8118,5.7881,5.7848,5.7509,5.6968,5.6292,5.5175,5.4431,5.4093,5.3348,5.2942,5.2942,5.186,5.115,5.0777,4.9729,4.9187,4.9187,4.9255,4.9458,4.9763,5.0202,5.1089,5.2442,5.2832,5.3645,5.5018,5.5438,5.6166,5.7402,5.8255,5.9062,5.983,6.022,6.0558,6.0896,6.0992,6.0938,6.0974,6.0564,6.0473,6.0792,6.1155,6.1569,6.1843,6.2606,6.3055,6.309,6.3332,6.3427,6.3049,6.2973,6.2719,6.1985,6.1907,6.1603,6.0825,5.981,5.8896,5.8524,5.8118,5.7881,5.7881,5.7881,5.7881,5.7881,5.7881,5.7881,5.7881,5.7881,5.7881,5.7881,5.7881,5.7881,5.7881,5.7881,5.7881,5.7881,5.7881,5.7881,5.7881,5.7881,5.7881,5.7848,5.7306,5.6494,7.1447,7.1312,7.1312,7.0872,7.0094,6.891,6.8233,6.7861,6.7252,6.6609,6.5831,6.4585,6.3944,6.3565,6.1738,6.0791,6.0486,5.9438,5.9539,6.052,6.0622,6.096,6.1467,6.14,6.0994,6.0317,5.9471,5.8998,5.893,5.8254,5.7881,5.7814,5.7306,5.6968,5.6765,5.5649,5.4938,5.46,5.4059,5.3687,5.3484,5.2875,5.257,5.2536,5.1826,5.1555,5.1725,5.2266,5.2638,5.2841,5.3551,5.4532,5.5541,5.5349,5.5587,5.6641,5.6404,5.6675,5.791,5.9129,5.9832,5.9832,5.9832,5.9867,5.9832,5.9832,5.9896,6.0065,6.0006,6.0012,6.0286,6.091,6.1366,6.1535,6.2042,6.2391,6.2381,6.2415,6.2415,6.2415,6.2415,6.2381,6.2415,6.2415,6.2042,6.1264,6.0114,5.9268,5.8998,5.8355,5.7915,5.7881,5.7881,5.7881,5.7881,5.7881,5.7881,5.7881,5.7881,5.7881,5.7881,5.7881,5.7881,5.7881,5.7881,5.7881,5.7881,5.7881,5.7881,5.7881,5.7881,5.7881,5.7848,5.6765,5.5852,7.1921,7.1345,7.1312,7.0872,7.0229,6.9992,6.918,6.7963,6.7828,6.7421,6.6609,6.5817,6.5125,6.4478,6.3531,6.2753,6.2178,6.2009,6.1975,6.211,6.2178,6.2212,6.2212,6.1637,6.1264,6.1028,5.9776,5.9133,5.9032,5.8287,5.7881,5.7881,5.7814,5.7442,5.6867,5.6664,5.5953,5.4634,5.4532,5.4194,5.3551,5.3416,5.3416,5.3382,5.2638,5.257,5.3213,5.3348,5.3721,5.4363,5.5108,5.5547,5.5788,5.6224,5.6701,5.684,5.7345,5.7785,5.7891,5.8031,5.8209,5.8137,5.8209,5.8209,5.8209,5.8209,5.8458,5.9115,5.9142,5.9491,6.0062,6.0901,6.1603,6.2144,6.2313,6.2415,6.2415,6.2415,6.2415,6.2415,6.2415,6.2415,6.2415,6.2415,6.211,6.1501,6.052,5.9708,5.9167,5.8389,5.7881,5.7881,5.7881,5.7881,5.7881,5.7881,5.7881,5.7881,5.7881,5.7881,5.7881,5.7881,5.7881,5.7881,5.7881,5.7881,5.7881,5.7881,5.7881,5.7881,5.7881,5.7881,5.7712,5.6731,5.5818,7.2225,7.1887,7.1481,7.1142,7.0838,7.0398,6.9586,6.8571,6.8099,6.7489,6.6812,6.6492,6.5917,6.5189,6.4478,6.3734,6.3091,6.3057,6.2787,6.2415,6.2415,6.2415,6.2347,6.211,6.1941,6.1873,6.0858,6.0114,5.9505,5.849,5.7881,5.7881,5.7881,5.7746,5.7442,5.7036,5.6494,5.5919,5.548,5.5108,5.4769,5.3957,5.3518,5.3518,5.3585,5.3788,5.4194,5.4972,5.5581,5.5919,5.6596,5.7002,5.7002,5.7273,5.7442,5.7476,5.7712,5.7881,5.7881,5.7881,5.7881,5.7881,5.7881,5.7881,5.7915,5.8287,5.8671,5.903,5.9423,5.981,6.0182,6.1231,6.2076,6.2347,6.2415,6.2415,6.2415,6.2415,6.2415,6.2415,6.2415,6.2415,6.2415,6.2415,6.2279,6.1806,6.0926,6.0013,5.9641,5.866,5.7949,5.7881,5.7881,5.7881,5.7881,5.7881,5.7881,5.7881,5.7881,5.7881,5.7881,5.7881,5.7881,5.7881,5.7881,5.7881,5.7881,5.7881,5.7881,5.7881,5.7848,5.778,5.734,5.6427,5.5716,7.2766,7.2326,7.1616,7.1312,7.1244,7.0737,7.0094,6.9316,6.8608,6.7777,6.7117,6.6914,6.6508,6.5933,6.5222,6.4512,6.3869,6.3599,6.3226,6.2685,6.2482,6.2415,6.2415,6.2415,6.2415,6.2279,6.1603,6.0791,5.981,5.8795,5.8084,5.7949,5.7881,5.7881,5.7848,5.7306,5.7002,5.6765,5.6258,5.5919,5.5615,5.4668,5.4093,5.416,5.4397,5.4668,5.4938,5.6122,5.6799,5.6799,5.7509,5.7881,5.7881,5.7881,5.7881,5.7881,5.7881,5.7881,5.7881,5.7881,5.7881,5.7881,5.7881,5.7983,5.822,5.8693,5.9099,5.937,5.9979,6.0452,6.0554,6.1603,6.2347,6.2415,6.2415,6.2415,6.2415,6.2415,6.2415,6.2415,6.2415,6.2415,6.2415,6.2415,6.2381,6.2212,6.1264,6.0283,6.0013,5.9032,5.8152,5.7949,5.7881,5.7881,5.7881,5.7881,5.7881,5.7881,5.7881,5.7881,5.7881,5.7881,5.7881,5.7881,5.7881,5.7881,5.7881,5.7881,5.7881,5.7881,5.7848,5.7645,5.7036,5.6227,5.5482,7.368,7.2394,7.1616,7.1345,7.1312,7.1244,7.0838,7.0026,6.935,6.8571,6.776,6.7151,6.6812,6.6677,6.5933,6.5256,6.4512,6.3903,6.3565,6.3328,6.2753,6.2415,6.2415,6.2415,6.2415,6.2347,6.1738,6.0655,5.9268,5.8998,5.8592,5.7949,5.7915,5.7881,5.7881,5.7814,5.7476,5.6934,5.6799,5.6461,5.5852,5.5683,5.5581,5.5615,5.4972,5.5006,5.5683,5.6427,5.6833,5.6833,5.7509,5.7881,5.7915,5.7949,5.7983,5.7949,5.7949,5.7949,5.7983,5.8017,5.8017,5.7949,5.8084,5.822,5.8896,5.9133,5.9471,6.0013,6.0757,6.1231,6.1298,6.1907,6.2381,6.2415,6.2415,6.2415,6.2415,6.2415,6.2415,6.2415,6.2415,6.2415,6.2415,6.2415,6.2347,6.2212,6.167,6.0858,6.0047,5.9336,5.8626,5.8084,5.7881,5.7881,5.7881,5.7881,5.7881,5.7881,5.7881,5.7881,5.7881,5.7881,5.7881,5.7881,5.7881,5.7881,5.7881,5.7881,5.7881,5.7881,5.7881,5.7577,5.6697,5.6131,5.5417,7.3747,7.2394,7.2124,7.1751,7.1312,7.1312,7.0906,7.0195,6.9925,6.9079,6.7996,6.7624,6.7252,6.6812,6.6542,6.6,6.529,6.5019,6.441,6.3599,6.3226,6.2854,6.2415,6.2415,6.2415,6.2347,6.211,6.1501,6.0452,5.9539,5.8896,5.8558,5.8118,5.7881,5.7881,5.7881,5.7746,5.7509,5.7509,5.7374,5.707,5.6664,5.6833,5.7679,5.663,5.6359,5.707,5.7374,5.7712,5.8186,5.8017,5.8118,5.8592,5.9066,5.9302,5.9302,5.9302,5.9302,5.9302,5.9302,5.9302,5.9302,5.9302,5.937,5.9742,6.0182,6.0588,6.0926,6.1535,6.1975,6.2042,6.2245,6.2415,6.2415,6.2415,6.2415,6.2415,6.2415,6.2415,6.2415,6.2415,6.2415,6.2415,6.2415,6.2212,6.1704,6.1028,6.0317,5.9539,5.8761,5.8254,5.7983,5.7881,5.7881,5.7881,5.7881,5.7881,5.7881,5.7881,5.7881,5.7881,5.7881,5.7881,5.7881,5.7881,5.7881,5.7881,5.7881,5.7881,5.7881,5.7881,5.7408,5.6325,5.5893,5.5111,7.3883,7.28,7.2496,7.1988,7.1345,7.1312,7.1041,7.0534,7.0263,6.9485,6.8402,6.803,6.7489,6.6914,6.6812,6.6576,6.6034,6.5797,6.5155,6.4241,6.3734,6.3226,6.2787,6.2516,6.2415,6.2415,6.2415,6.2009,6.1264,6.025,5.9641,5.9336,5.8626,5.8254,5.822,5.8017,5.7881,5.7881,5.7881,5.7983,5.8118,5.778,5.8084,5.9032,5.8389,5.8084,5.8592,5.8592,5.8795,5.9201,5.8863,5.8829,5.937,5.981,6.008,6.008,6.008,6.008,6.008,6.008,6.008,6.008,6.008,6.0182,6.0452,6.0994,6.1332,6.167,6.2042,6.2415,6.2415,6.2381,6.2415,6.2415,6.2415,6.2415,6.2415,6.2415,6.2415,6.2415,6.2415,6.2415,6.2415,6.2415,6.2042,6.14,6.0791,6.0148,5.9201,5.8626,5.8118,5.7949,5.7881,5.7881,5.7881,5.7881,5.7881,5.7881,5.7881,5.7881,5.7881,5.7881,5.7881,5.7881,5.7881,5.7881,5.7881,5.7881,5.7881,5.7881,5.778,5.7442,5.6602,5.5791,5.5009,7.4187,7.3375,7.2699,7.2022,7.1379,7.1312,7.1312,7.1109,7.0534,6.9857,6.9079,6.8335,6.7624,6.6981,6.6846,6.6779,6.6609,6.6068,6.5696,6.5392,6.4275,6.3599,6.3396,6.2787,6.2448,6.2415,6.2415,6.2042,6.14,6.1163,6.0757,6.008,5.9404,5.9032,5.8998,5.8423,5.8017,5.8084,5.8118,5.8389,5.893,5.893,5.9302,6.0013,5.9979,5.9979,6.008,6.0047,5.9979,6.008,6.0013,6.0047,6.008,6.025,6.0216,6.0317,6.0216,6.0182,6.0216,6.0283,6.0351,6.0351,6.0216,6.0622,6.1197,6.1366,6.1637,6.2144,6.2347,6.2415,6.2415,6.2415,6.2415,6.2415,6.2415,6.2415,6.2415,6.2415,6.2415,6.2415,6.2415,6.2415,6.2415,6.2415,6.211,6.1501,6.1095,6.052,5.9268,5.8795,5.8558,5.8084,5.7881,5.7881,5.7881,5.7881,5.7881,5.7881,5.7881,5.7881,5.7881,5.7881,5.7881,5.7881,5.7881,5.7881,5.7881,5.7881,5.7881,5.7848,5.7712,5.7374,5.6467,5.5518,5.4805,7.4627,7.351,7.324,7.2428,7.1379,7.1312,7.1312,7.1278,7.1041,7.0567,6.9789,6.9079,6.8301,6.7557,6.7049,6.6812,6.6812,6.6542,6.6203,6.5662,6.5222,6.4444,6.3632,6.3294,6.2888,6.2482,6.2415,6.2279,6.2009,6.1535,6.1129,6.0825,6.0148,5.9776,5.9742,5.9539,5.9404,5.9404,5.9404,5.9539,5.9742,5.9742,6.0148,6.0825,6.0926,6.1129,6.1569,6.0655,6.0385,6.0892,6.0385,6.0351,6.0858,6.14,6.167,6.167,6.167,6.167,6.167,6.1637,6.1637,6.167,6.1637,6.1772,6.2009,6.2042,6.211,6.2381,6.2415,6.2415,6.2415,6.2415,6.2415,6.2415,6.2415,6.2415,6.2415,6.2415,6.2415,6.2415,6.2415,6.2415,6.2415,6.2415,6.2076,6.1332,6.0858,6.008,5.9235,5.8558,5.822,5.7915,5.7881,5.7881,5.7881,5.7881,5.7881,5.7881,5.7881,5.7881,5.7881,5.7881,5.7881,5.7881,5.7881,5.7881,5.7881,5.7881,5.7881,5.7746,5.7538,5.6829,5.5953,5.5245,5.4737,7.483,7.351,7.3477,7.2665,7.1379,7.1312,7.1312,7.1312,7.1312,7.0906,7.0128,6.9417,6.8673,6.7861,6.7151,6.6846,6.6812,6.6812,6.6576,6.6102,6.5764,6.5155,6.4275,6.37,6.3125,6.2516,6.2415,6.2415,6.2381,6.1941,6.1704,6.1569,6.0926,6.0554,6.0486,6.025,6.008,6.008,6.008,6.025,6.0486,6.0554,6.0892,6.1603,6.1704,6.1941,6.2279,6.1434,6.1163,6.1535,6.1197,6.1231,6.1704,6.211,6.2415,6.2415,6.2381,6.2381,6.2415,6.2313,6.2415,6.2415,6.2415,6.2381,6.2381,6.2415,6.2415,6.2415,6.2415,6.2415,6.2415,6.2415,6.2415,6.2415,6.2415,6.2415,6.2415,6.2415,6.2415,6.2415,6.2415,6.2415,6.2415,6.2381,6.1941,6.1061,6.0419,5.9641,5.8896,5.8186,5.7983,5.7881,5.7881,5.7881,5.7881,5.7881,5.7881,5.7881,5.7881,5.7881,5.7881,5.7881,5.7881,5.7881,5.7881,5.7881,5.7881,5.7881,5.7848,5.7606,5.7437,5.6829,5.6227,5.5621,5.4975,7.4864,7.3612,7.351,7.2699,7.1481,7.1345,7.1312,7.1312,7.1312,7.0939,7.0263,6.9586,6.8774,6.7963,6.732,6.6948,6.6812,6.6812,6.6812,6.6542,6.6136,6.5628,6.5155,6.4072,6.3125,6.2482,6.2415,6.2415,6.2381,6.2313,6.2415,6.2245,6.167,6.1366,6.1264,6.0622,6.0419,6.0452,6.0385,6.0723,6.1332,6.1366,6.1637,6.2279,6.2313,6.2347,6.2347,6.2212,6.2245,6.2347,6.2212,6.2178,6.2347,6.2415,6.2415,6.2415,6.2415,6.2415,6.2415,6.2415,6.2415,6.2415,6.2415,6.2415,6.2415,6.2415,6.2415,6.2415,6.2415,6.2415,6.2415,6.2415,6.2415,6.2415,6.2415,6.2415,6.2415,6.2415,6.2415,6.2415,6.2415,6.2415,6.2415,6.2415,6.1738,6.0892,6.0351,5.9539,5.8795,5.8321,5.7983,5.7881,5.7881,5.7881,5.7881,5.7881,5.7881,5.7881,5.7881,5.7881,5.7881,5.7881,5.7881,5.7881,5.7881,5.7881,5.7881,5.7881,5.7881,5.7814,5.7509,5.7036,5.6498,5.5858,5.5179,7.5168,7.4289,7.3713,7.2969,7.209,7.1582,7.1312,7.1312,7.1312,7.1176,7.0838,7.0229,6.9451,6.8741,6.7929,6.7354,6.6914,6.6812,6.6812,6.6779,6.6643,6.5831,6.4918,6.3971,6.3125,6.2482,6.2415,6.2415,6.2415,6.2415,6.2415,6.2381,6.2178,6.2076,6.2042,6.1806,6.1806,6.1772,6.1772,6.1806,6.2009,6.2076,6.2178,6.2347,6.2415,6.2415,6.2415,6.2415,6.2415,6.2415,6.2415,6.2415,6.2415,6.2415,6.2415,6.2415,6.2415,6.2415,6.2415,6.2415,6.2415,6.2415,6.2415,6.2415,6.2415,6.2415,6.2415,6.2415,6.2415,6.2415,6.2415,6.2415,6.2415,6.2415,6.2415,6.2415,6.2415,6.2415,6.2415,6.2415,6.2415,6.2415,6.2415,6.2381,6.2178,6.1603,6.0757,5.9945,5.9133,5.8321,5.7881,5.7881,5.7881,5.7881,5.7881,5.7881,5.7881,5.7881,5.7881,5.7881,5.7881,5.7881,5.7881,5.7881,5.7881,5.7881,5.7881,5.7881,5.7881,5.7881,5.7471,5.7065,5.666,5.6159,5.5448,7.527,7.4559,7.3781,7.3071,7.236,7.1616,7.1312,7.1312,7.1312,7.1312,7.1142,7.05,6.9789,6.9045,6.8267,6.7523,6.688,6.6812,6.6812,6.6812,6.6812,6.5967,6.4816,6.4106,6.3429,6.2482,6.2415,6.2415,6.2415,6.2415,6.2415,6.2381,6.2415,6.2415,6.2347,6.2415,6.2415,6.2381,6.2415,6.2415,6.2415,6.2415,6.2381,6.2415,6.2415,6.2415,6.2415,6.2415,6.2415,6.2415,6.2415,6.2415,6.2415,6.2415,6.2415,6.2415,6.2415,6.2415,6.2415,6.2415,6.2415,6.2415,6.2415,6.2415,6.2415,6.2415,6.2415,6.2415,6.2415,6.2415,6.2415,6.2415,6.2415,6.2415,6.2415,6.2415,6.2415,6.2415,6.2415,6.2415,6.2415,6.2415,6.2415,6.2415,6.2212,6.1772,6.0757,6.0114,5.9471,5.8558,5.7881,5.7881,5.7881,5.7881,5.7881,5.7881,5.7881,5.7881,5.7881,5.7881,5.7881,5.7881,5.7881,5.7881,5.7881,5.7881,5.7881,5.7881,5.7881,5.778,5.7437,5.7094,5.6829,5.6626,5.5916,7.5303,7.4661,7.3849,7.3105,7.2462,7.1684,7.1312,7.1312,7.1312,7.1312,7.1142,7.05,6.9789,6.9045,6.8267,6.7523,6.6846,6.6812,6.6812,6.6812,6.6711,6.6068,6.4918,6.458,6.3802,6.2753,6.2482,6.2415,6.2415,6.2415,6.2415,6.2415,6.2415,6.2415,6.2415,6.2415,6.2415,6.2415,6.2415,6.2415,6.2415,6.2415,6.2415,6.2415,6.2415,6.2415,6.2415,6.2415,6.2415,6.2415,6.2415,6.2415,6.2415,6.2415,6.2415,6.2415,6.2415,6.2415,6.2415,6.2415,6.2415,6.2415,6.2415,6.2415,6.2415,6.2415,6.2415,6.2415,6.2415,6.2415,6.2415,6.2415,6.2415,6.2415,6.2415,6.2415,6.2415,6.2415,6.2415,6.2415,6.2415,6.2415,6.2415,6.2347,6.2178,6.1975,6.096,6.0114,5.9471,5.8592,5.8084,5.7881,5.7881,5.7881,5.7881,5.7881,5.7881,5.7881,5.7881,5.7881,5.7881,5.7881,5.7881,5.7881,5.7881,5.7881,5.7881,5.7881,5.7881,5.7848,5.7606,5.7408,5.7137,5.7137,5.6664,7.5608,7.5371,7.4018,7.3409,7.3037,7.1887,7.1312,7.1312,7.1312,7.1312,7.1142,7.0534,6.9789,6.9079,6.8267,6.7523,6.688,6.6812,6.6812,6.6812,6.6812,6.6339,6.5425,6.4884,6.4106,6.326,6.2618,6.2415,6.2415,6.2415,6.2415,6.2415,6.2415,6.2415,6.2415,6.2415,6.2415,6.2415,6.2415,6.2415,6.2415,6.2415,6.2415,6.2415,6.2415,6.2415,6.2415,6.2415,6.2415,6.2415,6.2415,6.2415,6.2415,6.2415,6.2415,6.2415,6.2415,6.2415,6.2415,6.2415,6.2415,6.2415,6.2415,6.2415,6.2415,6.2415,6.2415,6.2415,6.2415,6.2415,6.2415,6.2415,6.2415,6.2415,6.2415,6.2415,6.2415,6.2415,6.2415,6.2415,6.2415,6.2415,6.2415,6.2415,6.2212,6.1975,6.1197,6.0182,5.9404,5.866,5.8186,5.7881,5.7881,5.7881,5.7881,5.7881,5.7881,5.7881,5.7881,5.7881,5.7881,5.7881,5.7881,5.7881,5.7881,5.7881,5.7881,5.7881,5.7881,5.7881,5.7881,5.7533,5.7364,5.7437,5.7229,7.5676,7.554,7.4086,7.3477,7.324,7.1954,7.1312,7.1312,7.1312,7.1312,7.1142,7.0534,6.9789,6.9045,6.8267,6.7489,6.6948,6.6812,6.6812,6.6812,6.6779,6.6373,6.5662,6.4952,6.4208,6.3497,6.2753,6.2415,6.2415,6.2415,6.2415,6.2415,6.2415,6.2415,6.2415,6.2415,6.2415,6.2415,6.2415,6.2415,6.2415,6.2415,6.2415,6.2415,6.2415,6.2415,6.2415,6.2415,6.2415,6.2415,6.2415,6.2415,6.2415,6.2415,6.2415,6.2415,6.2415,6.2415,6.2415,6.2415,6.2415,6.2415,6.2415,6.2415,6.2415,6.2415,6.2415,6.2415,6.2415,6.2415,6.2415,6.2415,6.2415,6.2415,6.2415,6.2415,6.2415,6.2415,6.2415,6.2415,6.2415,6.2415,6.2415,6.2415,6.2381,6.2178,6.1028,6.008,5.9641,5.8896,5.8186,5.7881,5.7881,5.7881,5.7881,5.7881,5.7881,5.7881,5.7881,5.7881,5.7881,5.7881,5.7881,5.7881,5.7881,5.7881,5.7881,5.7881,5.7881,5.7881,5.7808,5.7628,5.7413,5.7386,5.7063,7.5642,7.5405,7.4052,7.3443,7.3105,7.1887,7.1312,7.1312,7.1312,7.1312,7.1109,7.0432,6.9586,6.8977,6.8064,6.7354,6.6948,6.6812,6.6812,6.6812,6.6812,6.6373,6.5662,6.4952,6.4208,6.3497,6.2753,6.2415,6.2415,6.2415,6.2415,6.2415,6.2415,6.2415,6.2415,6.2415,6.2415,6.2415,6.2415,6.2415,6.2415,6.2415,6.2415,6.2381,6.203,6.2223,6.2302,6.2415,6.2415,6.2415,6.2415,6.2415,6.2415,6.2415,6.2415,6.2415,6.2415,6.2415,6.2415,6.2415,6.2415,6.2415,6.2415,6.2415,6.2415,6.2415,6.2415,6.2415,6.2415,6.2415,6.2415,6.2415,6.2415,6.2415,6.2415,6.2415,6.2415,6.2415,6.2415,6.2415,6.2415,6.2415,6.2415,6.2415,6.2415,6.2178,6.1028,6.0114,5.9708,5.9167,5.8423,5.7915,5.7881,5.7881,5.7881,5.7881,5.7881,5.7881,5.7881,5.7881,5.7881,5.7881,5.7881,5.7881,5.7881,5.7881,5.7881,5.7881,5.7881,5.7881,5.7628,5.7222,5.7114,5.7222,5.6896,7.5337,7.4728,7.3849,7.3138,7.2496,7.165,7.1312,7.1312,7.1312,7.1312,7.1142,6.9925,6.9248,6.8774,6.7557,6.6948,6.6728,6.644,6.644,6.6525,6.6457,6.5935,6.5161,6.4536,6.3944,6.3497,6.2674,6.2223,6.2415,6.2415,6.2302,6.2381,6.2302,6.2302,6.2144,6.2381,6.211,6.211,6.203,6.203,6.2223,6.203,6.211,6.211,6.148,6.148,6.2144,6.2381,6.2415,6.2415,6.2415,6.2381,6.2302,6.2302,6.2415,6.2415,6.2415,6.2415,6.2415,6.2415,6.2415,6.2415,6.2415,6.2415,6.2415,6.2415,6.2415,6.2415,6.2415,6.2415,6.2415,6.2415,6.2415,6.2415,6.2415,6.2415,6.2415,6.2415,6.2415,6.2415,6.2415,6.2415,6.2415,6.2415,6.2415,6.2212,6.1467,6.0554,5.9945,5.9336,5.8626,5.8186,5.7881,5.7881,5.7881,5.7881,5.7881,5.7881,5.7881,5.7881,5.7881,5.7881,5.7881,5.7881,5.7881,5.7881,5.7881,5.7881,5.7881,5.7881,5.7372,5.6811,5.6963,5.7114,5.7114,7.527,7.4525,7.3815,7.3071,7.2326,7.1616,7.1312,7.1312,7.1312,7.1312,7.0872,6.9823,6.9079,6.8673,6.7489,6.6558,6.5855,6.5081,6.4901,6.4778,6.4506,6.3946,6.3429,6.3079,6.2179,6.1499,6.1202,6.1837,6.2381,6.2415,6.203,6.1595,6.148,6.1235,6.0703,6.0417,6.0953,6.1152,6.0953,6.0953,6.1317,6.0953,6.087,6.1119,6.0953,6.0953,6.1235,6.148,6.148,6.1432,6.148,6.148,6.1676,6.203,6.2415,6.2415,6.2415,6.2415,6.2415,6.2415,6.2415,6.2415,6.2415,6.2415,6.2415,6.2415,6.2302,6.2381,6.2415,6.2415,6.2415,6.2415,6.2415,6.2415,6.2415,6.2415,6.2381,6.2381,6.2302,6.2223,6.2302,6.2302,6.2415,6.2415,6.2415,6.211,6.1704,6.0994,6.025,5.9573,5.8896,5.8254,5.7881,5.7881,5.7881,5.7881,5.7881,5.7881,5.7881,5.7881,5.7881,5.7881,5.7881,5.7881,5.7881,5.7881,5.7881,5.7881,5.7881,5.7881,5.7554,5.7222,5.7039,5.7039,5.7039,7.5202,7.4322,7.3747,7.2877,7.1724,7.1152,7.0666,7.0482,7.0389,7.0263,7.0281,6.8918,6.8182,6.7814,6.669,6.5382,6.4414,6.3482,6.3195,6.2906,6.252,6.1752,6.1037,6.085,6.0619,5.9716,5.9849,6.0754,6.1235,6.1399,6.1036,6.0501,6.0247,5.987,5.917,5.917,5.9522,5.961,5.9434,5.9434,5.9697,5.9434,5.917,6.0128,6.0247,6.0247,6.0247,6.0247,6.0247,6.0247,6.0247,6.0332,6.0703,6.148,6.211,6.2381,6.2415,6.2415,6.2381,6.203,6.203,6.2302,6.211,6.211,6.2302,6.2144,6.1951,6.203,6.1951,6.1951,6.187,6.2223,6.2381,6.2415,6.2381,6.2302,6.203,6.1756,6.148,6.1595,6.1951,6.1951,6.187,6.1756,6.1595,6.1561,6.116,6.0897,6.0155,5.9844,5.9167,5.8321,5.7881,5.7881,5.7881,5.7881,5.7881,5.7881,5.7881,5.7881,5.7881,5.7881,5.7881,5.7881,5.7881,5.7881,5.7881,5.7881,5.7881,5.7881,5.7701,5.7554,5.7372,5.7114,5.6963,7.4864,7.3612,7.351,7.2042,6.9769,6.9442,6.8797,6.7907,6.7907,6.7705,6.7813,6.6385,6.5805,6.5352,6.419,6.3419,6.3196,6.2779,6.2202,6.1757,6.1536,6.0804,6.0032,5.9992,5.9388,5.8514,5.8812,5.9081,5.9346,5.9346,5.9258,5.9081,5.8992,5.8812,5.836,5.8268,5.8902,5.8902,5.8812,5.8812,5.8812,5.8632,5.8722,5.8902,5.8992,5.8992,5.8992,5.8992,5.8992,5.8992,5.8992,5.9522,6.0417,6.0703,6.1399,6.203,6.2415,6.2415,6.2223,6.1399,6.1317,6.1676,6.1399,6.148,6.1676,6.1432,6.1036,6.0787,6.087,6.087,6.1036,6.1676,6.2144,6.2302,6.211,6.1756,6.1399,6.1756,6.1399,6.1119,6.1561,6.1235,6.0953,6.087,6.0787,6.0754,6.0721,6.0491,6.0078,5.9633,5.9167,5.8254,5.7881,5.7881,5.7881,5.7881,5.7881,5.7881,5.7881,5.7881,5.7881,5.7881,5.7881,5.7881,5.7881,5.7881,5.7881,5.7881,5.7881,5.7808,5.7628,5.7628,5.7735,5.7406,5.7039,7.2112,7.1027,7.0733,6.9648,6.8139,6.8107,6.7806,6.7266,6.7164,6.694,6.646,6.5564,6.47,6.3736,6.2481,6.1927,6.1696,6.1255,6.0475,5.9897,5.9494,5.8845,5.804,5.7995,5.784,5.7306,5.7276,5.7276,5.7371,5.8085,5.8542,5.7807,5.7714,5.7371,5.7086,5.6831,5.7181,5.7527,5.7714,5.7465,5.6896,5.6831,5.7086,5.7714,5.7807,5.7807,5.7807,5.7807,5.7807,5.7807,5.7807,5.7993,5.86,5.9081,5.961,5.9226,5.9957,6.0953,6.1951,6.0501,6.0501,6.0787,6.0417,6.0128,6.0953,6.087,6.0501,6.0619,6.0619,6.0332,5.9784,6.0043,6.067,6.1119,6.1756,6.1756,6.148,6.1676,6.1756,6.1399,6.1036,6.087,6.087,6.1317,6.1283,6.1217,6.0965,6.0561,5.9852,5.9025,5.8592,5.8084,5.7881,5.7881,5.7881,5.7881,5.7881,5.7881,5.7881,5.7881,5.7881,5.7881,5.7881,5.7881,5.7881,5.7881,5.7881,5.7881,5.7881,5.7701,5.7554,5.7701,5.7808,5.7735,5.7297,6.8531,6.8026,6.8234,6.7732,6.6679,6.6647,6.647,6.6154,6.5827,6.5513,6.5082,6.416,6.306,6.2048,6.1051,6.0536,6.0432,5.9469,5.8637,5.7902,5.7304,5.6852,5.6506,5.6396,5.6115,5.5179,5.6183,5.6183,5.6183,5.6638,5.7181,5.6541,5.6541,5.6183,5.5551,5.5451,5.5918,5.6445,5.6541,5.6183,5.5651,5.575,5.6085,5.6541,5.68,5.6896,5.6638,5.6541,5.6541,5.6541,5.6541,5.6704,5.7339,5.79,5.836,5.8053,5.851,5.9346,6.0043,5.9697,5.9258,5.9434,5.9522,5.9346,5.987,5.9957,5.9697,5.9434,5.9402,5.917,5.9081,5.917,6.0247,6.0953,6.1399,6.1595,6.1756,6.1676,6.1235,6.0501,6.0417,6.1036,6.1235,6.1837,6.1963,6.1736,6.1357,6.0627,5.9734,5.866,5.8287,5.7915,5.7881,5.7881,5.7881,5.7881,5.7881,5.7881,5.7881,5.7881,5.7881,5.7881,5.7881,5.7881,5.7881,5.7881,5.7881,5.7881,5.7881,5.7808,5.7701,5.7808,5.7881,5.7775,5.7628,6.4417,6.4588,6.7193,6.6997,6.5219,6.5219,6.4512,6.3668,6.2928,6.2634,6.2475,6.1228,6.0409,5.965,5.9683,5.9392,5.9285,5.9099,5.8291,5.7543,5.7004,5.6346,5.5861,5.5471,5.5381,5.5179,5.5551,5.5451,5.528,5.5551,5.5651,5.5381,5.5651,5.535,5.5179,5.5179,5.528,5.5651,5.5651,5.5551,5.5551,5.5918,5.6183,5.572,5.628,5.6541,5.5481,5.5451,5.5551,5.5551,5.5551,5.5918,5.6638,5.6896,5.7276,5.7621,5.7276,5.79,5.8328,5.8085,5.7869,5.8451,5.8632,5.8451,5.878,5.7869,5.7527,5.79,5.851,5.851,5.8992,5.9697,6.0332,6.1036,6.1317,6.148,6.1561,6.1317,6.0787,5.9697,5.9957,6.0953,6.1399,6.203,6.184,6.1581,6.0528,5.9799,5.9261,5.8389,5.8118,5.7881,5.7881,5.7881,5.7881,5.7881,5.7881,5.7881,5.7881,5.7881,5.7881,5.7881,5.7881,5.7881,5.7881,5.7881,5.7881,5.7881,5.7881,5.7881,5.7881,5.7881,5.7701,5.7554,5.7554,6.3767,6.3524,6.4687,6.4646,6.3902,6.3902,6.335,6.2595,6.2211,6.1613,6.0872,5.9887,5.9398,5.9159,5.9099,5.9099,5.9039,5.865,5.7902,5.7244,5.6645,5.5987,5.5418,5.5209,5.5179,5.5209,5.5209,5.5209,5.5179,5.5209,5.5209,5.5179,5.5209,5.5179,5.5179,5.5209,5.5209,5.5209,5.5209,5.5209,5.528,5.5451,5.562,5.5381,5.5451,5.572,5.528,5.5179,5.5179,5.5209,5.5209,5.5551,5.5918,5.6017,5.628,5.6735,5.6183,5.6378,5.6541,5.628,5.6183,5.6378,5.6638,5.6991,5.7714,5.7807,5.8085,5.836,5.8542,5.8812,5.8812,5.9258,5.9784,6.087,6.1399,6.148,6.1561,6.148,6.1399,6.0787,6.1119,6.1837,6.203,6.211,6.1694,6.1245,6.0058,5.8974,5.8538,5.822,5.8017,5.7881,5.7881,5.7881,5.7881,5.7881,5.7881,5.7881,5.7881,5.7881,5.7881,5.7881,5.7881,5.7881,5.7881,5.7881,5.7881,5.7881,5.7881,5.7881,5.7881,5.7881,5.7701,5.7446,5.7264,6.3468,6.3079,6.3079,6.3079,6.3049,6.2869,6.254,6.2091,6.1613,6.0894,5.9757,5.9279,5.9099,5.9099,5.9099,5.8919,5.871,5.8291,5.7603,5.6944,5.6346,5.5777,5.5388,5.5209,5.5209,5.5209,5.5209,5.5209,5.5209,5.5209,5.5209,5.5209,5.5209,5.5209,5.5209,5.5209,5.5209,5.5209,5.5209,5.5209,5.5209,5.5179,5.528,5.5209,5.528,5.528,5.5179,5.5209,5.5209,5.5209,5.5209,5.5209,5.5179,5.5179,5.5209,5.5209,5.5209,5.5209,5.5209,5.5179,5.5179,5.5551,5.5481,5.5986,5.6896,5.7807,5.79,5.8085,5.8902,5.9346,5.8722,5.8992,5.9957,6.1152,6.1595,6.1756,6.203,6.203,6.2144,6.203,6.2302,6.2189,6.193,6.1795,6.1076,6.0593,5.9852,5.8833,5.8241,5.8017,5.7949,5.7881,5.7881,5.7881,5.7881,5.7881,5.7881,5.7881,5.7881,5.7881,5.7881,5.7881,5.7881,5.7881,5.7881,5.7881,5.7881,5.7881,5.7881,5.7881,5.7881,5.7881,5.764,5.7352,5.6838,6.3109,6.3079,6.3049,6.3049,6.2929,6.2391,6.2091,6.1732,6.0715,5.9847,5.9279,5.9099,5.9039,5.9039,5.8949,5.865,5.8171,5.7962,5.7363,5.6466,5.6077,5.5718,5.5418,5.5209,5.5209,5.5209,5.5209,5.5209,5.5209,5.5209,5.5209,5.5209,5.5209,5.5209,5.5209,5.5209,5.5209,5.5209,5.5209,5.5209,5.5209,5.5209,5.5209,5.5209,5.5209,5.5209,5.5209,5.5209,5.5209,5.5209,5.5209,5.5209,5.5209,5.5209,5.5209,5.5209,5.5209,5.5209,5.5209,5.5209,5.5209,5.5209,5.5179,5.562,5.6638,5.7086,5.7434,5.79,5.7993,5.8419,5.8542,5.917,6.0586,6.1317,6.1837,6.203,6.2302,6.2415,6.2415,6.2415,6.2415,6.2313,6.1806,6.1264,6.0486,5.9911,5.9404,5.8761,5.8051,5.7881,5.7881,5.7881,5.7881,5.7881,5.7881,5.7881,5.7881,5.7881,5.7881,5.7881,5.7881,5.7881,5.7881,5.7881,5.7881,5.7881,5.7881,5.7881,5.7881,5.7881,5.7881,5.7848,5.7572,5.7431,5.7063,6.3079,6.3049,6.26,6.2421,6.2391,6.2181,6.1613,6.0685,5.9847,5.9308,5.9129,5.9099,5.883,5.859,5.8411,5.8112,5.7483,5.6915,5.6346,5.6196,5.5777,5.5478,5.5239,5.5209,5.5209,5.5209,5.5209,5.5209,5.5209,5.5209,5.5209,5.5209,5.5209,5.5209,5.5209,5.5209,5.5209,5.5209,5.5209,5.5209,5.5209,5.5209,5.5209,5.5209,5.5209,5.5209,5.5209,5.5209,5.5209,5.5209,5.5209,5.5209,5.5209,5.5209,5.5209,5.5209,5.5209,5.5209,5.5209,5.5209,5.5209,5.5209,5.528,5.5451,5.5819,5.6638,5.7276,5.8085,5.8632,5.9522,6.0953,6.1119,6.1951,6.203,6.2302,6.2302,6.2415,6.2415,6.2415,6.2415,6.2415,6.1975,6.1501,6.0655,5.9844,5.9336,5.8896,5.8524,5.7949,5.7881,5.7881,5.7881,5.7881,5.7881,5.7881,5.7881,5.7881,5.7881,5.7881,5.7881,5.7881,5.7881,5.7881,5.7881,5.7881,5.7881,5.7881,5.7881,5.7881,5.7881,5.7881,5.7881,5.778,5.7746,5.7634,6.2929,6.269,6.2271,6.1822,6.1463,6.1403,6.0745,5.9787,5.9279,5.9099,5.9099,5.9099,5.877,5.8291,5.8082,5.7543,5.6825,5.6406,5.5897,5.5837,5.5448,5.5239,5.5209,5.5209,5.5209,5.5209,5.5209,5.5209,5.5209,5.5209,5.5209,5.5209,5.5209,5.5209,5.5209,5.5209,5.5209,5.5209,5.5209,5.5209,5.5209,5.5209,5.5209,5.5209,5.5209,5.5209,5.5209,5.5209,5.5209,5.5209,5.5209,5.5209,5.5209,5.5209,5.5209,5.5209,5.5209,5.5209,5.5209,5.5209,5.5209,5.5209,5.5209,5.5651,5.628,5.7371,5.836,5.917,5.9784,6.0586,6.148,6.1756,6.1756,6.187,6.2415,6.2415,6.2415,6.2415,6.2347,6.2381,6.1907,6.1501,6.096,6.008,5.9201,5.8795,5.8423,5.8118,5.7881,5.7881,5.7881,5.7881,5.7881,5.7881,5.7881,5.7881,5.7881,5.7881,5.7881,5.7881,5.7881,5.7881,5.7881,5.7881,5.7881,5.7881,5.7881,5.7881,5.7881,5.7881,5.7881,5.7881,5.7881,5.7881,5.7881,6.266,6.2121,6.2061,6.1253,6.0236,6.0176,5.9727,5.9159,5.9129,5.9099,5.9099,5.9039,5.859,5.8112,5.8022,5.7274,5.6316,5.6077,5.5748,5.5418,5.5239,5.5209,5.5209,5.5209,5.5209,5.5209,5.5209,5.5209,5.5209,5.5209,5.5209,5.5209,5.5209,5.5209,5.5209,5.5209,5.5209,5.5209,5.5209,5.5209,5.5209,5.5209,5.5209,5.5209,5.5209,5.5209,5.5209,5.5209,5.5209,5.5209,5.5209,5.5209,5.5209,5.5209,5.5209,5.5209,5.5209,5.5209,5.5209,5.5209,5.5209,5.5209,5.5209,5.6572,5.7371,5.7807,5.8542,5.9081,5.961,6.0075,6.067,6.0703,6.0703,6.1399,6.2302,6.2415,6.2415,6.2381,6.2313,6.2042,6.1366,6.0825,6.0148,5.9336,5.8693,5.8524,5.822,5.8051,5.7881,5.7881,5.7881,5.7881,5.7881,5.7881,5.7881,5.7881,5.7881,5.7881,5.7881,5.7881,5.7881,5.7881,5.7881,5.7881,5.7881,5.7881,5.7881,5.7881,5.7881,5.7881,5.7881,5.7881,5.7881,5.7881,5.7735,6.1972,6.1373,6.0864,6.0446,6.0057,5.9578,5.9249,5.9129,5.9099,5.9099,5.9099,5.859,5.8082,5.7393,5.6915,5.6256,5.5777,5.5478,5.5388,5.5239,5.5209,5.5209,5.5209,5.5209,5.5209,5.5209,5.5209,5.5209,5.5209,5.5209,5.5209,5.5209,5.5209,5.5209,5.5209,5.5209,5.5209,5.5209,5.5209,5.5209,5.5209,5.5209,5.5209,5.5209,5.5209,5.5209,5.5209,5.5209,5.5209,5.5209,5.5209,5.5209,5.5209,5.5209,5.5209,5.5209,5.5209,5.5209,5.5209,5.5209,5.5209,5.5179,5.528,5.5381,5.628,5.7371,5.8268,5.9081,5.9522,6.0075,6.087,6.1152,6.1152,6.1756,6.2381,6.2313,6.2313,6.2178,6.2042,6.1264,6.0622,5.9979,5.9336,5.8795,5.8254,5.8152,5.8084,5.7949,5.7881,5.7881,5.7881,5.7881,5.7881,5.7881,5.7881,5.7881,5.7881,5.7881,5.7881,5.7881,5.7881,5.7881,5.7881,5.7881,5.7881,5.7881,5.7881,5.7881,5.7881,5.7881,5.7881,5.7881,5.7881,5.7881,5.7881,6.1313,6.0685,6.0266,5.9937,5.9668,5.9279,5.8979,5.88,5.8979,5.9009,5.868,5.8321,5.7603,5.6765,5.6376,5.5867,5.5269,5.5269,5.5209,5.5209,5.5209,5.5209,5.5209,5.5209,5.5209,5.5209,5.5209,5.5209,5.5209,5.5209,5.5209,5.5209,5.5209,5.5209,5.5209,5.5209,5.5209,5.5209,5.5209,5.5209,5.5209,5.5209,5.5209,5.5209,5.5209,5.5209,5.5209,5.5209,5.5209,5.5209,5.5209,5.5209,5.5209,5.5209,5.5209,5.5209,5.5209,5.5209,5.5209,5.5209,5.5209,5.5381,5.5651,5.6017,5.6445,5.7434,5.8542,5.9434,5.9697,6.0161,6.1152,6.203,6.2144,6.2302,6.2313,6.2245,6.211,6.1975,6.1298,6.0452,5.9742,5.9099,5.8558,5.8118,5.7881,5.7949,5.7983,5.7915,5.7881,5.7881,5.7881,5.7881,5.7881,5.7881,5.7881,5.7881,5.7881,5.7881,5.7881,5.7881,5.7881,5.7881,5.7881,5.7881,5.7881,5.7881,5.7881,5.7881,5.7881,5.7881,5.7881,5.7881,5.7881,5.7881,5.7881,6.0625,6.0027,5.9997,5.9578,5.9069,5.8979,5.862,5.8141,5.859,5.859,5.8082,5.7962,5.7214,5.6406,5.6047,5.5688,5.5299,5.5209,5.5209,5.5209,5.5209,5.5209,5.5209,5.5209,5.5209,5.5209,5.5209,5.5209,5.5209,5.5209,5.5209,5.5209,5.5209,5.5209,5.5209,5.5209,5.5209,5.5209,5.5209,5.5209,5.5209,5.5209,5.5209,5.5209,5.5209,5.5209,5.5209,5.5209,5.5209,5.5209,5.5209,5.5209,5.5209,5.5209,5.5209,5.5209,5.5209,5.5209,5.5209,5.5209,5.5209,5.5551,5.625,5.6638,5.6991,5.7807,5.8902,5.987,6.0247,6.0787,6.1756,6.1951,6.203,6.2167,6.2144,6.1941,6.1704,6.1264,6.0419,5.9641,5.9133,5.8524,5.8254,5.7881,5.7881,5.7881,5.7881,5.7881,5.7881,5.7881,5.7881,5.7881,5.7881,5.7881,5.7881,5.7881,5.7881,5.7881,5.7881,5.7881,5.7881,5.7881,5.7881,5.7881,5.7881,5.7881,5.7881,5.7881,5.7881,5.7881,5.7881,5.7881,5.7881,5.7881,5.7881,5.9937,5.9338,5.9338,5.8949,5.8381,5.8351,5.7962,5.7363,5.7483,5.7483,5.7274,5.6855,5.6526,5.6137,5.5658,5.5359,5.5269,5.5209,5.5209,5.5209,5.5209,5.5209,5.5209,5.5209,5.5209,5.5209,5.5209,5.5209,5.5209,5.5209,5.5209,5.5209,5.5209,5.5209,5.5209,5.5209,5.5209,5.5209,5.5209,5.5209,5.5209,5.5209,5.5209,5.5209,5.5209,5.5209,5.5209,5.5209,5.5209,5.5209,5.5209,5.5209,5.5209,5.5179,5.5179,5.5179,5.5029,5.4999,5.497,5.494,5.494,5.543,5.5963,5.6673,5.7339,5.8268,5.9137,6.001,6.0771,6.1461,6.1816,6.1816,6.1782,6.1852,6.1839,6.1535,6.1197,6.0351,5.9471,5.8998,5.849,5.822,5.7949,5.7881,5.7881,5.7881,5.7881,5.7881,5.7881,5.7881,5.7881,5.7881,5.7881,5.7881,5.7881,5.7881,5.7881,5.7881,5.7881,5.7881,5.7881,5.7881,5.7881,5.7881,5.7881,5.7881,5.7881,5.7881,5.7881,5.7881,5.7881,5.7881,5.7881,5.7881,5.7881,5.9458,5.9069,5.88,5.8471,5.8112,5.7812,5.7304,5.6765,5.6675,5.6496,5.6316,5.6166,5.6017,5.5807,5.5329,5.5209,5.5209,5.5209,5.5209,5.5209,5.5209,5.5209,5.5209,5.5209,5.5209,5.5209,5.5209,5.5209,5.5209,5.5209,5.5209,5.5209,5.5209,5.5209,5.5209,5.5209,5.5179,5.5209,5.5149,5.5149,5.5149,5.5179,5.5179,5.5209,5.5209,5.5179,5.5209,5.5209,5.5209,5.5059,5.491,5.473,5.4581,5.4371,5.4251,5.4221,5.4221,5.4311,5.4341,5.4371,5.4371,5.4767,5.4873,5.5145,5.6798,5.7692,5.8475,5.9362,6.0198,6.0863,6.0907,6.0907,6.0907,6.0883,6.0825,6.0622,6.0047,5.9235,5.8727,5.8423,5.8118,5.8051,5.7881,5.7881,5.7881,5.7881,5.7881,5.7881,5.7881,5.7881,5.7881,5.7881,5.7881,5.7881,5.7881,5.7881,5.7881,5.7881,5.7881,5.7881,5.7881,5.7881,5.7881,5.7881,5.7881,5.7881,5.7881,5.7881,5.7881,5.7881,5.7881,5.7881,5.7881,5.7881,5.7881,5.9069,5.889,5.8261,5.7932,5.7782,5.7244,5.6615,5.6107,5.6047,5.5748,5.5418,5.5807,5.5628,5.5359,5.5209,5.5209,5.5209,5.5209,5.5209,5.5209,5.5209,5.5209,5.5209,5.5209,5.5209,5.5209,5.5209,5.5209,5.5209,5.5209,5.5209,5.5209,5.5209,5.5209,5.5179,5.5179,5.5149,5.497,5.491,5.491,5.4999,5.5119,5.5179,5.5209,5.5179,5.5149,5.5119,5.5059,5.5059,5.47,5.4311,5.4162,5.3982,5.3713,5.3533,5.3473,5.3503,5.3443,5.3384,5.3443,5.3384,5.3391,5.3368,5.442,5.6296,5.728,5.8111,5.8822,5.9655,6.0106,6.0182,6.0148,6.0182,6.0114,5.9979,5.9708,5.8998,5.8389,5.8152,5.7949,5.7915,5.7881,5.7881,5.7881,5.7881,5.7881,5.7881,5.7881,5.7881,5.7881,5.7881,5.7881,5.7881,5.7881,5.7881,5.7881,5.7881,5.7881,5.7881,5.7881,5.7881,5.7881,5.7881,5.7881,5.7881,5.7881,5.7881,5.7881,5.7881,5.7881,5.7881,5.7881,5.7881,5.7881,5.7881,5.88,5.8261,5.7573,5.7034,5.6585,5.6406,5.5957,5.5448,5.5388,5.5299,5.5269,5.5239,5.5239,5.5209,5.5209,5.5209,5.5209,5.5209,5.5209,5.5209,5.5209,5.5209,5.5209,5.5209,5.5209,5.5209,5.5209,5.5209,5.5209,5.5209,5.5209,5.5209,5.5209,5.5179,5.5149,5.5089,5.488,5.461,5.4311,5.4251,5.4132,5.4401,5.5119,5.5209,5.5179,5.485,5.4581,5.4431,5.4072,5.3713,5.3473,5.3414,5.3264,5.3114,5.2965,5.2845,5.2875,5.2875,5.2845,5.3038,5.3074,5.3326,5.3833,5.5448,5.6828,5.7719,5.8283,5.8786,5.9396,5.9734,5.9844,5.9844,5.9844,5.9708,5.9539,5.8964,5.8321,5.8118,5.7983,5.7915,5.7881,5.7881,5.7881,5.7881,5.7881,5.7881,5.7881,5.7881,5.7881,5.7881,5.7881,5.7881,5.7881,5.7881,5.7881,5.7881,5.7881,5.7881,5.7881,5.7881,5.7881,5.7881,5.7881,5.7881,5.7881,5.7881,5.7881,5.7881,5.7881,5.7881,5.7881,5.7881,5.7881,5.7881,5.7881]},{"header":{"parameterUnit":"m.s-1","parameterCategory":1,"la1":31.0,"la2":29.5877,"lo1":-88.7671,"lo2":-86.6584,"dy":0.0162,"dx":0.0185,"nx":115,"ny":88,"refTime":"2024-09-04T00:00:00:Z","depth":0,"parameterNumber":3,"parameterNumberName":"V-component_of_WINDS"},"data":[0.0,0.0,0.0,0.0,0.0,0.0,0.0,0.0,0.0,0.0,0.0,0.0,0.0,0.0,0.0,0.0,0.0,0.0,0.0,0.0,0.0,0.0,0.0,0.0,0.0,0.0,0.0,0.0,0.0,0.0,0.0,0.0,0.0,0.0,0.0,0.0,0.0,0.0,0.0,0.0,0.0,0.0,0.0,0.0,0.0,0.0,0.0,0.0,0.0,0.0,0.0,0.0,0.0,0.0,0.0,0.0,0.0,0.0,0.0,0.0,0.0,0.0,0.0,0.0,0.0,0.0,0.0,0.0,0.0,0.0,0.0,0.0,0.0,0.0,0.0,0.0,0.0,0.0,0.0,0.0,0.0,0.0,0.0,0.0,0.0,0.0,0.0,0.0,0.0,0.0,0.0,0.0,0.0,0.0,0.0,0.0,0.0,0.0,0.0,0.0,0.0,0.0,0.0,0.0,0.0,0.0,0.0,0.0,0.0,0.0,0.0,0.0,0.0,0.0,0.0,0.0,0.0,0.0,0.0,0.0,0.0,0.0,0.0,0.0,0.0,0.0,0.0,0.0,0.0,0.0,0.0,0.0,0.0,0.0,0.0,0.0,0.0,0.0,0.0,0.0,0.0,0.0,0.0,0.0,0.0,0.0,0.0,0.0,0.0,0.0,0.0,0.0,0.0,0.0,0.0,0.0,0.0,0.0,0.0,0.0,0.0,0.0,0.0,0.0,0.0,0.0,0.0,0.0,0.0,0.0,0.0,0.0,0.0,0.0,0.0,0.0,0.0,0.0,0.0,0.0,0.0,0.0,0.0,0.0,0.0,0.0,0.0,0.0,0.0,0.0,0.0,0.0,0.0,0.0,0.0,0.0,0.0,0.0,0.0,0.0,0.0,0.0,0.0,0.0,0.0,0.0,0.0,0.0,0.0,0.0,0.0,0.0,0.0,0.0,0.0,0.0,0.0,0.0,0.0,0.0,0.0,0.0,0.0,0.0,0.0,0.0,0.0,0.0,0.0,0.0,0.0,0.0,0.0,0.0,0.0,0.0,0.0,0.0,0.0,0.0,0.0,0.0,0.0,0.0,0.0,0.0,0.0,0.0,0.0,0.0,0.0,0.0,0.0,0.0,0.0,0.0,0.0,0.0,0.0,0.0,0.0,0.0,0.0,0.0,0.0,0.0,0.0,0.0,0.0,0.0,0.0,0.0,0.0,0.0,0.0,0.0,0.0,0.0,0.0,0.0,0.0,0.0,0.0,0.0,0.0,0.0,0.0,0.0,0.0,0.0,0.0,0.0,0.0,0.0,0.0,0.0,0.0,0.0,0.0,0.0,0.0,0.0,0.0,0.0,0.0,0.0,0.0,0.0,0.0,0.0,0.0,0.0,0.0,0.0,0.0,0.0,0.0,0.0,0.0,0.0,0.0,0.0,0.0,0.0,0.0,0.0,0.0,0.0,0.0,0.0,0.0,0.0,0.0,0.0,0.0,0.0,0.0,0.0,0.0,0.0,0.0,0.0,0.0,0.0,0.0,0.0,0.0,0.0,0.0,0.0,0.0,0.0,0.0,0.0,0.0,0.0,0.0,0.0,0.0,0.0,0.0,0.0,0.0,0.0,0.0,0.0,0.0,0.0,0.0,0.0,0.0,0.0,0.0,0.0,0.0,0.0,0.0,0.0,0.0,0.0,0.0,0.0,0.0,0.0,0.0,0.0,0.0,0.0,0.0,0.0,0.0,0.0,0.0,0.0,0.0,0.0,0.0,0.0,0.0,0.0,0.0,0.0,0.0,0.0,0.0,0.0,0.0,0.0,0.0,0.0,0.0,0.0,0.0,0.0,0.0,0.0,0.0,0.0,0.0,0.0,0.0,0.0,0.0,0.0,0.0,0.0,0.0,0.0,0.0,0.0,0.0,0.0,0.0,0.0,0.0,0.0,0.0,0.0,0.0,0.0,0.0,0.0,0.0,0.0,0.0,0.0,0.0,0.0,0.0,0.0,0.0,0.0,0.0,0.0,0.0,0.0,0.0,0.0,0.0,0.0,0.0,0.0,0.0,0.0,0.0,0.0,0.0,0.0,0.0,0.0,0.0,0.0,0.0,0.0,0.0,0.0,0.0,0.0,0.0,0.0,0.0,0.0,0.0,0.0,0.0,0.0,0.0,0.0,0.0,0.0,0.0,0.0,0.0,0.0,0.0,0.0,0.0,0.0,0.0,0.0,0.0,0.0,0.0,0.0,0.0,0.0,0.0,0.0,0.0,0.0,0.0,0.0,0.0,0.0,0.0,0.0,0.0,0.0,0.0,0.0,0.0,0.0,0.0,0.0,0.0,0.0,0.0,0.0,0.0,0.0,0.0,0.0,0.0,0.0,0.0,0.0,0.0,0.0,0.0,0.0,0.0,0.0,0.0,0.0,0.0,0.0,0.0,0.0,0.0,0.0,0.0,0.0,0.0,0.0,0.0,0.0,0.0,0.0,0.0,0.0,0.0,0.0,0.0,0.0,0.0,0.0,0.0,0.0,0.0,0.0,0.0,0.0,0.0,0.0,0.0,0.0,0.0,0.0,0.0,0.0,0.0,0.0,0.0,0.0,0.0,0.0,0.0,0.0,0.0,0.0,0.0,0.0,0.0,0.0,0.0,0.0,0.0,0.0,0.0,0.0,0.0,0.0,0.0,0.0,0.0,0.0,0.0,0.0,0.0,0.0,0.0,0.0,0.0,0.0,0.0,0.0,0.0,0.0,0.0,0.0,0.0,0.0,0.0,0.0,0.0,0.0,0.0,0.0,0.0,0.0,0.0,0.0,0.0,0.0,0.0,0.0,0.0,0.0,0.0,0.0,0.0,0.0,0.0,0.0,0.0,0.0,0.0,0.0,0.0,0.0,0.0,0.0,0.0,0.0,0.0,0.0,0.0,0.0,0.0,0.0,0.0,0.0,0.0,0.0,0.0,0.0,0.0,0.0,0.0,0.0,0.0,0.0,0.0,0.0,0.0,0.0,0.0,0.0,0.0,0.0,0.0,0.0,0.0,0.0,0.0,0.0,0.0,0.0,0.0,0.0,0.0,0.0,0.0,0.0,0.0,0.0,0.0,0.0,0.0,0.0,0.0,0.0,0.0,0.0,0.0,0.0,0.0,0.0,0.0,0.0,0.0,0.0,0.0,0.0,0.0,0.0,0.0,0.0,0.0,0.0,0.0,0.0,0.0,0.0,0.0,0.0,0.0,0.0,0.0,0.0,0.0,0.0,0.0,0.0,0.0,0.0,0.0,0.0,0.0,0.0,0.0,0.0,0.0,0.0,0.0,0.0,0.0,0.0,0.0,0.0,0.0,0.0,0.0,0.0,0.0,0.0,0.0,0.0,0.0,0.0,0.0,0.0,0.0,0.0,0.0,0.0,0.0,0.0,0.0,0.0,0.0,0.0,0.0,0.0,0.0,0.0,0.0,0.0,0.0,0.0,0.0,0.0,0.0,0.0,0.0,0.0,0.0,0.0,0.0,0.0,0.0,0.0,0.0,0.0,0.0,0.0,0.0,0.0,0.0,0.0,0.0,0.0,0.0,0.0,0.0,0.0,0.0,0.0,0.0,0.0,0.0,0.0,0.0,0.0,0.0,0.0,0.0,0.0,0.0,0.0,0.0,0.0,0.0,0.0,0.0,0.0,0.0,0.0,0.0,0.0,0.0,0.0,0.0,0.0,0.0,0.0,0.0,0.0,0.0,0.0,0.0,0.0,0.0,0.0,0.0,0.0,0.0,0.0,0.0,0.0,0.0,0.0,0.0,0.0,0.0,0.0,0.0,0.0,0.0,0.0,0.0,0.0,0.0,0.0,0.0,0.0,0.0,0.0,0.0,0.0,0.0,0.0,0.0,0.0,0.0,0.0,0.0,0.0,0.0,0.0,0.0,0.0,0.0,0.0,0.0,0.0,0.0,0.0,0.0,0.0,0.0,0.0,0.0,0.0,0.0,0.0,0.0,0.0,0.0,0.0,0.0,0.0,0.0,0.0,0.0,0.0,0.0,0.0,0.0,0.0,0.0,0.0,0.0,0.0,0.0,0.0,0.0,0.0,0.0,0.0,0.0,0.0,0.0,0.0,0.0,0.0,0.0,0.0,0.0,0.0,0.0,0.0,0.0,0.0,0.0,0.0,0.0,0.0,0.0,0.0,0.0,0.0,0.0,0.0,0.0,0.0,0.0,0.0,0.0,0.0,0.0,0.0,0.0,0.0,0.0,0.0,0.0,0.0,0.0,0.0,0.0,0.0,0.0,0.0,0.0,0.0,0.4925,0.0,0.0,0.0,0.0,0.0,0.0,0.0,0.0,0.0,0.0,0.0,0.0,0.0,0.0,0.0,0.0,0.0,0.0,0.0,0.0,0.0,0.0,0.0,0.0,0.0,0.0,0.0,0.0,0.0,0.0,0.0,0.0,0.0,0.0,0.0,0.0,0.0,0.0,0.0,0.0,0.0,0.0,0.0,0.0,0.0,0.0,0.0,0.0,0.0,0.0,0.0,0.0,0.0,0.0,0.0,0.0,0.0,0.0,0.0,0.0,0.0,0.0,0.0,0.0,0.0,0.0,0.0,0.0,0.0,0.0,0.0,0.0,0.0,0.0,0.0,0.0,0.0,0.0,0.0,0.0,0.0,0.0,0.0,0.0,0.0,0.0,0.0,0.0,0.0,0.0,0.0,0.0,0.0,0.0,0.0,0.0,0.0,0.0,0.0,0.0,0.0,0.0,0.0,0.0,0.0,0.0,0.0,0.0,0.0,0.0,0.5425,0.5425,0.5209,0.4998,0.4925,0.0,0.0,0.0,0.0,0.0,0.0,0.0,0.0,0.0,0.0,0.0,0.0,0.0,0.0,0.0,0.0,0.0,0.0,0.0,0.0,0.0,0.0,0.0,0.0,0.0,0.0,0.0,0.0,0.0,0.0,0.0,0.0,0.0,0.0,0.0,0.0,0.0,0.0,0.0,0.0,0.0,0.0,0.0,0.0,0.0,0.0,0.0,0.0,0.0,0.0,0.0,0.0,0.0,0.0,0.0,0.0,0.0,0.0,0.0,0.0,0.0,0.0,0.0,0.0,0.0,0.0,0.0,0.0,0.0,0.0,0.0,0.0,0.0,0.0,0.0,0.0,0.0,0.0,0.0,0.0,0.0,0.0,0.0,0.0,0.0,0.0,0.0,0.0,0.0,0.0,0.0,0.0,0.0,0.0,0.0,0.0,0.0,0.0,0.0,0.0,0.0,0.0,0.0,0.0,0.0,0.0,0.0,0.0,0.0,0.0,0.0,0.0,0.5379,0.5264,0.5128,0.0,0.0,0.0,0.0,0.0,0.0,0.0,0.0,0.0,0.0,0.0,0.0,0.0,0.0,0.0,0.0,0.0,0.0,0.0,0.0,0.0,0.0,0.0,0.0,0.0,0.0,0.0,0.0,0.0,0.0,0.0,0.0,0.0,0.0,0.0,0.0,0.0,0.0,0.0,0.0,0.0,0.0,0.0,0.0,0.0,0.0,0.0,0.0,0.0,0.0,0.0,0.0,0.0,0.0,0.0,0.0,0.0,0.0,0.0,0.0,0.0,0.0,0.0,0.0,0.0,0.0,0.0,0.0,0.0,0.0,0.0,0.0,0.0,0.0,0.0,0.0,0.0,0.0,0.0,0.0,0.0,0.0,0.0,0.0,0.0,0.0,0.0,0.0,0.0,0.0,0.0,0.0,0.0,0.0,0.0,0.0,0.0,0.0,0.0,0.0,0.0,0.0,0.0,0.0,0.0,0.0,0.0,0.0,0.0,0.0,0.5345,0.5752,0.5874,0.0,0.5732,0.0,0.0,0.0,0.0,0.0,0.0,0.0,0.0,0.0,0.0,0.0,0.0,0.0,0.0,0.0,0.0,0.0,0.0,0.0,0.0,0.0,0.0,0.0,0.0,0.0,0.0,0.0,0.0,0.0,0.0,0.0,0.0,0.0,0.0,0.0,0.0,0.0,0.0,0.0,0.0,0.0,0.0,0.0,0.0,0.0,0.0,0.0,0.0,0.0,0.0,0.0,0.0,0.0,0.0,0.0,0.0,0.0,0.0,0.0,0.0,0.0,0.0,0.0,0.0,0.0,0.0,0.0,0.0,0.0,0.0,0.0,0.0,0.0,0.0,0.0,0.0,0.0,0.0,0.0,0.0,0.0,0.0,0.0,0.0,0.0,0.0,0.0,0.0,0.0,0.0,0.0,0.0,0.0,0.0,0.0,0.0,0.0,0.0,0.0,0.0,0.0,0.0,0.0,0.0,0.0,0.0,0.0,0.0,0.0,0.0,0.5616,0.58,0.5779,0.5698,0.0,0.0,0.0,0.0,0.0,0.0,0.0,0.0,0.0,0.0,0.0,0.0,0.0,0.0,0.0,0.0,0.0,0.0,0.0,0.0,0.0,0.0,0.0,0.0,0.0,0.0,0.0,0.0,0.0,0.0,0.0,0.0,0.0,0.0,0.0,0.0,0.0,0.0,0.0,0.0,0.0,0.0,0.0,0.0,0.0,0.0,0.0,0.0,0.0,0.0,0.0,0.0,0.0,0.0,0.0,0.0,0.0,0.0,0.0,0.0,0.0,0.0,0.0,0.0,0.0,0.0,0.0,0.0,0.0,0.0,0.0,0.0,0.0,0.0,0.0,0.0,0.0,0.0,0.0,0.0,0.0,0.0,0.0,0.0,0.0,0.0,0.0,0.0,0.0,0.0,0.0,0.0,0.0,0.0,0.0,0.0,0.0,0.0,0.0,0.0,0.0,0.0,0.0,0.0,0.0,0.0,0.0,0.0,0.0,0.0,0.561,0.582,0.5969,0.5847,0.5644,0.5439,0.0,0.0,0.0,0.0,0.0,0.0,0.0,0.0,0.0,0.0,0.0,0.0,0.0,0.0,0.0,0.0,0.0,0.0,0.0,0.0,0.0,0.0,0.0,0.0,0.0,0.0,0.0,0.0,0.0,0.0,0.0,0.0,0.0,0.0,0.0,0.0,0.0,0.0,0.0,0.0,0.0,0.0,0.0,0.0,0.0,0.0,0.0,0.0,0.0,0.0,0.0,0.0,0.0,0.0,0.0,0.0,0.0,0.0,0.0,0.0,0.0,0.0,0.0,0.0,0.0,0.0,0.0,0.0,0.0,0.0,0.0,0.0,0.0,0.0,0.0,0.0,0.0,0.0,0.0,0.0,0.0,0.0,0.0,0.0,0.0,0.0,0.0,0.0,0.0,0.0,0.0,0.0,0.0,0.0,0.0,0.0,0.0,0.0,0.0,0.0,0.0,0.0,0.0,0.0,0.0,0.0,0.0,0.0,0.6302,0.5867,0.5867,0.6417,0.6379,0.5956,0.0,0.0,0.0,0.0,0.0,0.0,0.0,0.0,0.0,0.0,0.0,0.0,0.0,0.0,0.0,0.0,0.0,0.0,0.0,0.0,0.0,0.0,0.0,0.0,0.0,0.0,0.0,0.0,0.0,0.0,0.0,0.0,0.0,0.0,0.0,0.0,0.0,0.0,0.0,0.0,0.0,0.0,0.0,0.0,0.0,0.0,0.0,0.0,0.0,0.0,0.0,0.0,0.0,0.0,0.0,0.0,0.0,0.0,0.0,0.0,0.0,0.0,0.0,0.0,0.0,0.0,0.0,0.0,0.0,0.0,0.0,0.0,0.0,0.0,0.0,0.0,0.0,0.0,0.0,0.0,0.0,0.0,0.0,0.0,0.0,0.0,0.0,0.0,0.0,0.0,0.0,0.0,0.0,0.0,0.0,0.0,0.0,0.0,0.0,0.0,0.0,0.0,0.0,0.0,0.0,0.0,0.0,0.0,0.0,0.5233,0.5418,0.5908,0.6824,0.6112,0.583,0.0,0.0,0.0,0.0,0.0,0.0,0.0,0.0,0.0,0.0,0.0,0.0,0.0,0.0,0.0,0.0,0.0,0.0,0.0,0.0,0.0,0.0,0.0,0.0,0.0,0.0,0.0,0.0,0.0,0.0,0.0,0.0,0.0,0.0,0.0,0.0,0.0,0.0,0.0,0.0,0.0,0.0,0.0,0.0,0.0,0.0,0.0,0.0,0.0,0.0,0.0,0.0,0.0,0.0,0.0,0.0,0.0,0.0,0.0,0.0,0.0,0.0,0.0,0.0,0.0,0.0,0.0,0.0,0.0,0.0,0.0,0.0,0.0,0.0,0.0,0.0,0.0,0.0,0.0,0.0,0.0,0.0,0.0,0.0,0.0,0.0,0.0,0.0,0.0,0.0,0.0,0.0,0.0,0.0,0.0,0.0,0.0,0.0,0.0,0.0,0.0,0.0,0.0,0.0,0.0,0.0,0.0,0.0,0.0,0.5102,0.0,0.6234,0.679,0.6078,0.5734,0.0,0.0,0.0,0.0,0.0,0.0,0.0,0.0,0.0,0.0,0.0,0.0,0.0,0.0,0.0,0.0,0.0,0.0,0.0,0.0,0.0,0.0,0.0,0.0,0.0,0.0,0.0,0.0,0.0,0.0,0.0,0.0,0.0,0.0,0.0,0.0,0.0,0.0,0.0,0.0,0.0,0.0,0.0,0.0,0.0,0.0,0.0,0.0,0.0,0.0,0.0,0.0,0.0,0.0,0.0,0.0,0.0,0.0,0.0,0.0,0.0,0.0,0.0,0.0,0.0,0.0,0.0,0.0,0.0,0.0,0.0,0.0,0.0,0.0,0.0,0.0,0.0,0.0,0.0,0.0,0.0,0.0,0.0,0.0,0.0,0.0,0.0,0.0,0.0,0.0,0.0,0.0,0.0,0.0,0.0,0.0,0.0,0.0,0.0,0.0,0.0,0.0,0.0,0.0,0.0,0.0,0.0,0.0,0.5116,0.6263,0.677,0.681,0.6386,0.6325,0.5691,0.0,0.0,0.0,0.0,0.0,0.0,0.0,0.0,0.0,0.0,0.0,0.0,0.0,0.0,0.0,0.0,0.0,0.0,0.0,0.0,0.0,0.0,0.0,0.0,0.0,0.0,0.0,0.0,0.0,0.0,0.0,0.0,0.0,0.0,0.0,0.0,0.0,0.0,0.0,0.0,0.0,0.0,0.0,0.0,0.0,0.0,0.0,0.0,0.0,0.0,0.0,0.0,0.0,0.0,0.0,0.0,0.0,0.0,0.0,0.0,0.0,0.0,0.0,0.0,0.0,0.0,0.0,0.0,0.0,0.0,0.0,0.0,0.0,0.0,0.0,0.0,0.0,0.0,0.0,0.0,0.0,0.0,0.0,0.0,0.0,0.0,0.0,0.0,0.0,0.0,0.0,0.0,0.0,0.0,0.0,0.0,0.0,0.0,0.0,0.0,0.0,0.0,0.0,0.0,0.0,0.0,0.0,0.0,0.0,0.5871,0.6281,0.6695,0.698,0.6227,0.5813,0.0,0.0,0.0,0.0,0.0,0.0,0.0,0.0,0.0,0.0,0.0,0.0,0.0,0.0,0.0,0.0,0.0,0.0,0.0,0.0,0.0,0.0,0.0,0.0,0.0,0.0,0.0,0.0,0.0,0.0,0.0,0.0,0.0,0.0,0.0,0.0,0.0,0.0,0.0,0.0,0.0,0.0,0.0,0.0,0.0,0.0,0.0,0.0,0.0,0.0,0.0,0.0,0.0,0.0,0.0,0.0,0.0,0.0,0.0,0.0,0.0,0.0,0.0,0.0,0.0,0.0,0.0,0.0,0.0,0.0,0.0,0.0,0.0,0.0,0.0,0.0,0.0,0.0,0.0,0.0,0.0,0.0,0.0,0.0,0.0,0.0,0.0,0.0,0.0,0.0,0.0,0.0,0.0,0.0,0.0,0.0,0.0,0.0,0.0,0.0,0.0,0.0,0.0,0.0,0.0,0.0,0.0,0.0,0.0,0.7556,0.7282,0.7555,0.8266,0.7357,0.6942,0.7146,0.0,0.0,0.0,0.0,0.0,0.0,0.0,0.0,0.0,0.0,0.0,0.0,0.0,0.0,0.0,0.0,0.0,0.0,0.0,0.0,0.0,0.0,0.0,0.0,0.0,0.0,0.0,0.0,0.0,0.0,0.0,0.0,0.0,0.0,0.0,0.0,0.0,0.0,0.0,0.0,0.0,0.0,0.0,0.0,0.0,0.0,0.0,0.0,0.0,0.0,0.0,0.0,0.0,0.0,0.0,0.0,0.0,0.0,0.0,0.0,0.0,0.0,0.0,0.0,0.0,0.0,0.0,0.0,0.0,0.0,0.0,0.0,0.0,0.0,0.0,0.0,0.0,0.0,0.0,0.0,0.0,0.0,0.0,0.0,0.0,0.0,0.0,0.0,0.0,0.0,0.0,0.0,0.0,0.0,0.0,0.0,0.0,0.0,0.0,0.0,0.0,0.0,0.0,0.0,0.0,0.0,0.0,0.0,1.1091,0.9789,0.9444,1.0069,0.9418,0.8926,0.0,0.0,0.0,0.0,0.0,0.0,0.0,0.0,0.0,0.0,0.0,0.0,0.0,0.0,0.0,0.0,0.0,0.0,0.0,0.0,0.0,0.0,0.0,0.0,0.0,0.0,0.0,0.0,0.0,0.0,0.0,0.0,0.0,0.0,0.0,0.0,0.0,0.0,0.0,0.0,0.0,0.0,0.0,0.0,0.0,0.0,0.0,0.0,0.0,0.0,0.0,0.0,0.0,0.0,0.0,0.0,0.0,0.0,0.0,0.0,0.0,0.0,0.0,0.0,0.0,0.0,0.0,0.0,0.0,0.0,0.0,0.0,0.0,0.0,0.0,0.0,0.0,0.0,0.0,0.0,0.0,0.0,0.0,0.0,0.0,0.0,0.0,0.0,0.0,0.0,0.0,0.0,0.0,0.0,0.0,0.0,0.0,0.0,0.0,0.0,0.0,0.0,0.0,0.0,0.0,0.0,0.0,0.0,0.0,1.3572,1.3735,1.3723,1.3457,1.2083,1.0959,0.0,0.0,0.0,0.0,0.0,0.0,0.0,0.0,0.0,0.0,0.0,0.0,0.0,0.0,0.0,0.0,0.0,0.0,0.0,0.0,0.0,0.0,0.0,0.0,0.0,0.0,0.0,0.0,0.0,0.0,0.0,0.0,0.0,0.0,0.0,0.0,0.0,0.0,0.0,0.0,0.0,0.0,0.0,0.0,0.0,0.0,0.0,0.0,0.0,0.0,0.0,0.0,0.0,0.0,0.0,0.0,0.0,0.0,0.0,0.0,0.0,0.0,0.0,0.0,0.0,0.0,0.0,0.0,0.0,0.0,0.0,0.0,0.0,0.0,0.0,0.0,0.0,0.0,0.0,0.0,0.0,0.0,0.0,0.0,0.0,0.0,0.0,0.0,0.0,0.0,0.0,0.0,0.0,0.0,0.0,0.0,0.0,0.0,0.0,0.0,0.0,0.0,0.0,0.0,0.0,0.0,0.0,0.0,1.3889,1.567,1.6819,1.7517,1.786,1.5274,1.3333,0.0,0.0,0.0,0.0,0.0,0.0,0.0,0.0,0.0,0.0,0.0,0.0,0.0,0.0,0.0,0.0,0.0,0.0,0.0,0.0,0.0,0.0,0.0,0.0,0.0,0.0,0.0,0.0,0.0,0.0,0.0,0.0,0.0,0.0,0.0,0.0,0.0,0.0,0.0,0.0,0.0,0.0,0.0,0.0,0.0,0.0,0.0,0.0,0.0,0.0,0.0,0.0,0.0,0.0,0.0,0.0,0.0,0.0,0.0,0.0,0.0,0.0,0.0,0.0,0.0,0.0,0.0,0.0,0.0,0.0,0.0,0.0,0.0,0.0,0.0,0.0,0.0,0.0,0.0,0.0,0.0,0.0,0.0,0.0,0.0,0.0,0.0,0.0,0.0,0.0,0.0,0.0,0.0,0.0,0.0,0.0,0.0,0.0,0.0,0.0,0.0,0.0,0.0,0.0,0.0,0.0,0.0,0.0,1.5459,1.7461,1.9145,2.0637,2.1846,1.8505,1.5834,0.0,0.0,0.0,0.0,0.0,0.0,0.0,0.0,0.0,0.0,0.0,0.0,0.0,0.0,0.0,0.0,0.0,0.0,0.0,0.0,0.0,0.0,0.0,0.0,0.0,0.0,0.0,0.0,0.0,0.0,0.0,0.0,0.0,0.0,0.0,0.0,0.0,0.0,0.0,0.0,0.0,0.0,0.0,0.0,0.0,0.0,0.0,0.0,0.0,0.0,0.0,0.0,0.0,0.0,0.0,0.0,0.0,0.0,0.0,0.0,0.0,0.0,0.0,0.0,0.0,0.0,0.0,0.0,0.0,0.0,0.0,0.0,0.0,0.0,0.0,0.0,0.0,0.0,0.0,0.0,0.0,0.0,0.0,0.0,0.0,0.0,0.0,0.0,0.0,0.0,0.0,0.0,0.0,0.0,0.0,0.0,0.0,0.0,0.0,0.0,0.0,0.0,0.0,0.0,0.0,0.0,0.0,0.0,1.7668,1.9233,2.0915,2.1975,2.2311,1.9522,1.7383,0.0,0.0,0.0,0.0,0.0,0.0,0.0,0.0,0.0,0.0,0.0,0.0,0.0,0.0,0.0,0.0,0.0,0.0,0.0,0.0,0.0,0.0,0.0,0.0,0.0,0.0,0.0,0.0,0.0,0.0,0.0,0.0,0.0,0.0,0.0,0.0,0.0,0.0,0.0,0.0,0.0,0.0,0.0,0.0,0.0,0.0,0.0,0.0,0.8321,0.0,0.0,0.0,0.0,0.0,0.0,0.0,0.0,0.0,0.0,0.0,0.0,0.0,0.0,0.0,0.0,0.0,0.0,0.0,0.0,0.0,0.0,0.0,0.0,0.0,0.0,0.0,0.0,0.0,0.0,0.0,0.0,0.0,0.0,0.0,0.0,0.0,0.0,0.0,0.0,0.0,0.0,0.0,0.0,0.0,0.0,0.0,0.0,0.0,0.0,0.0,0.0,0.0,0.0,0.0,0.0,0.0,0.0,0.0,1.8798,2.0388,2.1857,2.2619,2.2552,2.0468,1.841,0.0,0.0,0.0,0.0,0.0,0.0,0.0,0.0,0.0,0.0,0.0,0.0,0.0,0.0,0.0,0.0,0.0,0.0,0.0,0.0,0.0,0.0,0.0,0.0,0.0,0.0,0.0,0.0,0.0,0.0,0.0,0.0,0.0,0.0,0.0,0.0,0.0,0.0,0.0,0.0,0.0,0.0,0.0,0.0,0.0,0.0,0.0,0.0,0.0,0.0,0.0,0.0,0.0,0.0,0.0,0.0,0.0,0.0,0.0,0.0,0.0,0.0,0.0,0.0,0.0,0.0,0.0,0.0,0.0,0.0,0.0,0.0,0.0,0.0,0.0,0.0,0.0,0.0,0.0,0.0,0.0,0.0,0.0,0.0,0.0,0.0,0.0,0.0,0.0,0.0,0.0,0.0,0.0,0.0,0.0,0.0,0.0,0.0,0.0,0.0,0.0,0.0,0.0,0.0,0.0,0.0,0.0,1.7248,1.9359,2.1243,2.2325,2.2846,2.2766,2.1136,1.9118,1.678,0.0,0.0,0.0,0.0,0.0,0.0,0.0,0.0,0.0,0.0,0.0,0.0,0.0,0.0,0.0,0.0,0.0,0.0,0.0,0.0,0.0,0.0,0.0,0.0,0.0,0.0,0.0,0.0,0.0,0.0,0.0,0.0,0.0,0.0,0.0,0.0,0.0,0.0,0.5053,0.5589,0.0,0.0,0.0,0.0,0.0,0.0,0.0,0.0,1.0797,0.0,0.0,0.0,0.0,0.0,0.0,0.0,0.0,0.0,0.0,0.0,0.0,0.0,0.0,0.0,0.0,0.0,0.0,0.0,0.0,0.0,0.0,0.0,0.0,0.0,0.0,0.0,0.0,0.0,0.0,0.0,0.0,0.0,0.0,0.0,0.0,0.0,0.0,0.0,0.0,0.0,0.0,0.0,0.0,0.0,0.0,0.0,0.0,0.0,0.0,0.0,0.0,0.0,0.0,0.0,0.0,1.7021,1.7756,1.9426,2.2124,2.2632,2.2739,2.2472,2.1029,1.9132,1.678,0.0,0.0,0.0,0.0,0.0,0.0,0.0,0.0,0.0,0.0,0.0,0.0,0.0,0.0,0.0,0.0,0.0,0.0,0.0,0.0,0.0,0.0,0.0,0.0,0.0,0.0,0.0,0.0,0.0,0.0,0.0,0.0,0.0,0.0,0.0,0.0,0.0,0.0,0.0,0.6723,0.7819,0.0,0.0,0.0,0.0,0.0,0.0,0.0,0.0,1.0554,0.0,0.0,0.0,0.0,0.0,0.0,0.0,0.0,0.0,0.0,0.0,0.0,0.0,0.0,0.0,0.0,0.0,0.0,0.0,0.0,0.0,0.0,0.0,0.0,0.0,0.0,0.0,0.0,0.0,0.0,0.0,0.0,0.0,0.0,0.0,0.0,0.0,0.0,0.0,0.0,0.0,0.0,0.0,0.0,0.0,0.0,0.0,0.0,0.0,0.0,0.0,0.0,0.0,0.0,0.0,1.7007,1.8464,2.0294,2.2552,2.2792,2.2726,2.2392,2.0561,1.8651,0.0,0.0,0.0,0.0,0.0,0.0,0.0,0.0,0.0,0.0,0.0,0.0,0.0,0.0,0.0,0.0,0.0,0.0,0.0,0.0,0.0,0.0,0.0,0.0,0.0,0.0,0.0,0.0,0.0,0.0,0.0,0.0,0.0,0.0,0.0,0.0,0.0,0.0,0.0,0.0,0.6954,0.7757,0.9596,0.0,0.0,0.0,0.0,0.0,0.0,1.1832,1.1282,0.0,0.0,0.0,0.0,0.0,0.0,0.0,0.0,0.0,0.0,0.0,0.0,0.0,0.0,0.0,0.0,0.0,0.0,0.0,0.0,0.0,0.0,0.0,0.0,0.0,0.0,0.0,0.0,0.0,0.0,0.0,0.0,0.0,0.0,0.0,0.0,0.0,0.0,0.0,0.0,0.0,0.0,0.0,0.0,0.0,0.0,0.0,0.0,0.0,0.0,0.0,0.0,0.0,0.0,0.0,1.6673,1.8918,2.0975,2.2766,2.2859,2.2699,2.2298,2.0174,1.8237,0.0,0.0,0.0,0.0,0.0,0.0,0.0,0.0,0.0,0.0,0.0,0.0,0.0,0.0,0.0,0.0,0.0,0.0,0.0,0.0,0.0,0.0,0.0,0.0,0.0,0.0,0.0,0.0,0.0,0.0,0.0,0.0,0.0,0.0,0.0,0.0,0.0,0.0,0.0,0.0,0.0,0.8396,1.0539,1.0262,0.0,0.0,0.0,0.0,1.3574,1.3146,0.0,0.0,0.0,0.0,0.0,0.0,0.0,0.0,0.0,0.0,0.0,0.0,0.0,0.0,0.0,0.0,0.0,0.0,0.0,0.0,0.0,0.0,0.0,0.0,0.0,0.0,0.0,0.0,0.0,0.0,0.0,0.0,0.0,0.0,0.0,0.0,0.0,0.0,0.0,0.0,0.0,0.0,0.0,0.0,0.0,0.0,0.0,0.0,0.0,0.0,0.0,0.0,0.0,0.0,0.0,0.0,1.6647,1.8531,2.0575,2.2726,2.2859,2.2605,2.2031,2.0267,1.825,0.0,0.0,0.0,0.0,0.0,0.0,0.0,0.0,0.0,0.0,0.0,0.0,0.0,0.0,0.0,0.0,0.0,0.0,0.0,0.0,0.0,0.0,0.0,0.0,0.0,0.0,0.0,0.0,0.0,0.0,0.0,0.0,0.0,0.0,0.0,0.0,0.0,0.0,0.0,0.0,0.0,1.1765,1.2326,1.2437,1.2897,0.0,0.0,1.4763,1.5097,1.5484,0.0,0.0,0.0,0.0,0.0,0.0,0.0,0.0,0.0,0.0,0.0,0.0,0.0,0.0,0.0,0.0,0.0,0.0,0.0,0.0,0.0,0.0,0.0,0.0,0.0,0.0,0.0,0.0,0.0,0.0,0.0,0.0,0.0,0.0,0.0,0.0,0.0,0.0,0.0,0.0,0.0,0.0,0.0,0.0,0.0,0.0,0.0,0.0,0.0,0.0,0.0,0.0,0.0,0.0,0.0,1.4603,1.6714,1.9279,2.1336,2.2792,2.2699,2.2418,2.1991,1.9639,1.7488,0.0,0.0,0.0,0.0,0.0,0.0,0.0,0.0,0.0,0.0,0.0,0.0,0.0,0.0,0.0,0.0,0.0,0.0,0.0,0.0,0.0,0.0,0.0,0.0,0.0,0.0,0.0,0.0,0.0,0.0,0.0,0.0,0.0,0.0,0.0,0.0,0.0,0.0,0.0,0.0,0.0,0.0,1.3473,1.3696,0.0,0.0,0.0,1.5818,1.5458,0.0,0.0,0.0,0.0,0.0,0.0,0.0,0.0,0.0,0.0,0.0,0.0,0.0,0.0,0.0,0.0,0.0,0.0,0.0,0.0,0.0,0.0,0.0,0.0,0.0,0.0,0.0,0.0,0.0,0.0,0.0,0.0,0.0,0.0,0.0,0.0,0.0,0.0,0.0,0.0,0.0,0.0,0.0,0.0,0.0,0.0,0.0,0.0,0.0,0.0,0.0,0.0,0.0,0.0,0.0,0.0,0.0,1.6847,2.0013,2.2058,2.2819,2.2565,2.2285,2.1951,1.9412,0.0,0.0,0.0,0.0,0.0,0.0,0.0,0.0,0.0,0.0,0.0,0.0,0.0,0.0,0.0,0.0,0.0,0.0,0.0,0.0,0.0,0.0,0.0,0.0,0.0,0.0,0.0,0.673,0.0,0.0,0.0,0.0,0.0,0.0,0.0,0.0,0.0,0.0,0.0,0.0,0.0,0.0,1.3111,1.4765,1.4983,1.5369,0.0,0.0,1.6647,1.6139,1.6553,1.6233,0.0,0.0,0.0,0.0,0.0,0.0,0.0,0.0,0.0,0.0,0.0,0.0,0.0,0.0,0.0,0.0,0.0,0.0,0.0,0.0,0.0,0.0,0.0,0.0,0.0,0.0,0.0,0.0,0.0,0.0,0.0,0.0,0.0,0.0,0.0,0.0,0.0,0.0,0.0,0.0,0.0,0.0,0.0,0.0,0.0,0.0,0.0,0.0,0.0,0.0,0.0,0.0,0.0,0.0,1.5658,1.7168,2.0307,2.2245,2.2832,2.2565,2.2285,2.1964,2.0201,1.8156,0.0,0.0,0.0,0.0,0.0,0.0,0.0,0.0,0.0,0.0,0.0,0.0,0.0,0.0,0.0,0.0,0.0,0.0,0.0,0.0,0.0,0.0,0.0,0.0,0.0,0.0,0.0,0.0,0.0,0.0,0.0,0.0,0.0,0.0,0.0,0.0,0.0,0.0,0.0,0.0,0.0,1.6381,1.656,1.7038,1.7676,0.0,1.7809,1.7288,1.7782,1.8343,1.7769,1.4923,0.0,0.0,0.0,0.0,0.0,0.0,0.0,0.0,0.0,0.0,0.0,0.0,0.0,0.0,0.0,0.0,0.0,0.0,0.0,0.0,0.0,0.0,0.0,0.0,0.0,0.0,0.0,0.0,0.0,0.0,0.0,0.0,0.0,0.0,0.0,0.0,0.0,0.0,0.0,0.0,0.0,0.0,0.0,0.0,0.0,0.0,0.0,0.0,0.0,0.0,0.0,0.0,0.0,1.5685,1.7257,2.0334,2.2271,2.2819,2.2392,2.2098,2.1991,2.0294,1.825,0.0,0.0,0.0,0.0,0.0,0.0,0.0,0.0,0.0,0.0,0.0,0.0,0.0,0.0,0.0,0.0,0.0,0.0,0.0,0.0,0.0,0.0,0.0,0.0,0.0,0.0,0.0,0.0,0.9312,0.9512,0.9512,0.0,0.0,0.0,0.0,0.0,0.0,0.0,0.0,0.0,0.0,1.7034,1.7943,1.8263,0.0,0.0,1.8531,1.813,1.7809,1.7956,1.7341,1.515,1.4242,0.0,0.0,0.0,0.0,0.0,0.0,0.0,0.0,0.0,0.0,0.0,0.0,0.0,0.0,0.0,0.0,0.0,0.0,0.0,0.0,0.0,0.0,0.0,0.0,0.0,0.0,0.0,0.0,0.0,0.0,0.0,0.0,0.0,0.0,0.0,0.0,0.0,0.0,0.0,0.0,0.0,0.0,0.0,0.0,0.0,0.0,0.0,0.0,0.0,0.0,0.0,0.0,1.5725,1.7275,2.0388,2.2218,2.2726,2.2245,2.1951,2.1817,2.0321,1.8504,0.0,0.0,0.0,0.0,0.0,0.0,0.0,0.0,0.0,0.0,0.0,0.0,0.0,0.0,0.0,0.0,0.0,0.0,0.0,0.0,0.0,0.0,0.0,0.0,0.0,0.0,0.0,0.0,0.9579,0.9686,0.9686,0.0,0.0,0.0,0.0,0.0,0.0,0.0,0.0,0.0,0.0,1.7716,1.8664,1.8798,1.8784,1.8798,1.849,1.8103,1.7649,1.7582,1.7074,1.5591,0.0,0.0,0.0,0.0,0.0,0.0,0.0,0.0,0.0,0.0,0.0,0.0,0.0,0.0,0.0,0.0,0.0,0.0,0.0,0.0,0.0,0.0,0.0,0.0,0.0,0.0,0.0,0.919,0.0,0.0,0.8818,0.0,0.0,0.0,0.0,0.0,0.0,0.0,0.0,0.0,0.0,0.0,0.0,0.0,0.0,0.0,0.0,0.0,0.0,0.0,0.0,0.0,0.0,1.5832,1.7569,2.0468,2.2124,2.2405,2.2138,2.1844,2.155,2.0414,1.9078,1.7542,0.0,0.0,0.0,0.0,0.0,0.0,0.0,0.0,0.0,0.0,0.0,0.0,0.0,0.0,0.0,0.0,0.0,0.0,0.0,0.0,0.0,0.0,0.0,0.0,0.0,0.0,0.8884,0.9339,0.9686,0.0,0.0,0.0,0.0,0.0,0.0,0.0,0.0,0.0,1.5217,1.7395,1.8771,1.8531,1.8504,1.8517,1.8544,1.7555,1.6981,1.7528,1.7582,1.7288,0.0,0.0,0.0,0.0,0.0,0.0,0.0,0.0,0.0,0.0,0.0,0.0,0.0,0.0,0.0,0.0,0.0,0.0,0.0,0.0,0.0,0.0,0.0,0.0,0.0,0.0,0.0,1.1952,1.1289,0.0,0.0,0.0,0.0,0.0,0.0,0.0,0.0,0.0,0.0,0.0,1.5712,1.6393,0.0,0.0,0.0,0.0,0.0,0.0,0.0,0.0,0.0,0.0,0.0,0.0,1.6019,1.7622,2.0294,2.1844,2.2111,2.1844,2.1643,2.155,2.0802,1.9319,1.7074,0.0,0.0,0.0,0.0,0.0,0.0,0.0,0.0,0.0,0.0,0.0,0.0,0.0,0.0,0.0,0.0,0.0,0.0,0.0,0.0,0.0,0.0,0.0,0.0,0.0,0.9137,0.0,0.0,0.0,0.0,0.0,0.0,0.0,0.0,0.0,0.0,0.0,1.503,1.6393,1.7408,1.8143,1.845,1.849,1.8691,0.0,0.0,0.0,0.0,0.0,0.0,0.0,0.0,0.0,0.0,0.0,0.0,0.0,0.0,1.6286,1.3561,1.3133,1.3227,1.332,0.0,0.0,0.0,0.0,0.0,0.0,0.0,0.0,0.0,0.0,0.0,0.0,0.0,0.0,1.4376,1.3801,1.3213,0.0,0.0,0.0,0.0,0.0,0.0,0.0,0.0,1.6954,1.7916,1.8103,1.8691,1.8504,0.0,1.7154,1.5765,0.0,0.0,0.0,0.0,0.0,0.0,0.0,0.0,1.6366,1.7769,2.0254,2.1643,2.1804,2.155,2.1349,2.1243,2.0575,1.9252,1.7235,1.6059,1.475,0.0,0.0,0.0,0.0,0.0,0.0,0.0,0.0,0.0,0.0,0.0,0.0,0.0,0.0,0.0,0.0,0.0,0.0,0.0,0.0,0.0,0.0,0.0,0.9432,0.0,0.0,0.0,0.0,0.0,0.0,0.0,0.0,0.0,1.4095,1.5231,1.65,1.7756,1.8263,1.8504,1.849,0.0,0.0,0.0,0.0,0.0,0.0,0.0,1.7448,1.7355,1.7199,1.7516,1.8982,1.9384,1.9399,1.8998,0.0,0.0,1.5738,1.5244,1.5337,1.5444,1.6305,1.6978,1.688,1.792,1.8696,0.0,0.0,0.0,0.0,0.0,0.0,0.0,0.0,1.6767,1.6847,0.0,1.5591,0.0,0.0,0.0,0.0,0.0,1.5524,0.0,0.0,2.0,2.1229,2.0708,2.0695,2.0561,2.0281,1.9933,1.9038,1.7555,1.5097,0.0,0.0,0.0,0.0,0.0,0.0,1.6887,1.8076,2.0347,2.1537,2.151,2.1243,2.0962,2.0668,1.9853,1.8985,1.8116,1.7502,1.6626,1.5084,1.336,0.0,0.0,0.0,0.0,0.0,0.0,0.0,0.0,0.0,0.0,0.0,0.0,0.0,0.0,0.0,0.0,0.0,0.0,0.0,0.0,0.9713,0.0,0.0,0.0,0.0,0.0,0.0,0.0,0.0,0.0,0.0,1.5217,1.6807,1.8357,1.9199,0.0,0.0,0.0,0.0,1.8531,1.7475,1.7261,1.7395,1.7702,1.841,1.9038,1.9319,0.0,0.0,2.2423,2.137,1.9878,1.9273,2.0155,2.0147,1.9361,1.8346,1.7796,1.8144,1.9261,2.0195,2.068,2.198,2.3291,2.2631,0.0,0.0,0.0,0.0,1.9013,1.9305,2.0334,2.0214,1.9693,1.8865,1.8116,0.0,0.0,0.0,0.0,0.0,0.0,1.8223,1.9265,2.0615,2.1376,2.1617,2.1817,2.1764,2.147,2.0975,2.0414,1.976,1.8611,1.6526,1.3627,0.0,0.0,0.0,0.0,1.7689,1.8704,2.0361,2.1136,2.0935,2.0842,2.0655,2.0374,1.992,1.9466,1.8998,1.8624,1.7822,1.6567,1.5244,0.0,0.0,0.0,0.0,0.0,0.0,0.0,0.0,0.0,0.0,0.0,0.0,0.0,0.0,0.0,0.0,0.0,0.0,0.0,0.9967,1.0367,1.0728,0.0,0.0,0.0,0.0,0.0,0.0,0.0,0.0,0.0,1.8036,1.805,1.8223,0.0,0.0,1.8477,1.7916,1.8464,1.9025,1.9305,1.9345,0.0,2.0027,1.9786,1.9639,1.9933,2.0283,2.182,2.5945,2.5098,2.4154,2.4953,2.5376,2.5408,2.4888,2.2248,2.0736,2.1737,2.2394,2.3043,2.4295,2.4994,2.5194,2.7616,2.516,2.1964,2.1135,2.2062,2.1281,2.159,2.2512,2.2325,2.1991,2.1483,2.0548,1.9372,1.805,1.7181,0.0,0.0,0.0,1.9746,2.0949,2.1416,2.1871,2.2325,2.2392,2.2325,2.2138,2.1683,2.1363,2.1189,2.0481,1.8878,1.642,0.0,0.0,1.5712,1.7408,1.8611,1.9292,2.0481,2.1029,2.0855,2.0615,2.0307,1.9907,1.972,1.9546,1.9372,1.9199,1.8718,1.7876,1.662,1.5137,0.0,0.0,0.0,0.0,0.0,0.0,0.0,0.0,0.0,0.0,0.0,0.961,0.8494,0.0,0.0,0.0,1.0381,1.0889,1.1303,1.1757,0.0,0.0,0.0,0.0,0.0,0.0,0.0,1.6714,1.8036,1.9105,1.9639,1.9345,1.9239,1.9653,1.9452,1.9158,1.8851,0.0,1.9947,2.0347,2.0414,2.0575,2.1029,2.0869,2.0775,2.1195,2.3021,2.5,2.7524,2.7258,2.6893,2.7638,2.7833,2.7897,2.7682,2.5623,2.4119,2.5,2.5686,2.6381,2.721,2.7799,2.8055,3.2126,3.1154,2.5571,2.3242,2.3215,2.3475,2.3735,2.3868,2.3841,2.4127,2.4507,2.2998,2.2069,2.1523,1.9933,0.0,2.004,2.0561,2.1256,2.2058,2.2338,2.2605,2.2846,2.2579,2.2445,2.2445,2.2164,2.2017,2.1977,2.1189,2.0481,1.9893,1.9206,1.8601,1.8143,1.8958,1.9546,1.984,2.0641,2.1069,2.1029,2.0604,2.0039,1.9577,1.9666,1.9652,1.9523,1.9523,1.9273,1.8865,1.7515,1.6219,1.5044,0.0,0.0,0.0,0.0,0.0,0.0,0.0,0.0,0.0,0.0,0.0,0.0,0.0,0.0,1.1543,1.2131,0.0,1.336,1.3694,0.0,0.0,0.0,1.5391,1.6794,1.7729,1.845,1.8971,0.0,0.0,2.0374,2.0615,2.1115,2.1835,2.1464,2.1002,2.0956,2.1159,2.1321,2.1451,2.1327,2.145,2.2074,2.2461,2.2967,2.3525,2.6019,2.7982,2.8706,2.8558,2.8427,2.8804,2.8689,2.8673,2.8689,2.8605,2.8488,2.7908,2.878,2.9527,2.9465,3.0306,3.0992,3.4105,3.2192,3.0692,2.9854,2.9361,2.9155,2.9123,2.9186,2.879,2.8617,2.8474,2.6448,2.4238,2.2191,2.1777,2.1657,2.1804,2.1937,2.2231,2.2645,2.2726,2.2792,2.2859,2.2779,2.2752,2.2739,2.2458,2.2311,2.2298,2.1884,2.1376,2.0815,2.1666,2.0925,1.8477,1.9252,1.984,2.012,2.0561,2.0668,2.0441,2.1117,2.1191,2.0569,2.1673,2.1647,2.0317,2.0192,1.9736,1.8682,1.7609,1.662,1.5645,1.3798,0.0,0.0,0.0,0.0,0.0,0.0,0.0,0.0,0.0,1.2238,0.9873,0.0,1.3173,0.0,1.3601,1.4576,1.515,1.5671,0.0,0.0,1.7435,1.7943,1.8958,1.9653,2.0027,1.992,2.0695,2.1323,2.155,2.163,2.2408,2.4274,2.2605,2.1491,2.2544,2.3296,2.4291,2.5375,2.5992,2.6387,2.6289,2.6609,2.6751,2.6862,2.7719,2.9036,3.1653,3.1081,3.0513,3.1835,3.211,3.211,3.211,3.211,3.2053,3.1828,3.1043,3.0427,3.1598,3.1731,3.1484,3.6754,3.5467,3.5306,3.4788,3.4054,3.2244,3.1297,3.0982,3.0783,3.0359,2.9996,2.8659,2.7139,2.5411,2.4596,2.466,2.5189,2.4395,2.4424,2.5248,2.4467,2.406,2.406,2.3256,2.2859,2.2859,2.2699,2.3011,2.3644,2.2712,2.278,2.3961,2.3806,2.3048,2.1989,2.195,2.2039,2.2215,2.2539,2.2539,2.2349,2.2966,2.2741,2.1682,2.2397,2.2264,2.0922,2.0272,1.9788,1.9444,1.8292,1.7386,1.6574,1.5159,1.3658,0.0,0.0,0.0,0.0,0.0,0.0,0.0,0.0,0.0,0.0,0.0,1.4723,1.4376,1.5551,1.658,1.7154,1.7742,1.8437,1.9305,1.9546,2.0054,2.1056,2.1443,2.1697,2.179,2.289,2.3315,2.2687,2.3103,2.4052,2.5338,2.4115,2.335,2.4247,2.5298,2.6273,2.6549,2.7523,2.8163,2.8163,2.8821,2.9031,2.8521,2.9518,3.1249,3.3034,3.2625,3.2237,3.3165,3.3418,3.3418,3.3418,3.3418,3.3418,3.3253,3.2447,3.1967,3.2564,3.2285,3.1758,3.9316,3.916,3.8809,3.8203,3.7197,3.4133,3.2414,3.1582,3.148,3.0993,3.0443,3.0696,3.0237,2.944,2.7786,2.7736,2.8774,2.7149,2.7129,2.818,2.6666,2.5981,2.5831,2.4345,2.3529,2.3529,2.3529,2.4317,2.5771,2.4046,2.4657,2.7407,2.5659,2.5265,2.6386,2.5763,2.5177,2.4795,2.514,2.514,2.4911,2.5044,2.4311,2.2765,2.2845,2.2478,2.1459,2.0413,2.007,2.0456,1.9238,1.8245,1.7601,1.6548,1.5194,0.0,1.2728,0.0,0.0,0.0,0.0,0.0,0.0,0.0,0.0,1.5899,1.6446,1.67,1.7769,1.8664,1.9212,1.9786,2.0441,2.1176,2.1349,2.1804,2.2779,2.2953,2.3319,2.4127,2.5308,2.552,2.4358,2.5091,2.5965,2.6306,2.6377,2.6284,2.6393,2.7554,2.8097,2.6573,2.79,2.9213,2.9344,3.0272,3.0681,2.9661,3.1248,3.3272,3.3311,3.3292,3.3418,3.3418,3.3418,3.3418,3.3418,3.3418,3.3418,3.3418,3.3253,3.3155,3.2969,3.2559,3.2129,3.9863,3.9199,3.9121,3.8789,3.834,3.7651,3.6333,3.4448,3.3766,3.2781,3.1862,3.3826,3.2959,2.9838,2.9388,2.9346,2.9257,2.8865,2.8952,2.9158,2.8456,2.8191,2.8174,2.7499,2.7238,2.7238,2.7238,2.737,2.7635,2.7306,2.7247,2.746,2.8049,2.8219,2.7759,0.0,0.0,0.0,2.514,2.514,2.4895,2.5449,2.5127,2.3909,2.4601,0.0,2.2302,2.1961,2.1428,2.0475,1.9845,0.0,0.0,0.0,0.0,0.0,0.0,0.0,0.0,0.0,0.0,0.0,1.7048,1.6927,1.6473,1.8009,1.9065,1.9158,1.9987,2.0668,2.1029,2.1577,2.1991,2.2164,2.2605,2.3006,2.3233,2.3447,2.42,2.593,2.6305,2.6847,2.7557,2.7954,2.861,2.9395,2.9865,2.9847,2.9717,2.9995,3.066,3.1707,3.1963,3.2365,3.2365,3.2638,3.26,3.2543,3.2835,3.3418,3.3418,3.3418,3.3418,3.3418,3.3418,3.3418,3.3418,3.3418,3.3418,3.3418,3.3418,3.3398,3.332,3.2969,3.2559,4.0254,3.9844,3.9629,3.9043,0.0,3.8262,3.7285,3.5723,3.5898,3.5297,3.4308,3.5429,3.4803,3.2845,3.1475,3.1226,3.1655,3.0338,3.025,3.1366,3.0232,2.9854,3.0044,2.9043,2.8345,2.8163,2.8163,2.8689,2.9344,2.8558,2.8895,3.0339,2.9996,2.9879,3.0087,3.0393,2.9488,2.7524,2.7589,2.7589,2.7506,2.7641,2.7187,2.5966,2.616,0.0,0.0,0.0,0.0,0.0,0.0,0.0,0.0,0.0,0.0,1.8238,1.8789,1.8997,1.8369,1.8611,1.8842,1.9139,1.9653,1.9613,1.8731,1.9893,2.0788,2.1069,2.2254,2.3148,2.3459,2.4701,2.5502,2.5532,2.5951,2.6309,2.6489,2.6779,2.7226,2.8318,2.9045,2.9556,2.939,3.002,3.0583,3.1019,3.1078,3.1395,3.2001,3.2091,3.2492,3.3272,3.3418,3.3418,3.3418,3.3418,3.3418,3.3418,3.3418,3.3418,3.3418,3.3418,3.3418,3.3418,3.3418,3.3418,3.3418,3.3418,3.3418,3.3418,3.3418,3.3418,3.3398,3.3086,3.2676,4.0586,4.0488,4.0156,3.9336,3.8262,3.8184,3.7519,3.6523,0.0,0.0,0.0,3.623,3.5977,3.5938,3.3643,3.3254,3.4245,3.2078,3.2094,3.3739,3.2337,3.1818,3.1997,3.0513,2.9607,2.9202,2.9117,2.9865,3.1176,2.9865,3.0531,3.3,3.1626,3.1233,3.2148,3.1387,3.0781,3.0332,3.0234,3.0195,3.0195,2.9707,2.8926,2.7812,2.7285,2.668,2.5898,2.4857,2.4688,2.5333,2.4522,2.3394,2.2316,2.3609,2.3583,2.1869,2.3135,2.3607,2.2766,2.2843,2.2707,2.1922,2.2706,2.2442,2.1168,2.1727,2.249,2.2848,2.4598,2.5779,2.61,2.7707,2.8859,2.8925,2.9241,2.9589,2.9871,2.9987,2.9979,3.0792,3.1722,3.2218,3.115,3.1997,3.2496,3.2129,3.2077,3.2171,3.3135,3.3292,3.3292,3.3418,3.3418,3.3418,3.3418,3.3418,3.3418,3.3418,3.3418,3.3418,3.3418,3.3418,3.3418,3.3418,3.3418,3.3418,3.3418,3.3418,3.3418,3.3418,3.3418,3.3418,3.3379,3.3144,3.2773,4.0859,4.0527,4.0469,4.0117,3.959,3.9199,3.8711,3.8144,3.6867,3.6208,3.6133,3.6073,3.6208,3.6543,3.5782,3.553,3.5742,3.5336,3.5317,3.5625,3.5006,3.4738,3.4757,3.3873,3.3359,3.3283,3.281,3.2765,3.3019,3.2765,3.3019,3.3292,3.3087,3.268,3.2187,3.168,3.123,3.0801,3.0391,3.0195,3.0195,2.9414,2.875,2.8203,2.7461,2.6973,2.6836,2.6303,2.6226,2.6719,2.6536,2.6077,2.5074,2.5865,2.5758,2.4811,2.5528,2.5961,2.6116,2.6076,2.6297,2.6744,2.71,2.585,2.2617,2.3918,2.4952,2.5174,2.6761,2.7965,2.8309,2.8692,2.9261,2.941,2.976,2.9854,3.0076,3.0326,3.109,3.2577,3.2977,3.3642,3.4218,3.4643,3.4566,3.4274,3.3628,3.365,3.3447,3.3418,3.3418,3.3418,3.3418,3.3418,3.3418,3.3418,3.3418,3.3418,3.3418,3.3418,3.3418,3.3418,3.3418,3.3418,3.3418,3.3418,3.3418,3.3418,3.3418,3.3418,3.3418,3.3418,3.3418,3.332,3.3047,4.1055,4.0879,4.0879,4.0625,4.0176,3.9492,3.9082,3.8848,3.7864,3.7261,3.7031,3.6797,3.668,3.6582,3.5703,3.5293,3.5293,3.4824,3.4863,3.5273,3.5117,3.5156,3.5351,3.498,3.4668,3.4394,3.3984,3.3789,3.375,3.3555,3.3418,3.3398,3.3203,3.2891,3.25,3.1855,3.1426,3.123,3.0801,3.0566,3.0566,2.9941,2.9531,2.9316,2.8711,2.8398,2.8398,2.8437,2.8555,2.873,2.8984,2.8611,2.7591,2.8685,2.8824,2.7882,2.8859,2.9238,2.8619,2.7942,2.7698,2.7899,2.8081,2.7439,2.5692,2.6362,2.6972,2.6988,2.8726,2.9986,3.031,3.1497,3.2393,3.271,3.2939,3.3175,3.3193,3.332,3.3725,3.459,3.4727,3.4945,3.5607,3.5742,3.5566,3.5117,3.4531,3.4004,3.3789,3.3555,3.3418,3.3418,3.3418,3.3418,3.3418,3.3418,3.3418,3.3418,3.3418,3.3418,3.3418,3.3418,3.3418,3.3418,3.3418,3.3418,3.3418,3.3418,3.3418,3.3418,3.3418,3.3418,3.3398,3.3086,3.2617,4.125,4.1172,4.1172,4.0918,4.0469,3.9785,3.9394,3.918,3.8828,3.8457,3.8008,3.7665,3.7291,3.6699,3.5644,3.5098,3.4922,3.4316,3.4375,3.4941,3.5,3.5195,3.5488,3.5449,3.5215,3.4824,3.4336,3.4062,3.4023,3.3633,3.3418,3.3379,3.3086,3.2891,3.2773,3.2129,3.1719,3.1523,3.1211,3.0996,3.0879,3.0527,3.0351,3.0332,2.9922,2.9766,2.9863,3.0176,3.0391,3.0508,3.0918,3.0696,2.9999,3.0997,3.145,3.0594,3.175,3.2065,3.0954,2.9966,2.9344,2.9344,2.9344,2.9361,2.9344,2.9344,2.9213,2.9134,3.074,3.2077,3.2393,3.3937,3.543,3.5527,3.582,3.584,3.6016,3.6035,3.6035,3.6035,3.6035,3.6016,3.6035,3.6035,3.582,3.5371,3.4707,3.4219,3.4062,3.3691,3.3437,3.3418,3.3418,3.3418,3.3418,3.3418,3.3418,3.3418,3.3418,3.3418,3.3418,3.3418,3.3418,3.3418,3.3418,3.3418,3.3418,3.3418,3.3418,3.3418,3.3418,3.3418,3.3398,3.2773,3.2246,4.1523,4.1191,4.1172,4.0918,4.0547,4.041,3.9941,3.9238,3.8767,3.8534,3.8457,3.8576,3.798,3.7226,3.668,3.623,3.5898,3.5801,3.5781,3.5859,3.5898,3.5918,3.5918,3.5586,3.5371,3.5234,3.4512,3.4141,3.4082,3.3652,3.3418,3.3418,3.3379,3.3164,3.2832,3.2715,3.2305,3.1543,3.1484,3.1289,3.0918,3.084,3.084,3.082,3.0391,3.0351,3.0723,3.0801,3.1016,3.1387,3.1816,3.207,3.1886,3.2461,3.2572,3.2487,3.2941,3.3194,3.3087,3.3,3.2765,3.2892,3.2765,3.2765,3.2765,3.2765,3.2237,3.1267,3.2615,3.383,3.4328,3.4984,3.5566,3.5879,3.5976,3.6035,3.6035,3.6035,3.6035,3.6035,3.6035,3.6035,3.6035,3.6035,3.5859,3.5508,3.4941,3.4473,3.416,3.3711,3.3418,3.3418,3.3418,3.3418,3.3418,3.3418,3.3418,3.3418,3.3418,3.3418,3.3418,3.3418,3.3418,3.3418,3.3418,3.3418,3.3418,3.3418,3.3418,3.3418,3.3418,3.3418,3.332,3.2754,3.2226,4.1699,4.1504,4.1269,4.1074,4.0898,4.0644,4.0176,3.959,3.8922,3.8573,3.8574,3.8583,3.8249,3.7637,3.7226,3.6797,3.6426,3.6406,3.625,3.6035,3.6035,3.6035,3.5996,3.5859,3.5762,3.5723,3.5137,3.4707,3.4355,3.3769,3.3418,3.3418,3.3418,3.334,3.3164,3.293,3.2617,3.2285,3.2031,3.1816,3.1621,3.1152,3.0898,3.0898,3.0937,3.1055,3.1289,3.1738,3.209,3.2285,3.2676,3.291,3.291,3.3066,3.3164,3.3184,3.332,3.3418,3.3418,3.3418,3.3418,3.3418,3.3418,3.3418,3.3437,3.3652,3.3533,3.3058,3.3791,3.4531,3.4746,3.5351,3.584,3.5996,3.6035,3.6035,3.6035,3.6035,3.6035,3.6035,3.6035,3.6035,3.6035,3.6035,3.5957,3.5684,3.5176,3.4648,3.4434,3.3867,3.3457,3.3418,3.3418,3.3418,3.3418,3.3418,3.3418,3.3418,3.3418,3.3418,3.3418,3.3418,3.3418,3.3418,3.3418,3.3418,3.3418,3.3418,3.3418,3.3418,3.3398,3.3359,3.3105,3.2578,3.2168,4.2012,4.1758,4.1348,4.1172,4.1133,4.084,4.0469,4.0019,3.9213,3.8934,3.875,3.8633,3.8398,3.8066,3.7656,3.7246,3.6875,3.6719,3.6504,3.6191,3.6074,3.6035,3.6035,3.6035,3.6035,3.5957,3.5566,3.5098,3.4531,3.3945,3.3535,3.3457,3.3418,3.3418,3.3398,3.3086,3.291,3.2773,3.248,3.2285,3.2109,3.1562,3.123,3.1269,3.1406,3.1562,3.1719,3.2402,3.2793,3.2793,3.3203,3.3418,3.3418,3.3418,3.3418,3.3418,3.3418,3.3418,3.3418,3.3418,3.3418,3.3418,3.3418,3.3476,3.3613,3.3887,3.4121,3.4277,3.4629,3.4902,3.4961,3.5566,3.5996,3.6035,3.6035,3.6035,3.6035,3.6035,3.6035,3.6035,3.6035,3.6035,3.6035,3.6035,3.6016,3.5918,3.5371,3.4805,3.4648,3.4082,3.3574,3.3457,3.3418,3.3418,3.3418,3.3418,3.3418,3.3418,3.3418,3.3418,3.3418,3.3418,3.3418,3.3418,3.3418,3.3418,3.3418,3.3418,3.3418,3.3418,3.3398,3.3281,3.293,3.2299,3.1871,4.2539,4.1797,4.1348,4.1191,4.1172,4.1133,4.0898,4.043,4.0039,3.959,3.9121,3.8769,3.8574,3.8496,3.8066,3.7676,3.7246,3.6894,3.6699,3.6562,3.623,3.6035,3.6035,3.6035,3.6035,3.5996,3.5644,3.5019,3.4219,3.4062,3.3828,3.3457,3.3437,3.3418,3.3418,3.3379,3.3184,3.2871,3.2793,3.2598,3.2246,3.2148,3.209,3.2109,3.1738,3.1758,3.2148,3.2578,3.2812,3.2812,3.3203,3.3418,3.3437,3.3457,3.3476,3.3457,3.3457,3.3457,3.3476,3.3496,3.3496,3.3457,3.3535,3.3613,3.4004,3.4141,3.4336,3.4648,3.5078,3.5351,3.5391,3.5742,3.6016,3.6035,3.6035,3.6035,3.6035,3.6035,3.6035,3.6035,3.6035,3.6035,3.6035,3.6035,3.5996,3.5918,3.5605,3.5137,3.4668,3.4258,3.3848,3.3535,3.3418,3.3418,3.3418,3.3418,3.3418,3.3418,3.3418,3.3418,3.3418,3.3418,3.3418,3.3418,3.3418,3.3418,3.3418,3.3418,3.3418,3.3418,3.3418,3.3242,3.2734,3.1757,3.1194,4.2578,4.1797,4.1641,4.1426,4.1172,4.1172,4.0937,4.0527,4.0371,3.9883,3.9258,3.9043,3.8828,3.8574,3.8418,3.8105,3.7695,3.7539,3.7187,3.6719,3.6504,3.6289,3.6035,3.6035,3.6035,3.5996,3.5859,3.5508,3.4902,3.4375,3.4004,3.3809,3.3555,3.3418,3.3418,3.3418,3.334,3.3203,3.3203,3.3125,3.2949,3.2715,3.2812,3.3301,3.2695,3.2539,3.2949,3.3125,3.332,3.3594,3.3496,3.3555,3.3828,3.4101,3.4238,3.4238,3.4238,3.4238,3.4238,3.4238,3.4238,3.4238,3.4238,3.4277,3.4492,3.4746,3.498,3.5176,3.5527,3.5781,3.582,3.5937,3.6035,3.6035,3.6035,3.6035,3.6035,3.6035,3.6035,3.6035,3.6035,3.6035,3.6035,3.6035,3.5918,3.5625,3.5234,3.4824,3.4375,3.3926,3.3633,3.3476,3.3418,3.3418,3.3418,3.3418,3.3418,3.3418,3.3418,3.3418,3.3418,3.3418,3.3418,3.3418,3.3418,3.3418,3.3418,3.3418,3.3418,3.3418,3.3418,3.3144,3.2519,3.1623,3.118,4.2656,4.2031,4.1855,4.1562,4.1191,4.1172,4.1016,4.0723,4.0566,4.0117,3.9492,3.9277,3.8965,3.8633,3.8574,3.8437,3.8125,3.7988,3.7617,3.709,3.6797,3.6504,3.625,3.6094,3.6035,3.6035,3.6035,3.5801,3.5371,3.4785,3.4434,3.4258,3.3848,3.3633,3.3613,3.3496,3.3418,3.3418,3.3418,3.3476,3.3555,3.3359,3.3535,3.4082,3.3711,3.3535,3.3828,3.3828,3.3945,3.418,3.3984,3.3965,3.4277,3.4531,3.4687,3.4687,3.4687,3.4687,3.4687,3.4687,3.4687,3.4687,3.4687,3.4746,3.4902,3.5215,3.541,3.5605,3.582,3.6035,3.6035,3.6016,3.6035,3.6035,3.6035,3.6035,3.6035,3.6035,3.6035,3.6035,3.6035,3.6035,3.6035,3.6035,3.582,3.5449,3.5098,3.4726,3.418,3.3848,3.3555,3.3457,3.3418,3.3418,3.3418,3.3418,3.3418,3.3418,3.3418,3.3418,3.3418,3.3418,3.3418,3.3418,3.3418,3.3418,3.3418,3.3418,3.3418,3.3418,3.3359,3.3164,3.2351,3.1565,3.1123,4.2832,4.2363,4.1973,4.1582,4.1211,4.1172,4.1172,4.1055,4.0723,4.0332,3.9883,3.9453,3.9043,3.8672,3.8594,3.8555,3.8457,3.8144,3.793,3.7754,3.7109,3.6719,3.6601,3.625,3.6055,3.6035,3.6035,3.582,3.5449,3.5312,3.5078,3.4687,3.4297,3.4082,3.4062,3.373,3.3496,3.3535,3.3555,3.3711,3.4023,3.4023,3.4238,3.4648,3.4629,3.4629,3.4687,3.4668,3.4629,3.4687,3.4648,3.4668,3.4687,3.4785,3.4766,3.4824,3.4766,3.4746,3.4766,3.4805,3.4844,3.4844,3.4766,3.5,3.5332,3.543,3.5586,3.5879,3.5996,3.6035,3.6035,3.6035,3.6035,3.6035,3.6035,3.6035,3.6035,3.6035,3.6035,3.6035,3.6035,3.6035,3.6035,3.6035,3.5859,3.5508,3.5273,3.4941,3.4219,3.3945,3.3809,3.3535,3.3418,3.3418,3.3418,3.3418,3.3418,3.3418,3.3418,3.3418,3.3418,3.3418,3.3418,3.3418,3.3418,3.3418,3.3418,3.3418,3.3418,3.3398,3.332,3.3125,3.2273,3.1571,3.1165,4.3086,4.2441,4.2285,4.1816,4.1211,4.1172,4.1172,4.1152,4.1016,4.0742,4.0293,3.9883,3.9434,3.9004,3.8711,3.8574,3.8574,3.8418,3.8223,3.791,3.7656,3.7207,3.6738,3.6543,3.6309,3.6074,3.6035,3.5957,3.5801,3.5527,3.5293,3.5117,3.4726,3.4512,3.4492,3.4375,3.4297,3.4297,3.4297,3.4375,3.4492,3.4492,3.4726,3.5117,3.5176,3.5293,3.5547,3.5019,3.4863,3.5156,3.4863,3.4844,3.5137,3.5449,3.5605,3.5605,3.5605,3.5605,3.5605,3.5586,3.5586,3.5605,3.5586,3.5664,3.5801,3.582,3.5859,3.6016,3.6035,3.6035,3.6035,3.6035,3.6035,3.6035,3.6035,3.6035,3.6035,3.6035,3.6035,3.6035,3.6035,3.6035,3.6035,3.6035,3.584,3.541,3.5137,3.4687,3.4199,3.3809,3.3613,3.3437,3.3418,3.3418,3.3418,3.3418,3.3418,3.3418,3.3418,3.3418,3.3418,3.3418,3.3418,3.3418,3.3418,3.3418,3.3418,3.3418,3.3418,3.334,3.3387,3.2976,3.2305,3.1735,3.1127,4.3203,4.2441,4.2422,4.1953,4.1211,4.1172,4.1172,4.1172,4.1172,4.0937,4.0488,4.0078,3.9648,3.918,3.8769,3.8594,3.8574,3.8574,3.8437,3.8164,3.7969,3.7617,3.7109,3.6777,3.6445,3.6094,3.6035,3.6035,3.6016,3.5762,3.5625,3.5547,3.5176,3.4961,3.4922,3.4785,3.4687,3.4687,3.4687,3.4785,3.4922,3.4961,3.5156,3.5566,3.5625,3.5762,3.5957,3.5469,3.5312,3.5527,3.5332,3.5351,3.5625,3.5859,3.6035,3.6035,3.6016,3.6016,3.6035,3.5976,3.6035,3.6035,3.6035,3.6016,3.6016,3.6035,3.6035,3.6035,3.6035,3.6035,3.6035,3.6035,3.6035,3.6035,3.6035,3.6035,3.6035,3.6035,3.6035,3.6035,3.6035,3.6035,3.6035,3.6016,3.5762,3.5254,3.4883,3.4434,3.4004,3.3594,3.3476,3.3418,3.3418,3.3418,3.3418,3.3418,3.3418,3.3418,3.3418,3.3418,3.3418,3.3418,3.3418,3.3418,3.3418,3.3418,3.3418,3.3418,3.3398,3.3426,3.3328,3.2976,3.2299,3.1469,3.0945,4.3223,4.25,4.2441,4.1973,4.1269,4.1191,4.1172,4.1172,4.1172,4.0957,4.0566,4.0176,3.9707,3.9238,3.8867,3.8652,3.8574,3.8574,3.8574,3.8418,3.8184,3.7891,3.7617,3.6992,3.6445,3.6074,3.6035,3.6035,3.6016,3.5976,3.6035,3.5937,3.5605,3.543,3.5371,3.5,3.4883,3.4902,3.4863,3.5059,3.541,3.543,3.5586,3.5957,3.5976,3.5996,3.5996,3.5918,3.5937,3.5996,3.5918,3.5898,3.5996,3.6035,3.6035,3.6035,3.6035,3.6035,3.6035,3.6035,3.6035,3.6035,3.6035,3.6035,3.6035,3.6035,3.6035,3.6035,3.6035,3.6035,3.6035,3.6035,3.6035,3.6035,3.6035,3.6035,3.6035,3.6035,3.6035,3.6035,3.6035,3.6035,3.6035,3.6035,3.5644,3.5156,3.4844,3.4375,3.3945,3.3672,3.3476,3.3418,3.3418,3.3418,3.3418,3.3418,3.3418,3.3418,3.3418,3.3418,3.3418,3.3418,3.3418,3.3418,3.3418,3.3418,3.3418,3.3418,3.3418,3.3379,3.3203,3.293,3.2455,3.1764,3.1219,4.3398,4.2891,4.2558,4.2129,4.1621,4.1328,4.1172,4.1172,4.1172,4.1094,4.0898,4.0547,4.0098,3.9687,3.9219,3.8887,3.8633,3.8574,3.8574,3.8555,3.8476,3.8008,3.748,3.6934,3.6445,3.6074,3.6035,3.6035,3.6035,3.6035,3.6035,3.6016,3.5898,3.584,3.582,3.5684,3.5684,3.5664,3.5664,3.5684,3.5801,3.584,3.5898,3.5996,3.6035,3.6035,3.6035,3.6035,3.6035,3.6035,3.6035,3.6035,3.6035,3.6035,3.6035,3.6035,3.6035,3.6035,3.6035,3.6035,3.6035,3.6035,3.6035,3.6035,3.6035,3.6035,3.6035,3.6035,3.6035,3.6035,3.6035,3.6035,3.6035,3.6035,3.6035,3.6035,3.6035,3.6035,3.6035,3.6035,3.6035,3.6035,3.6035,3.6016,3.5898,3.5566,3.5078,3.4609,3.4141,3.3672,3.3418,3.3418,3.3418,3.3418,3.3418,3.3418,3.3418,3.3418,3.3418,3.3418,3.3418,3.3418,3.3418,3.3418,3.3418,3.3418,3.3418,3.3418,3.3418,3.3418,3.3348,3.3113,3.2878,3.226,3.1852,4.3457,4.3047,4.2598,4.2187,4.1777,4.1348,4.1172,4.1172,4.1172,4.1172,4.1074,4.0703,4.0293,3.9863,3.9414,3.8984,3.8613,3.8574,3.8574,3.8574,3.8574,3.8086,3.7422,3.7012,3.6621,3.6074,3.6035,3.6035,3.6035,3.6035,3.6035,3.6016,3.6035,3.6035,3.5996,3.6035,3.6035,3.6016,3.6035,3.6035,3.6035,3.6035,3.6016,3.6035,3.6035,3.6035,3.6035,3.6035,3.6035,3.6035,3.6035,3.6035,3.6035,3.6035,3.6035,3.6035,3.6035,3.6035,3.6035,3.6035,3.6035,3.6035,3.6035,3.6035,3.6035,3.6035,3.6035,3.6035,3.6035,3.6035,3.6035,3.6035,3.6035,3.6035,3.6035,3.6035,3.6035,3.6035,3.6035,3.6035,3.6035,3.6035,3.6035,3.6035,3.5918,3.5664,3.5078,3.4707,3.4336,3.3809,3.3418,3.3418,3.3418,3.3418,3.3418,3.3418,3.3418,3.3418,3.3418,3.3418,3.3418,3.3418,3.3418,3.3418,3.3418,3.3418,3.3418,3.3418,3.3418,3.3359,3.3328,3.3296,3.2976,3.2858,3.2446,4.3476,4.3105,4.2637,4.2207,4.1836,4.1387,4.1172,4.1172,4.1172,4.1172,4.1074,4.0703,4.0293,3.9863,3.9414,3.8984,3.8594,3.8574,3.8574,3.8574,3.8516,3.8144,3.748,3.7285,3.6836,3.623,3.6074,3.6035,3.6035,3.6035,3.6035,3.6035,3.6035,3.6035,3.6035,3.6035,3.6035,3.6035,3.6035,3.6035,3.6035,3.6035,3.6035,3.6035,3.6035,3.6035,3.6035,3.6035,3.6035,3.6035,3.6035,3.6035,3.6035,3.6035,3.6035,3.6035,3.6035,3.6035,3.6035,3.6035,3.6035,3.6035,3.6035,3.6035,3.6035,3.6035,3.6035,3.6035,3.6035,3.6035,3.6035,3.6035,3.6035,3.6035,3.6035,3.6035,3.6035,3.6035,3.6035,3.6035,3.6035,3.6035,3.6035,3.5996,3.5898,3.5781,3.5195,3.4707,3.4336,3.3828,3.3535,3.3418,3.3418,3.3418,3.3418,3.3418,3.3418,3.3418,3.3418,3.3418,3.3418,3.3418,3.3418,3.3418,3.3418,3.3418,3.3418,3.3418,3.3418,3.3398,3.3426,3.3144,3.2988,3.2988,3.2715,4.3652,4.3516,4.2734,4.2383,4.2168,4.1504,4.1172,4.1172,4.1172,4.1172,4.1074,4.0723,4.0293,3.9883,3.9414,3.8984,3.8613,3.8574,3.8574,3.8574,3.8574,3.8301,3.7773,3.7461,3.7012,3.6523,3.6152,3.6035,3.6035,3.6035,3.6035,3.6035,3.6035,3.6035,3.6035,3.6035,3.6035,3.6035,3.6035,3.6035,3.6035,3.6035,3.6035,3.6035,3.6035,3.6035,3.6035,3.6035,3.6035,3.6035,3.6035,3.6035,3.6035,3.6035,3.6035,3.6035,3.6035,3.6035,3.6035,3.6035,3.6035,3.6035,3.6035,3.6035,3.6035,3.6035,3.6035,3.6035,3.6035,3.6035,3.6035,3.6035,3.6035,3.6035,3.6035,3.6035,3.6035,3.6035,3.6035,3.6035,3.6035,3.6035,3.6035,3.6035,3.5918,3.5781,3.5332,3.4746,3.4297,3.3867,3.3594,3.3418,3.3418,3.3418,3.3418,3.3418,3.3418,3.3418,3.3418,3.3418,3.3418,3.3418,3.3418,3.3418,3.3418,3.3418,3.3418,3.3418,3.3418,3.3418,3.3418,3.3552,3.3454,3.3328,3.3375,4.3691,4.3613,4.2773,4.2422,4.2285,4.1543,4.1172,4.1172,4.1172,4.1172,4.1074,4.0723,4.0293,3.9863,3.9414,3.8965,3.8652,3.8574,3.8574,3.8574,3.8555,3.832,3.791,3.75,3.707,3.666,3.623,3.6035,3.6035,3.6035,3.6035,3.6035,3.6035,3.6035,3.6035,3.6035,3.6035,3.6035,3.6035,3.6035,3.6035,3.6035,3.6035,3.6035,3.6035,3.6035,3.6035,3.6035,3.6035,3.6035,3.6035,3.6035,3.6035,3.6035,3.6035,3.6035,3.6035,3.6035,3.6035,3.6035,3.6035,3.6035,3.6035,3.6035,3.6035,3.6035,3.6035,3.6035,3.6035,3.6035,3.6035,3.6035,3.6035,3.6035,3.6035,3.6035,3.6035,3.6035,3.6035,3.6035,3.6035,3.6035,3.6035,3.6035,3.6016,3.5898,3.5234,3.4687,3.4434,3.4004,3.3594,3.3418,3.3418,3.3418,3.3418,3.3418,3.3418,3.3418,3.3418,3.3418,3.3418,3.3418,3.3418,3.3418,3.3418,3.3418,3.3418,3.3418,3.3418,3.3418,3.3544,3.3776,3.3988,3.3803,3.4117,4.3672,4.3535,4.2754,4.2402,4.2207,4.1504,4.1172,4.1172,4.1172,4.1172,4.1055,4.0664,4.0176,3.9824,3.9297,3.8887,3.8652,3.8574,3.8574,3.8574,3.8574,3.832,3.791,3.75,3.707,3.666,3.623,3.6035,3.6035,3.6035,3.6035,3.6035,3.6035,3.6035,3.6035,3.6035,3.6035,3.6035,3.6035,3.6035,3.6035,3.6035,3.6035,3.6016,3.6539,3.6287,3.6152,3.6035,3.6035,3.6035,3.6035,3.6035,3.6035,3.6035,3.6035,3.6035,3.6035,3.6035,3.6035,3.6035,3.6035,3.6035,3.6035,3.6035,3.6035,3.6035,3.6035,3.6035,3.6035,3.6035,3.6035,3.6035,3.6035,3.6035,3.6035,3.6035,3.6035,3.6035,3.6035,3.6035,3.6035,3.6035,3.6035,3.6035,3.6035,3.5898,3.5234,3.4707,3.4473,3.416,3.373,3.3437,3.3418,3.3418,3.3418,3.3418,3.3418,3.3418,3.3418,3.3418,3.3418,3.3418,3.3418,3.3418,3.3418,3.3418,3.3418,3.3418,3.3418,3.3418,3.3776,3.4383,3.4487,3.4383,3.4696,4.3496,4.3144,4.2637,4.2226,4.1855,4.1367,4.1172,4.1172,4.1172,4.1172,4.1074,4.0371,3.998,3.9707,3.9004,3.8652,3.872,3.9136,3.9136,3.8991,3.8951,3.8838,3.8383,3.7825,3.7291,3.666,3.6367,3.6287,3.6035,3.6035,3.6152,3.6016,3.6152,3.6152,3.6423,3.6016,3.6403,3.6403,3.6539,3.6539,3.6287,3.6539,3.6403,3.6403,3.7307,3.7307,3.6423,3.6016,3.6035,3.6035,3.6035,3.6016,3.6152,3.6152,3.6035,3.6035,3.6035,3.6035,3.6035,3.6035,3.6035,3.6035,3.6035,3.6035,3.6035,3.6035,3.6035,3.6035,3.6035,3.6035,3.6035,3.6035,3.6035,3.6035,3.6035,3.6035,3.6035,3.6035,3.6035,3.6035,3.6035,3.6035,3.6035,3.6035,3.6035,3.5918,3.5488,3.4961,3.4609,3.4258,3.3848,3.3594,3.3418,3.3418,3.3418,3.3418,3.3418,3.3418,3.3418,3.3418,3.3418,3.3418,3.3418,3.3418,3.3418,3.3418,3.3418,3.3418,3.3418,3.3418,3.4133,3.4984,3.4736,3.4487,3.4487,4.3457,4.3027,4.2617,4.2187,4.1758,4.1348,4.1172,4.1172,4.1172,4.1172,4.0918,4.0312,3.9883,3.9648,3.8965,3.9011,3.9962,4.1063,4.1347,4.1467,4.1095,4.0738,4.0021,3.9034,3.8854,3.8615,3.8058,3.6789,3.6016,3.6035,3.6539,3.7193,3.7307,3.7709,3.8486,3.8861,3.8088,3.7842,3.8088,3.8088,3.7575,3.8088,3.8221,3.7822,3.8088,3.8088,3.7709,3.7307,3.7307,3.7461,3.7307,3.7307,3.7059,3.6539,3.6035,3.6035,3.6035,3.6035,3.6035,3.6035,3.6035,3.6035,3.6035,3.6035,3.6035,3.6035,3.6152,3.6016,3.6035,3.6035,3.6035,3.6035,3.6035,3.6035,3.6035,3.6035,3.6016,3.6016,3.6152,3.6287,3.6152,3.6152,3.6035,3.6035,3.6035,3.5859,3.5625,3.5215,3.4785,3.4394,3.4004,3.3633,3.3418,3.3418,3.3418,3.3418,3.3418,3.3418,3.3418,3.3418,3.3418,3.3418,3.3418,3.3418,3.3418,3.3418,3.3418,3.3418,3.3418,3.3418,3.3902,3.4383,3.4612,3.4612,3.4612,4.3418,4.291,4.2578,4.2288,4.2249,4.1911,4.2042,4.235,4.2503,4.2637,4.2229,4.1615,4.1171,4.0949,4.0468,4.0657,4.2031,4.3426,4.3636,4.3436,4.317,4.2839,4.1949,4.1044,4.0123,4.0279,3.9801,3.8333,3.7709,3.7441,3.7955,3.8729,3.9125,3.9627,4.0666,4.0666,4.0148,4.0018,4.0278,4.0278,3.9888,4.0278,4.0666,3.9235,3.9125,3.9125,3.9125,3.9125,3.9125,3.9125,3.9125,3.8993,3.8486,3.7307,3.6403,3.6016,3.6035,3.6035,3.6016,3.6539,3.6539,3.6152,3.6403,3.6403,3.6152,3.6423,3.6674,3.6539,3.6674,3.6674,3.6809,3.6287,3.6016,3.6035,3.6016,3.6152,3.6539,3.6924,3.7307,3.7193,3.6674,3.6674,3.6809,3.6924,3.7193,3.7173,3.693,3.5692,3.5258,3.4551,3.416,3.3672,3.3418,3.3418,3.3418,3.3418,3.3418,3.3418,3.3418,3.3418,3.3418,3.3418,3.3418,3.3418,3.3418,3.3418,3.3418,3.3418,3.3418,3.3418,3.365,3.3902,3.4133,3.4487,3.4736,4.3223,4.25,4.2441,4.2861,4.3808,4.3815,4.4677,4.6019,4.6019,4.6315,4.574,4.52,4.4595,4.4288,4.3705,4.3587,4.3841,4.4368,4.4573,4.4255,4.3893,4.3371,4.2231,4.1812,4.1584,4.1738,4.1181,4.0795,4.0408,4.0408,4.0537,4.0795,4.0924,4.1181,4.182,4.1947,4.1052,4.1052,4.1181,4.1181,4.1181,4.1437,4.1309,4.1052,4.0924,4.0924,4.0924,4.0924,4.0924,4.0924,4.0924,4.0148,3.8861,3.8486,3.7441,3.6539,3.6035,3.6035,3.6287,3.7441,3.7575,3.7059,3.7441,3.7307,3.7059,3.7461,3.7955,3.8353,3.8221,3.8221,3.7955,3.7059,3.6423,3.6152,3.6403,3.6924,3.7441,3.6924,3.7441,3.7822,3.7173,3.7709,3.8088,3.8221,3.8353,3.8333,3.7943,3.6527,3.5389,3.4603,3.416,3.3633,3.3418,3.3418,3.3418,3.3418,3.3418,3.3418,3.3418,3.3418,3.3418,3.3418,3.3418,3.3418,3.3418,3.3418,3.3418,3.3418,3.3418,3.3544,3.3776,3.3776,3.367,3.4153,3.4612,4.6384,4.5905,4.5497,4.5446,4.5744,4.5723,4.6167,4.6882,4.7029,4.6872,4.6536,4.5908,4.5303,4.5044,4.5187,4.5615,4.5862,4.6579,4.6825,4.6168,4.5858,4.5357,4.4737,4.3702,4.2995,4.3576,4.3357,4.3357,4.3232,4.2201,4.1565,4.258,4.2706,4.3232,4.3606,4.4003,4.3482,4.2958,4.2706,4.3107,4.3855,4.4003,4.3606,4.2706,4.258,4.258,4.258,4.258,4.258,4.258,4.258,4.2328,4.1415,4.0795,4.0018,4.0515,3.9497,3.8088,3.6674,3.8729,3.8729,3.8353,3.8861,3.9235,3.8088,3.8221,3.8729,3.8618,3.8618,3.8993,3.9758,3.9366,3.8465,3.7822,3.6924,3.6924,3.7307,3.7059,3.6924,3.7441,3.7955,3.8221,3.8221,3.7575,3.7554,3.7514,3.7177,3.603,3.508,3.425,3.3828,3.3535,3.3418,3.3418,3.3418,3.3418,3.3418,3.3418,3.3418,3.3418,3.3418,3.3418,3.3418,3.3418,3.3418,3.3418,3.3418,3.3418,3.3418,3.365,3.3902,3.365,3.3544,3.367,3.4258,5.0019,4.9651,4.8223,4.7647,4.7781,4.7759,4.8072,4.8506,4.8488,4.8256,4.772,4.726,4.6449,4.5913,4.6846,4.7509,4.7641,4.9023,4.8985,4.8586,4.8083,4.7283,4.6168,4.5061,4.5037,4.6301,4.489,4.489,4.489,4.4251,4.3482,4.4374,4.4374,4.489,4.5793,4.5914,4.5281,4.4497,4.4374,4.489,4.5671,4.555,4.5013,4.4374,4.3979,4.3855,4.4251,4.4374,4.4374,4.4374,4.4374,4.4103,4.3208,4.2454,4.182,4.2178,4.1542,4.0408,3.9366,3.9888,4.0537,4.0278,4.0148,4.0408,3.9627,3.9497,3.9888,4.0278,4.0256,4.0666,4.0795,4.0666,3.9125,3.8088,3.7441,3.7193,3.6924,3.7059,3.7709,3.8729,3.8861,3.7955,3.7709,3.6789,3.6499,3.6729,3.6142,3.5534,3.4662,3.3867,3.3652,3.3437,3.3418,3.3418,3.3418,3.3418,3.3418,3.3418,3.3418,3.3418,3.3418,3.3418,3.3418,3.3418,3.3418,3.3418,3.3418,3.3418,3.3418,3.3544,3.365,3.3544,3.3418,3.3524,3.3776,5.3338,5.3006,4.9268,4.8676,4.9819,4.9819,5.0857,5.1787,5.1643,5.1632,5.1272,5.0697,4.9356,4.9172,4.8763,4.9177,4.9307,4.959,4.8912,4.8284,4.7832,4.728,4.6459,4.6134,4.6059,4.6301,4.5793,4.5914,4.618,4.5793,4.5671,4.6059,4.5671,4.6035,4.6301,4.6301,4.618,4.5671,4.5671,4.5793,4.5793,4.5281,4.489,4.5525,4.4767,4.4374,4.5939,4.5914,4.5793,4.5793,4.5793,4.5281,4.4251,4.3855,4.3357,4.2832,4.3357,4.2454,4.1797,4.2201,4.2431,4.1693,4.1437,4.1693,4.1158,4.2431,4.2958,4.2454,4.1542,4.1542,4.0924,3.9888,3.8993,3.7955,3.7575,3.7307,3.7173,3.7575,3.8353,3.9888,3.9497,3.8088,3.7441,3.6539,3.6245,3.6455,3.601,3.54,3.4387,3.3711,3.3555,3.3418,3.3418,3.3418,3.3418,3.3418,3.3418,3.3418,3.3418,3.3418,3.3418,3.3418,3.3418,3.3418,3.3418,3.3418,3.3418,3.3418,3.3418,3.3418,3.3418,3.3418,3.365,3.3902,3.3902,5.3507,5.3067,5.1455,5.1192,5.1747,5.1747,5.199,5.2291,5.2201,5.1699,5.1305,5.0474,4.9841,4.964,4.959,4.959,4.954,4.9213,4.8586,4.8033,4.7531,4.6979,4.6502,4.6326,4.6301,4.6326,4.6326,4.6326,4.6301,4.6326,4.6326,4.6301,4.6326,4.6301,4.6301,4.6326,4.6326,4.6326,4.6326,4.6326,4.618,4.5914,4.5646,4.6059,4.5914,4.5525,4.618,4.6301,4.6301,4.6326,4.6326,4.5793,4.5281,4.5159,4.4767,4.4127,4.489,4.4645,4.4374,4.4767,4.489,4.4645,4.4251,4.3731,4.2706,4.258,4.2201,4.182,4.1565,4.1181,4.1181,4.0537,3.9758,3.8221,3.7441,3.7307,3.7173,3.7307,3.7441,3.8353,3.7822,3.6789,3.6539,3.6403,3.634,3.6256,3.5731,3.526,3.431,3.3613,3.3496,3.3418,3.3418,3.3418,3.3418,3.3418,3.3418,3.3418,3.3418,3.3418,3.3418,3.3418,3.3418,3.3418,3.3418,3.3418,3.3418,3.3418,3.3418,3.3418,3.3418,3.3418,3.365,3.4007,3.4238,5.3256,5.2929,5.2929,5.2929,5.2904,5.2754,5.2477,5.2101,5.1699,5.1096,5.0142,4.9741,4.959,4.959,4.959,4.9439,4.9264,4.8912,4.8335,4.7782,4.728,4.6803,4.6476,4.6326,4.6326,4.6326,4.6326,4.6326,4.6326,4.6326,4.6326,4.6326,4.6326,4.6326,4.6326,4.6326,4.6326,4.6326,4.6326,4.6326,4.6326,4.6301,4.618,4.6326,4.618,4.618,4.6301,4.6326,4.6326,4.6326,4.6326,4.6326,4.6301,4.6301,4.6326,4.6326,4.6326,4.6326,4.6326,4.6301,4.6301,4.5793,4.5939,4.5135,4.3855,4.258,4.2454,4.2201,4.1052,4.0408,4.1309,4.0924,3.9497,3.7842,3.7193,3.6924,3.6539,3.6539,3.6423,3.6539,3.6152,3.6268,3.5936,3.5857,3.5618,3.5514,3.508,3.4655,3.3965,3.3496,3.3457,3.3418,3.3418,3.3418,3.3418,3.3418,3.3418,3.3418,3.3418,3.3418,3.3418,3.3418,3.3418,3.3418,3.3418,3.3418,3.3418,3.3418,3.3418,3.3418,3.3418,3.3418,3.3446,3.3783,3.449,5.2955,5.2929,5.2904,5.2904,5.2804,5.2352,5.2101,5.18,5.0946,5.0218,4.9741,4.959,4.954,4.954,4.9464,4.9213,4.8812,4.8636,4.8134,4.738,4.7054,4.6753,4.6502,4.6326,4.6326,4.6326,4.6326,4.6326,4.6326,4.6326,4.6326,4.6326,4.6326,4.6326,4.6326,4.6326,4.6326,4.6326,4.6326,4.6326,4.6326,4.6326,4.6326,4.6326,4.6326,4.6326,4.6326,4.6326,4.6326,4.6326,4.6326,4.6326,4.6326,4.6326,4.6326,4.6326,4.6326,4.6326,4.6326,4.6326,4.6326,4.6326,4.6301,4.5646,4.4251,4.3606,4.3083,4.2454,4.2328,4.167,4.1565,4.0666,3.8597,3.7575,3.6789,3.6539,3.6152,3.6035,3.6035,3.6035,3.6035,3.5976,3.5684,3.5371,3.4922,3.459,3.4297,3.3926,3.3516,3.3418,3.3418,3.3418,3.3418,3.3418,3.3418,3.3418,3.3418,3.3418,3.3418,3.3418,3.3418,3.3418,3.3418,3.3418,3.3418,3.3418,3.3418,3.3418,3.3418,3.3418,3.3418,3.3398,3.3407,3.3493,3.4117,5.2929,5.2904,5.2528,5.2377,5.2352,5.2176,5.1699,5.0921,5.0218,4.9766,4.9615,4.959,4.9364,4.9163,4.9012,4.8761,4.8234,4.7757,4.728,4.7154,4.6803,4.6552,4.6351,4.6326,4.6326,4.6326,4.6326,4.6326,4.6326,4.6326,4.6326,4.6326,4.6326,4.6326,4.6326,4.6326,4.6326,4.6326,4.6326,4.6326,4.6326,4.6326,4.6326,4.6326,4.6326,4.6326,4.6326,4.6326,4.6326,4.6326,4.6326,4.6326,4.6326,4.6326,4.6326,4.6326,4.6326,4.6326,4.6326,4.6326,4.6326,4.6326,4.618,4.5914,4.5403,4.4251,4.3357,4.2201,4.1437,4.0148,3.8088,3.7822,3.6674,3.6539,3.6152,3.6152,3.6035,3.6035,3.6035,3.6035,3.6035,3.5781,3.5508,3.5019,3.4551,3.4258,3.4004,3.3789,3.3457,3.3418,3.3418,3.3418,3.3418,3.3418,3.3418,3.3418,3.3418,3.3418,3.3418,3.3418,3.3418,3.3418,3.3418,3.3418,3.3418,3.3418,3.3418,3.3418,3.3418,3.3418,3.3418,3.3418,3.3359,3.334,3.3611,5.2804,5.2603,5.2251,5.1875,5.1574,5.1523,5.0971,5.0167,4.9741,4.959,4.959,4.959,4.9314,4.8912,4.8736,4.8284,4.7682,4.733,4.6903,4.6853,4.6527,4.6351,4.6326,4.6326,4.6326,4.6326,4.6326,4.6326,4.6326,4.6326,4.6326,4.6326,4.6326,4.6326,4.6326,4.6326,4.6326,4.6326,4.6326,4.6326,4.6326,4.6326,4.6326,4.6326,4.6326,4.6326,4.6326,4.6326,4.6326,4.6326,4.6326,4.6326,4.6326,4.6326,4.6326,4.6326,4.6326,4.6326,4.6326,4.6326,4.6326,4.6326,4.6326,4.5671,4.4767,4.3232,4.182,4.0666,3.9758,3.8597,3.7307,3.6924,3.6924,3.6809,3.6035,3.6035,3.6035,3.6035,3.5996,3.6016,3.5742,3.5508,3.5195,3.4687,3.418,3.3945,3.373,3.3555,3.3418,3.3418,3.3418,3.3418,3.3418,3.3418,3.3418,3.3418,3.3418,3.3418,3.3418,3.3418,3.3418,3.3418,3.3418,3.3418,3.3418,3.3418,3.3418,3.3418,3.3418,3.3418,3.3418,3.3418,3.3418,3.3418,3.3418,5.2578,5.2126,5.2076,5.1398,5.0544,5.0494,5.0117,4.964,4.9615,4.959,4.959,4.954,4.9163,4.8761,4.8686,4.8058,4.7255,4.7054,4.6778,4.6502,4.6351,4.6326,4.6326,4.6326,4.6326,4.6326,4.6326,4.6326,4.6326,4.6326,4.6326,4.6326,4.6326,4.6326,4.6326,4.6326,4.6326,4.6326,4.6326,4.6326,4.6326,4.6326,4.6326,4.6326,4.6326,4.6326,4.6326,4.6326,4.6326,4.6326,4.6326,4.6326,4.6326,4.6326,4.6326,4.6326,4.6326,4.6326,4.6326,4.6326,4.6326,4.6326,4.6326,4.4398,4.3232,4.258,4.1565,4.0795,4.0018,3.9387,3.8465,3.8486,3.8486,3.7441,3.6152,3.6035,3.6035,3.6016,3.5976,3.582,3.543,3.5117,3.4726,3.4258,3.3887,3.3789,3.3613,3.3516,3.3418,3.3418,3.3418,3.3418,3.3418,3.3418,3.3418,3.3418,3.3418,3.3418,3.3418,3.3418,3.3418,3.3418,3.3418,3.3418,3.3418,3.3418,3.3418,3.3418,3.3418,3.3418,3.3418,3.3418,3.3418,3.3418,3.367,5.2,5.1498,5.1071,5.072,5.0393,4.9992,4.9715,4.9615,4.959,4.959,4.959,4.9163,4.8736,4.8159,4.7757,4.7205,4.6803,4.6552,4.6476,4.6351,4.6326,4.6326,4.6326,4.6326,4.6326,4.6326,4.6326,4.6326,4.6326,4.6326,4.6326,4.6326,4.6326,4.6326,4.6326,4.6326,4.6326,4.6326,4.6326,4.6326,4.6326,4.6326,4.6326,4.6326,4.6326,4.6326,4.6326,4.6326,4.6326,4.6326,4.6326,4.6326,4.6326,4.6326,4.6326,4.6326,4.6326,4.6326,4.6326,4.6326,4.6326,4.6301,4.618,4.6059,4.4767,4.3232,4.1947,4.0795,4.0148,3.9387,3.8221,3.7842,3.7842,3.6924,3.6016,3.5976,3.5976,3.5898,3.582,3.5371,3.5,3.4629,3.4258,3.3945,3.3633,3.3574,3.3535,3.3457,3.3418,3.3418,3.3418,3.3418,3.3418,3.3418,3.3418,3.3418,3.3418,3.3418,3.3418,3.3418,3.3418,3.3418,3.3418,3.3418,3.3418,3.3418,3.3418,3.3418,3.3418,3.3418,3.3418,3.3418,3.3418,3.3418,3.3418,5.1448,5.0921,5.0569,5.0293,5.0067,4.9741,4.949,4.9339,4.949,4.9515,4.9238,4.8937,4.8335,4.7631,4.7305,4.6878,4.6376,4.6376,4.6326,4.6326,4.6326,4.6326,4.6326,4.6326,4.6326,4.6326,4.6326,4.6326,4.6326,4.6326,4.6326,4.6326,4.6326,4.6326,4.6326,4.6326,4.6326,4.6326,4.6326,4.6326,4.6326,4.6326,4.6326,4.6326,4.6326,4.6326,4.6326,4.6326,4.6326,4.6326,4.6326,4.6326,4.6326,4.6326,4.6326,4.6326,4.6326,4.6326,4.6326,4.6326,4.6326,4.6059,4.5671,4.5159,4.4497,4.3083,4.1565,4.0278,3.9888,3.9256,3.7842,3.6539,3.6423,3.6152,3.5976,3.5937,3.5859,3.5781,3.5391,3.4902,3.4492,3.4121,3.3809,3.3555,3.3418,3.3457,3.3476,3.3437,3.3418,3.3418,3.3418,3.3418,3.3418,3.3418,3.3418,3.3418,3.3418,3.3418,3.3418,3.3418,3.3418,3.3418,3.3418,3.3418,3.3418,3.3418,3.3418,3.3418,3.3418,3.3418,3.3418,3.3418,3.3418,3.3418,3.3418,5.087,5.0368,5.0343,4.9992,4.9565,4.949,4.9188,4.8786,4.9163,4.9163,4.8736,4.8636,4.8008,4.733,4.7029,4.6728,4.6401,4.6326,4.6326,4.6326,4.6326,4.6326,4.6326,4.6326,4.6326,4.6326,4.6326,4.6326,4.6326,4.6326,4.6326,4.6326,4.6326,4.6326,4.6326,4.6326,4.6326,4.6326,4.6326,4.6326,4.6326,4.6326,4.6326,4.6326,4.6326,4.6326,4.6326,4.6326,4.6326,4.6326,4.6326,4.6326,4.6326,4.6326,4.6326,4.6326,4.6326,4.6326,4.6326,4.6326,4.6326,4.5793,4.4743,4.4251,4.3731,4.258,4.1052,3.9627,3.9125,3.8353,3.6924,3.6674,3.6539,3.6073,3.5879,3.5762,3.5625,3.5371,3.4883,3.4434,3.4141,3.3789,3.3633,3.3418,3.3418,3.3418,3.3418,3.3418,3.3418,3.3418,3.3418,3.3418,3.3418,3.3418,3.3418,3.3418,3.3418,3.3418,3.3418,3.3418,3.3418,3.3418,3.3418,3.3418,3.3418,3.3418,3.3418,3.3418,3.3418,3.3418,3.3418,3.3418,3.3418,3.3418,3.3418,5.0293,4.9791,4.9791,4.9464,4.8987,4.8962,4.8636,4.8134,4.8234,4.8234,4.8058,4.7707,4.7431,4.7104,4.6702,4.6451,4.6376,4.6326,4.6326,4.6326,4.6326,4.6326,4.6326,4.6326,4.6326,4.6326,4.6326,4.6326,4.6326,4.6326,4.6326,4.6326,4.6326,4.6326,4.6326,4.6326,4.6326,4.6326,4.6326,4.6326,4.6326,4.6326,4.6326,4.6326,4.6326,4.6326,4.6326,4.6326,4.6326,4.6326,4.6326,4.6326,4.6326,4.6301,4.6301,4.6301,4.6175,4.615,4.6125,4.61,4.61,4.5693,4.4915,4.4079,4.3208,4.1947,4.0644,3.9344,3.8158,3.7112,3.6594,3.6594,3.6574,3.6071,3.5703,3.5527,3.5332,3.4844,3.4336,3.4062,3.3769,3.3613,3.3457,3.3418,3.3418,3.3418,3.3418,3.3418,3.3418,3.3418,3.3418,3.3418,3.3418,3.3418,3.3418,3.3418,3.3418,3.3418,3.3418,3.3418,3.3418,3.3418,3.3418,3.3418,3.3418,3.3418,3.3418,3.3418,3.3418,3.3418,3.3418,3.3418,3.3418,3.3418,3.3418,4.9891,4.9565,4.9339,4.9063,4.8761,4.851,4.8083,4.7631,4.7556,4.7405,4.7255,4.7129,4.7004,4.6828,4.6426,4.6326,4.6326,4.6326,4.6326,4.6326,4.6326,4.6326,4.6326,4.6326,4.6326,4.6326,4.6326,4.6326,4.6326,4.6326,4.6326,4.6326,4.6326,4.6326,4.6326,4.6326,4.6301,4.6326,4.6276,4.6276,4.6276,4.6301,4.6301,4.6326,4.6326,4.6301,4.6326,4.6326,4.6326,4.62,4.6075,4.5924,4.5799,4.5623,4.5522,4.5497,4.5497,4.5573,4.5598,4.5623,4.5623,4.5147,4.4833,4.4061,4.1646,4.0397,3.9814,3.855,3.6709,3.5672,3.552,3.552,3.552,3.5328,3.5117,3.5,3.4668,3.4199,3.3906,3.373,3.3555,3.3516,3.3418,3.3418,3.3418,3.3418,3.3418,3.3418,3.3418,3.3418,3.3418,3.3418,3.3418,3.3418,3.3418,3.3418,3.3418,3.3418,3.3418,3.3418,3.3418,3.3418,3.3418,3.3418,3.3418,3.3418,3.3418,3.3418,3.3418,3.3418,3.3418,3.3418,3.3418,3.3418,3.3418,4.9565,4.9414,4.8887,4.8611,4.8485,4.8033,4.7506,4.7079,4.7029,4.6778,4.6502,4.6828,4.6677,4.6451,4.6326,4.6326,4.6326,4.6326,4.6326,4.6326,4.6326,4.6326,4.6326,4.6326,4.6326,4.6326,4.6326,4.6326,4.6326,4.6326,4.6326,4.6326,4.6326,4.6326,4.6301,4.6301,4.6276,4.6125,4.6075,4.6075,4.615,4.625,4.6301,4.6326,4.6301,4.6276,4.625,4.62,4.62,4.5899,4.5573,4.5447,4.5296,4.507,4.492,4.4869,4.4895,4.4844,4.4794,4.4844,4.4794,4.4602,4.4386,4.2901,4.0341,3.9001,3.8463,3.7294,3.5491,3.4877,3.4746,3.4726,3.4746,3.4707,3.4629,3.4473,3.4062,3.3711,3.3574,3.3457,3.3437,3.3418,3.3418,3.3418,3.3418,3.3418,3.3418,3.3418,3.3418,3.3418,3.3418,3.3418,3.3418,3.3418,3.3418,3.3418,3.3418,3.3418,3.3418,3.3418,3.3418,3.3418,3.3418,3.3418,3.3418,3.3418,3.3418,3.3418,3.3418,3.3418,3.3418,3.3418,3.3418,3.3418,3.3418,4.9339,4.8887,4.8309,4.7857,4.7481,4.733,4.6954,4.6527,4.6476,4.6401,4.6376,4.6351,4.6351,4.6326,4.6326,4.6326,4.6326,4.6326,4.6326,4.6326,4.6326,4.6326,4.6326,4.6326,4.6326,4.6326,4.6326,4.6326,4.6326,4.6326,4.6326,4.6326,4.6326,4.6301,4.6276,4.6225,4.605,4.5824,4.5573,4.5522,4.5422,4.5648,4.625,4.6326,4.6301,4.6024,4.5799,4.5673,4.5372,4.507,4.4869,4.4819,4.4694,4.4568,4.4443,4.4342,4.4367,4.4367,4.4342,4.4111,4.3946,4.3763,4.3013,4.0843,3.8693,3.6771,3.6243,3.5497,3.4466,3.4662,3.4551,3.4551,3.4551,3.4473,3.4375,3.4043,3.3672,3.3555,3.3476,3.3437,3.3418,3.3418,3.3418,3.3418,3.3418,3.3418,3.3418,3.3418,3.3418,3.3418,3.3418,3.3418,3.3418,3.3418,3.3418,3.3418,3.3418,3.3418,3.3418,3.3418,3.3418,3.3418,3.3418,3.3418,3.3418,3.3418,3.3418,3.3418,3.3418,3.3418,3.3418,3.3418,3.3418,3.3418,3.3418]}]]